GFSMW_250_rhum_000.txt.gz
RH
100 85 67 43 24 19 27 34 32 28 30 28 27 34 40 52 66 69 81 99 91 83 82 65 46 33 36 42 42 43 55 58 54 57 56 49 47 43 42 39 39 42 53
99 82 58 34 19 17 24 33 36 40 43 46 48 53 67 78 86 88 89 86 74 73 65 56 46 37 39 43 48 49 52 54 54 43 38 39 48 60 62 69 70 70 69
95 72 56 29 18 18 22 34 42 51 66 73 73 76 78 88 91 82 77 81 78 71 57 45 42 44 53 57 56 51 47 48 52 50 44 43 51 61 84 87 92 93 99
86 69 54 35 21 20 21 24 34 53 61 71 82 94 100 96 84 75 57 45 41 41 45 54 61 62 60 60 68 70 61 57 53 65 75 71 70 69 69 82 85 86 96
89 67 51 35 22 21 22 24 29 44 57 61 69 87 90 83 59 52 56 54 53 54 59 60 60 66 68 65 63 64 72 82 86 84 82 85 85 85 78 69 73 64 61
97 80 54 38 26 21 27 31 28 32 52 64 79 91 89 60 62 64 68 72 76 86 95 95 87 82 84 90 96 100 99 99 100 99 96 89 79 78 73 58 48 47 58
100 82 56 48 36 24 27 33 35 33 34 39 52 53 60 72 66 74 84 89 90 81 73 69 73 75 74 80 86 87 84 80 72 66 64 69 62 58 53 49 48 46 67
100 91 59 51 40 31 33 38 39 39 44 51 61 65 62 66 69 66 68 68 65 68 73 80 90 96 86 70 62 60 56 57 54 52 53 60 62 55 48 47 44 34 29
100 98 77 62 53 45 42 41 43 46 52 56 56 57 60 65 74 76 78 85 84 90 90 71 62 60 65 62 54 52 65 57 67 66 66 56 44 36 31 26 24 20 14
98 98 80 78 68 57 54 54 57 67 72 73 77 84 88 93 95 100 97 81 68 62 54 54 59 55 52 57 78 74 62 49 43 42 39 34 28 26 25 24 23 21 14
66 57 77 90 90 84 84 83 86 87 90 97 98 100 100 100 100 79 55 52 60 57 63 68 80 82 66 49 44 43 41 41 36 32 28 27 24 22 22 23 22 19 18
36 38 75 100 100 100 100 100 100 100 100 100 100 100 100 86 62 53 55 55 58 70 76 59 49 43 42 40 40 41 43 37 34 33 31 24 20 18 19 19 17 12 9
36 53 66 94 100 100 100 100 92 90 92 89 91 87 70 60 59 58 60 70 72 59 48 44 38 39 41 40 41 36 34 32 25 20 17 15 14 12 11 8 8 8 8
42 81 100 100 100 100 96 88 97 90 84 88 74 61 66 69 65 67 71 60 44 39 35 36 40 42 48 46 40 31 25 19 16 14 11 7 7 6 7 6 6 5 5
82 100 100 100 100 99 100 96 88 82 74 66 73 75 67 65 66 57 43 37 34 32 35 47 52 47 39 33 25 19 14 11 8 8 7 6 5 4 4 4 4 3 4
100 100 100 100 100 99 86 78 75 78 74 73 68 66 64 50 40 35 35 32 34 44 54 54 50 40 30 22 16 12 9 7 6 5 4 4 4 3 3 2 3 3 3
100 100 100 96 83 78 70 68 67 72 68 65 64 58 45 38 35 30 34 44 52 61 57 48 33 25 16 14 12 8 6 5 4 3 2 3 3 2 2 3 3 3 3
100 99 82 68 68 64 60 61 64 68 71 64 53 43 38 33 33 39 44 51 57 56 54 40 20 14 12 9 7 6 4 3 2 2 2 2 3 3 3 3 4 4 4
90 73 64 71 68 59 64 81 77 71 56 49 39 36 36 35 39 42 46 58 67 65 34 17 13 14 9 7 6 4 3 2 2 2 3 2 2 2 2 3 3 4 4
66 68 74 64 68 80 80 72 63 53 45 38 50 50 38 42 41 50 61 68 57 29 15 13 11 7 7 6 4 3 2 2 2 3 2 2 2 2 2 2 2 3 3
76 66 73 76 76 75 66 58 54 46 54 65 55 42 45 41 49 57 64 55 30 15 13 10 8 7 6 4 3 3 2 2 2 2 2 2 2 2 2 2 2 2 2
66 78 76 78 74 68 60 49 50 62 62 53 48 44 39 52 63 68 61 43 16 12 9 7 7 7 5 4 4 3 3 2 2 2 2 2 2 2 3 3 3 3 3
69 72 79 72 62 50 50 54 64 67 65 49 40 49 58 65 73 62 47 22 14 9 7 6 7 5 4 4 4 3 2 2 2 2 2 2 2 2 2 3 4 4 4
80 87 72 52 49 49 54 62 64 54 44 40 50 57 65 72 73 54 27 15 11 8 7 6 5 5 5 5 5 3 3 3 2 2 1 1 2 2 3 4 4 4 4
70 56 50 49 57 63 60 50 43 40 44 48 57 65 70 72 61 44 19 12 8 7 6 5 4 4 5 5 4 4 3 2 2 2 2 2 2 3 4 5 5 5 5
53 46 52 61 64 54 43 42 41 42 48 57 66 72 76 62 43 22 14 9 9 8 6 5 4 4 4 4 4 3 2 2 3 3 2 2 3 4 5 6 6 6 6

GFSMW_250_rhum_003.txt.gz
RH
61 95 100 99 79 64 44 33 22 25 29 32 38 33 36 30 31 37 44 51 60 70 82 89 78 70 76 72 57 50 37 34 30 31 37 44 47 49 49 52 49 50 59
68 93 96 90 70 65 36 26 20 26 30 32 39 52 55 56 56 60 69 80 88 86 85 83 77 67 51 40 39 39 46 48 42 36 39 42 54 56 61 65 71 83 90
62 100 99 97 71 59 46 35 21 19 23 32 42 53 62 73 76 82 88 93 86 79 70 49 45 52 58 59 56 51 45 47 52 46 43 46 54 57 80 93 92 91 88
46 90 100 96 87 61 44 36 26 23 22 27 45 61 65 69 74 83 78 75 76 59 47 55 61 60 57 50 46 46 49 52 54 61 70 62 52 47 46 62 67 65 72
33 70 100 100 92 71 46 37 30 23 24 26 27 33 37 44 52 59 64 64 52 54 62 57 49 46 44 46 51 61 71 84 90 88 82 79 84 80 61 52 59 61 63
24 30 78 100 89 94 55 38 33 30 30 29 26 29 31 36 40 46 50 50 60 63 61 62 62 68 80 92 94 89 80 70 63 56 55 60 60 54 49 41 40 40 50
21 27 31 74 92 100 73 48 40 38 35 31 38 41 44 50 56 63 69 70 70 72 73 76 84 79 75 74 74 69 60 61 67 69 71 61 51 43 37 31 27 25 26
26 24 19 37 71 100 100 69 50 44 43 46 49 54 60 66 72 77 82 88 85 80 89 94 92 93 93 83 70 62 61 62 62 53 44 40 35 35 33 28 27 24 23
24 22 21 24 29 66 94 100 80 58 55 57 63 75 86 90 92 91 90 89 95 98 95 90 93 92 76 55 55 54 53 46 39 35 34 34 35 34 30 27 23 16 15
22 19 20 23 28 33 67 75 93 95 86 82 87 90 92 93 95 91 92 94 98 93 92 87 69 56 54 51 48 44 38 38 41 39 36 33 30 28 24 19 17 14 11
23 20 24 26 28 30 38 71 87 80 86 93 98 99 96 96 95 86 83 86 86 72 61 60 55 57 49 43 38 37 35 39 41 43 40 35 26 20 17 15 14 12 7
24 21 28 29 28 32 36 41 66 80 87 100 100 100 100 92 81 78 73 68 60 61 61 61 57 47 40 36 32 41 43 42 41 39 31 23 19 16 13 10 6 5 5
21 22 28 30 30 30 32 33 66 87 92 94 100 99 86 84 78 69 63 69 78 67 66 55 45 41 33 34 38 40 44 46 43 24 20 15 12 9 6 4 4 3 2
23 23 28 32 31 30 35 37 68 80 98 100 95 84 84 78 72 68 76 72 70 57 49 43 37 31 37 39 43 47 48 40 25 17 12 9 6 4 4 3 2 2 2
26 26 30 32 37 38 35 35 66 90 100 100 91 91 84 82 91 71 66 62 54 49 43 33 31 36 41 46 51 55 46 23 15 10 7 5 4 4 2 2 2 2 2
27 27 32 43 39 41 42 63 100 100 98 89 94 99 96 81 60 59 54 52 50 42 29 35 44 50 57 53 56 39 23 16 10 6 5 5 4 3 3 2 2 2 2
29 33 41 44 46 45 77 100 100 98 92 100 98 85 61 51 53 53 53 44 34 34 43 46 49 56 56 55 34 23 15 9 6 5 4 4 3 3 3 2 2 2 2
40 44 48 52 60 91 100 100 95 98 100 82 58 49 49 52 50 45 40 38 41 48 47 49 53 57 56 37 21 14 10 6 5 4 3 2 3 3 2 2 2 2 2
52 50 53 72 98 100 100 100 96 89 66 54 46 51 54 46 44 51 47 51 48 48 47 54 54 52 38 21 13 9 6 5 5 4 2 2 3 2 2 2 2 2 2
54 76 94 95 92 88 99 91 83 56 48 51 56 48 41 50 54 52 52 51 45 46 59 63 50 36 20 13 10 7 5 5 4 3 3 3 3 3 2 2 2 2 2
97 88 78 88 90 95 92 63 47 53 57 50 42 48 55 52 49 49 47 49 54 62 60 55 40 22 12 10 7 6 5 4 3 3 3 3 3 3 2 2 2 2 1
80 87 92 94 91 76 52 56 61 51 40 45 54 54 52 54 46 50 50 56 62 61 51 30 19 12 10 6 6 6 5 4 3 3 3 4 3 2 2 3 2 2 2
100 93 85 78 66 61 68 57 36 42 50 61 61 64 52 49 54 53 60 64 64 49 20 14 11 10 7 6 7 6 5 4 4 3 3 2 2 3 3 2 2 3 4
89 83 69 68 71 60 40 39 47 60 70 69 63 50 54 56 57 60 65 69 45 16 12 11 9 6 6 7 6 5 5 4 4 3 2 2 3 4 4 2 3 4 6
75 72 72 60 42 45 50 56 62 70 67 59 55 58 58 56 60 73 76 52 23 12 10 8 6 6 6 7 5 5 4 4 4 2 3 4 4 4 3 3 5 6 7
81 70 54 56 57 59 63 64 64 60 55 57 63 56 54 62 71 72 63 24 12 11 8 6 6 6 6 4 5 4 4 3 3 4 4 4 4 4 3 4 6 8 7

GFSMW_250_rhum_006.txt.gz
RH
20 31 39 63 99 100 99 76 55 35 29 24 19 21 36 40 40 38 35 31 34 38 44 51 56 68 95 93 74 63 58 43 38 44 48 49 51 55 50 54 49 48 51
22 28 46 94 99 93 90 66 50 39 31 30 25 22 25 35 46 56 60 62 65 71 84 92 97 93 81 76 66 45 49 49 45 42 44 55 84 72 60 62 62 58 58
21 29 35 61 91 100 97 71 63 52 37 27 26 30 31 37 39 46 65 77 82 83 86 85 77 74 70 56 46 54 54 58 67 59 41 38 41 44 59 70 63 58 58
20 19 25 34 72 99 90 83 75 55 45 34 33 30 27 25 29 38 42 51 59 62 64 64 69 68 56 55 65 63 59 56 48 52 60 57 45 38 40 45 51 63 73
20 18 17 21 27 63 78 87 85 84 59 42 36 32 31 31 30 29 32 35 37 40 46 53 58 58 65 67 60 57 55 56 64 65 67 70 73 66 45 40 39 50 51
21 19 15 16 20 28 59 83 96 100 90 68 48 39 38 37 36 38 41 43 46 50 56 59 61 64 63 66 73 77 78 76 72 67 62 59 54 57 61 52 40 34 35
24 22 20 18 17 20 28 57 77 98 87 92 94 75 56 48 48 49 52 52 57 62 63 65 71 80 89 87 85 81 78 74 73 71 68 68 59 44 40 36 34 36 42
26 22 21 22 22 19 20 25 28 35 52 69 94 100 98 86 67 60 60 61 60 64 75 88 98 95 88 79 70 70 76 73 69 62 51 47 42 39 36 34 32 28 26
26 24 24 24 24 23 19 22 25 25 27 30 34 42 71 91 96 100 97 96 93 100 100 100 94 80 68 67 67 59 60 60 52 48 44 41 38 36 32 30 26 21 14
28 27 25 24 22 23 25 27 26 24 25 25 27 29 40 57 65 79 90 98 100 100 98 84 76 77 68 57 55 57 53 49 49 46 40 36 35 31 34 36 34 25 19
34 31 29 25 26 26 26 25 27 28 29 30 32 33 33 32 47 71 88 96 94 90 77 70 70 64 61 59 52 51 51 48 42 37 38 36 33 34 38 30 28 24 18
36 37 35 31 29 27 25 24 24 25 28 30 30 32 32 34 41 70 79 87 92 79 82 64 66 66 58 52 50 49 40 41 40 40 39 34 36 36 32 28 20 11 6
33 33 34 31 27 25 23 22 23 22 23 27 31 36 40 49 58 89 92 97 85 76 69 73 61 50 48 52 41 38 43 44 43 41 40 37 38 38 24 14 9 5 4
30 31 35 34 27 23 22 23 24 22 22 27 40 40 50 64 78 95 100 82 80 79 67 52 45 53 45 33 44 44 45 43 44 47 49 42 29 17 11 7 4 4 4
30 31 34 32 26 23 24 24 23 22 30 42 41 50 77 98 100 98 80 82 74 55 49 52 49 34 41 45 46 48 46 52 53 47 34 18 11 8 5 4 5 4 2
30 31 31 29 24 25 26 24 24 29 37 45 72 91 100 100 98 94 77 65 53 50 49 36 37 46 48 50 49 52 56 54 41 22 14 9 6 4 4 5 4 3 2
29 29 28 24 25 28 26 26 38 44 51 74 86 100 100 96 80 74 60 52 47 38 38 42 44 50 53 53 57 60 53 35 18 12 8 6 4 4 5 4 4 3 2
27 26 24 26 26 26 36 48 52 67 86 100 100 96 81 72 62 49 48 38 42 42 43 48 57 57 55 60 59 54 33 19 12 8 6 4 4 4 4 4 4 3 2
24 23 26 30 38 55 66 72 82 97 88 81 90 77 55 49 51 37 39 41 44 49 50 60 58 63 61 59 51 28 17 11 9 7 4 4 4 3 3 4 4 3 2
27 33 46 62 74 72 81 80 95 98 96 78 55 51 54 48 34 39 44 50 49 53 61 62 61 59 58 44 22 15 11 9 6 5 4 4 3 3 4 4 3 2 3
55 69 78 79 92 83 80 91 99 83 58 55 60 59 47 37 40 50 50 50 56 65 58 56 62 57 39 22 14 10 8 6 5 5 5 4 4 4 4 3 2 4 4
92 92 94 87 78 86 89 91 75 64 66 65 58 42 40 45 48 50 54 61 54 54 61 63 56 38 19 12 10 8 6 5 5 5 4 4 4 3 3 3 4 4 4
72 70 68 83 81 89 87 71 68 70 68 52 45 43 42 47 54 60 58 52 62 66 58 45 28 17 11 10 8 7 6 6 5 5 4 4 3 3 3 3 4 4 4
54 78 89 74 72 69 64 67 72 62 51 44 42 47 56 64 62 53 58 63 61 54 38 22 14 10 9 8 7 6 7 6 6 5 5 4 3 3 3 3 4 4 4
79 76 69 64 68 75 76 60 54 51 46 48 54 63 67 57 56 62 63 61 53 32 16 11 8 8 8 6 6 6 6 5 6 5 4 3 3 2 3 4 4 4 6
54 52 72 79 72 64 57 55 53 50 54 61 67 62 55 56 62 62 59 49 31 14 9 8 7 7 6 5 6 6 5 5 5 4 4 3 2 3 4 5 4 6 8

GFSMW_250_rhum_009.txt.gz
RH
19 17 16 18 27 39 48 100 96 91 100 73 41 31 30 25 29 38 40 43 43 43 38 36 35 39 44 48 62 76 89 96 83 78 72 57 49 61 56 58 65 64 66
18 16 16 19 27 48 82 100 98 93 83 63 54 47 35 27 28 30 31 39 50 56 58 63 66 70 75 84 96 97 94 88 74 61 49 50 71 64 61 62 61 62 64
18 17 18 21 25 32 69 76 100 96 85 81 73 62 49 36 33 33 31 30 34 48 65 72 77 81 77 68 62 64 62 68 66 56 54 51 54 58 72 90 96 86 71
20 21 19 19 19 21 28 60 81 85 92 78 80 75 61 44 38 37 34 35 32 32 34 37 41 41 42 45 46 49 57 63 72 76 71 62 55 51 52 58 62 68 71
22 22 21 21 19 18 18 21 28 36 62 78 76 79 75 68 72 66 59 46 43 42 42 42 42 42 45 49 56 64 64 59 58 61 65 64 62 64 59 51 47 50 54
24 23 23 22 20 19 17 16 17 19 24 36 50 56 69 67 68 76 70 66 78 78 75 72 71 72 69 68 66 67 68 67 78 81 78 71 64 59 53 52 60 53 49
26 26 26 25 24 23 23 20 19 18 17 18 20 21 23 23 22 23 27 30 32 35 44 54 74 93 98 93 91 98 100 90 77 64 68 76 67 65 60 47 45 44 45
30 31 30 29 28 26 28 27 26 24 22 21 19 17 18 20 21 21 22 26 29 31 32 32 35 44 56 78 84 88 84 76 70 67 71 65 58 50 46 45 39 37 39
32 33 31 30 30 30 30 31 30 26 24 22 22 20 19 19 20 22 25 27 30 29 31 33 35 46 68 69 74 83 86 79 76 68 62 48 50 48 44 45 47 41 30
39 39 37 38 38 36 37 34 32 29 27 25 22 20 20 20 21 20 22 22 27 31 34 37 50 66 89 92 91 82 73 74 64 54 50 50 44 47 51 46 40 34 28
41 41 39 39 39 38 36 35 35 33 30 26 23 21 21 22 21 22 22 26 33 37 42 53 70 92 92 85 75 72 69 56 50 46 43 48 52 50 43 38 35 31 26
41 40 39 33 30 33 33 32 31 32 32 30 25 22 22 22 23 23 28 36 40 45 61 87 100 99 82 78 79 63 54 46 42 49 52 53 48 40 40 36 27 20 15
37 36 31 31 31 31 31 30 28 28 31 31 27 24 21 22 25 27 36 38 48 69 98 98 78 82 82 61 53 47 41 46 51 52 48 43 38 34 28 23 17 13 10
38 34 31 29 32 32 29 30 28 28 29 28 25 22 22 26 29 37 45 56 70 92 90 83 88 69 52 51 42 42 49 51 48 46 39 36 33 28 23 15 11 8 6
37 33 31 33 32 31 30 28 27 26 27 26 22 23 26 31 38 48 56 78 90 92 87 70 54 50 46 37 44 48 46 44 43 39 40 31 26 20 12 8 6 5 5
28 29 32 34 32 30 26 24 26 26 26 24 24 27 42 45 56 66 88 86 70 73 68 51 52 36 37 43 44 43 49 47 44 36 30 24 16 10 7 6 5 5 4
29 33 36 35 32 28 24 24 25 25 24 25 34 43 46 72 83 94 90 79 77 51 50 43 33 37 42 46 46 45 47 42 37 29 20 12 8 6 5 5 6 6 3
38 38 37 33 29 26 24 25 26 26 30 35 41 64 78 78 94 90 80 56 48 48 35 34 38 46 50 48 49 48 38 36 27 20 10 7 5 4 5 5 5 5 4
39 36 33 29 25 26 28 27 30 36 47 52 67 80 86 87 92 56 48 51 44 33 33 39 46 53 48 50 49 38 33 28 17 10 7 6 5 5 5 4 4 4 4
34 30 27 28 31 30 32 38 52 60 70 75 84 87 81 66 60 58 52 39 38 36 38 50 52 51 58 49 37 32 24 12 8 7 6 5 5 5 4 4 3 3 3
26 29 31 31 37 44 50 68 77 77 79 86 80 61 56 60 58 48 46 44 39 42 50 44 53 53 44 38 34 23 12 8 7 6 5 5 5 4 4 3 3 3 3
30 37 45 51 64 67 69 60 65 77 84 72 60 59 63 53 47 48 44 44 46 46 46 53 51 44 38 31 18 10 8 7 6 5 5 5 4 4 4 3 3 3 3
51 49 59 64 71 72 73 79 89 82 63 58 66 59 52 51 48 49 50 46 43 49 52 47 42 38 24 13 9 7 6 6 5 5 5 4 4 4 4 4 3 3 4
69 65 62 72 70 70 66 60 57 51 57 62 51 50 51 54 57 52 46 46 49 49 45 41 36 21 11 8 7 6 6 6 6 5 5 4 4 4 4 3 3 4 5
85 83 82 65 61 55 50 49 52 61 55 47 50 55 63 62 56 55 55 50 43 45 43 32 16 8 8 7 6 6 6 5 5 5 5 4 4 4 3 3 4 6 5
72 60 61 54 44 46 54 55 53 50 51 56 65 69 65 64 63 57 51 43 41 35 24 12 8 7 6 6 6 6 5 5 5 5 4 5 4 3 3 4 6 6 7

GFSMW_250_rhum_012.txt.gz
RH
56 38 28 22 20 19 17 21 23 29 72 86 85 87 99 81 52 47 42 30 30 29 30 32 35 40 52 56 56 53 53 54 57 62 71 79 95 99 100 100 90 89 66
37 28 24 22 19 18 17 19 22 47 97 87 74 98 93 73 74 69 61 46 36 36 36 37 35 33 36 41 50 60 74 79 80 89 88 93 96 76 70 68 64 62 73
31 25 23 21 21 19 19 21 22 40 70 78 88 77 80 75 75 78 83 68 55 54 48 47 47 44 42 39 38 39 40 43 42 42 43 46 48 50 62 70 71 71 75
27 24 26 23 24 21 19 18 18 21 25 31 32 35 50 61 72 74 70 69 64 58 63 66 64 68 74 74 70 69 68 75 76 74 76 75 70 67 67 79 84 92 93
26 25 30 26 24 21 20 19 17 18 18 18 18 18 20 22 23 24 23 24 23 22 23 25 24 26 24 26 28 30 29 29 31 41 64 85 83 74 64 75 78 72 63
27 32 31 28 27 24 20 20 20 20 21 23 23 22 20 18 18 17 16 16 17 16 16 18 18 18 20 19 21 20 23 26 27 28 33 44 41 45 58 60 60 70 72
33 33 32 33 31 26 24 24 24 22 25 28 28 27 26 23 20 19 16 15 16 16 15 17 16 16 16 16 18 21 23 25 30 39 53 63 73 71 74 70 63 60 61
31 33 34 37 34 30 28 26 28 31 30 33 35 32 28 26 24 22 21 20 17 16 17 18 18 17 16 16 21 22 26 34 52 66 71 80 88 79 72 66 48 43 41
44 47 46 40 36 34 30 30 36 39 38 37 33 29 27 28 29 28 26 24 21 19 19 19 19 18 19 23 25 30 40 78 96 92 89 81 78 71 56 48 37 28 27
54 50 44 41 40 40 42 42 40 34 34 34 31 28 25 26 26 25 24 25 24 22 21 20 20 21 27 28 40 65 89 98 92 73 76 80 60 49 42 34 34 35 30
45 40 40 39 38 44 46 41 35 34 32 32 29 28 28 27 25 24 25 25 25 22 22 22 22 28 35 50 80 87 87 84 80 76 57 53 46 36 34 35 33 31 28
39 38 38 40 42 40 39 38 36 31 30 29 29 29 26 23 23 25 26 25 24 23 23 24 30 38 58 75 85 89 74 69 62 57 53 39 31 32 31 29 27 24 24
37 36 38 41 39 41 40 36 35 31 30 30 32 29 26 24 23 24 24 23 23 24 28 35 47 59 69 88 90 71 58 55 53 43 31 31 32 29 24 23 22 17 13
36 37 39 41 42 40 36 36 33 31 32 34 33 31 28 24 23 26 24 23 24 28 34 48 58 71 82 80 64 50 52 50 35 29 30 30 26 22 22 18 13 8 7
36 39 41 44 44 41 38 32 29 32 35 36 35 32 28 24 25 24 24 24 29 38 48 69 71 72 70 52 53 53 44 36 33 33 28 24 23 20 17 10 7 5 5
44 49 49 46 41 38 33 29 34 36 38 36 35 31 26 25 24 24 30 36 41 53 63 68 64 56 54 54 46 37 35 36 30 26 26 24 22 15 8 6 5 5 4
40 38 36 36 36 31 27 33 37 38 38 37 32 26 26 27 28 34 36 44 56 67 68 57 53 53 48 40 36 39 34 30 28 25 24 20 11 7 6 6 5 5 4
38 37 35 31 27 29 34 39 40 40 37 30 26 29 30 36 38 43 51 65 66 58 51 56 52 42 39 41 40 36 33 29 29 26 14 9 6 6 5 5 5 5 4
31 28 26 28 35 42 42 42 40 32 26 29 33 35 40 43 46 62 62 55 57 59 56 42 40 41 42 35 31 29 32 30 22 12 8 7 6 5 5 4 4 4 4
37 40 44 45 44 42 38 31 27 32 35 35 42 49 56 61 60 52 58 54 62 47 41 42 41 40 34 30 33 32 27 16 10 8 7 6 5 5 4 4 4 4 3
46 46 44 39 34 29 28 34 37 40 49 50 55 60 54 52 54 52 53 55 42 43 46 47 41 32 30 34 35 27 14 9 7 7 6 5 5 4 4 4 4 3 3
29 27 27 27 29 32 41 43 48 57 58 56 54 53 48 45 47 51 46 43 45 52 51 40 34 32 35 35 26 13 8 7 6 5 5 4 4 4 4 4 4 3 3
26 28 30 31 42 46 53 49 56 61 55 56 53 47 49 55 50 42 44 54 55 51 41 35 33 34 31 22 12 8 7 6 5 4 4 4 4 4 4 3 3 3 3
30 42 55 58 57 56 70 72 64 57 51 49 52 60 56 41 43 55 57 54 52 40 36 37 35 29 22 12 8 6 6 5 5 5 4 4 4 4 4 3 3 3 3
68 72 65 74 83 76 68 61 58 46 48 66 62 45 43 54 62 63 60 52 44 40 35 32 26 16 10 8 6 5 4 4 5 4 4 4 4 3 3 3 3 3 4
71 85 83 75 69 64 59 52 49 67 69 50 44 54 59 65 69 63 63 54 45 38 32 23 13 9 7 6 5 5 5 4 4 4 4 4 3 3 3 3 4 4 6

GFSMW_250_rhum_015.txt.gz
RH
33 51 81 96 81 72 51 36 29 19 17 21 24 27 92 98 95 92 97 93 75 75 74 63 53 46 40 39 40 40 39 35 36 40 46 52 57 64 64 71 77 80 78
32 84 91 72 62 43 31 22 20 18 18 22 26 40 92 93 81 87 73 68 72 70 64 65 67 59 54 55 54 53 53 52 50 48 50 53 55 53 54 55 56 60 64
51 93 75 57 41 28 24 21 20 23 26 24 22 29 39 41 36 36 42 48 49 47 41 35 32 28 22 26 28 28 30 34 34 34 40 53 64 69 83 88 85 76 78
71 71 56 46 30 26 24 25 25 21 19 18 18 19 20 20 19 20 20 19 19 18 17 16 16 16 15 15 15 15 16 17 17 17 16 17 18 20 24 36 49 63 84
67 60 46 41 29 28 26 27 26 23 22 20 20 21 21 20 21 21 19 20 21 20 20 20 19 19 18 17 16 15 14 14 15 15 15 14 14 13 11 14 19 24 34
66 56 45 36 29 29 30 30 25 24 24 22 22 23 22 22 24 25 26 26 26 24 23 22 21 20 19 18 16 14 14 14 14 13 14 14 16 20 20 20 24 31 39
63 54 43 34 29 32 33 32 29 26 28 26 24 27 29 33 32 29 27 26 25 24 22 21 20 19 17 16 15 14 14 14 14 14 15 16 19 20 26 34 47 57 72
60 49 42 35 36 35 31 32 35 30 28 28 30 34 34 31 30 28 26 25 24 21 19 17 16 15 14 14 14 14 14 16 15 16 18 20 28 42 54 48 32 33 36
56 47 43 39 41 33 30 33 32 33 36 37 38 40 32 29 28 28 26 25 23 22 19 18 17 14 14 15 15 15 17 20 26 28 31 40 53 68 69 54 40 30 29
52 47 43 42 37 35 45 41 39 42 39 43 39 33 32 29 27 26 26 26 26 24 23 19 17 17 17 16 17 20 24 30 31 40 54 70 71 64 48 38 34 31 23
52 47 47 41 44 46 49 44 46 42 42 42 36 34 33 31 25 26 28 27 29 28 25 21 19 20 19 20 23 28 33 35 52 73 68 63 50 49 45 40 34 27 21
50 46 46 50 51 53 52 46 46 44 43 40 39 38 35 27 25 26 28 32 33 30 25 22 24 24 25 29 33 37 44 55 66 62 52 54 52 44 34 30 29 26 24
49 44 42 50 50 49 52 51 44 40 45 40 42 37 30 26 26 28 34 36 33 29 23 25 27 28 33 34 40 44 55 62 52 53 50 43 36 35 36 31 28 24 19
48 46 47 51 49 50 49 45 42 42 44 44 40 36 31 27 30 36 36 35 28 26 28 29 30 33 33 37 46 48 48 55 52 40 37 38 38 32 29 24 17 14 12
47 43 42 48 48 50 50 47 43 43 42 43 38 35 30 30 36 37 34 28 26 27 28 32 36 39 43 43 46 47 50 41 39 39 39 33 29 24 19 14 12 7 5
46 43 43 45 49 48 44 42 42 45 46 38 37 30 29 37 39 35 26 25 28 34 37 41 48 48 45 44 44 40 36 39 37 34 29 26 24 19 14 8 6 5 4
46 44 42 43 42 39 39 42 43 41 37 34 29 35 41 40 32 24 27 31 39 40 48 51 45 44 41 44 38 39 40 35 30 26 25 23 16 10 6 6 5 4 4
39 36 37 39 40 42 41 40 38 34 30 34 41 42 37 26 24 31 39 47 47 54 46 44 43 45 42 38 40 35 30 28 26 24 21 14 8 6 5 4 5 4 4
37 36 36 36 37 38 37 33 31 38 41 43 39 27 24 28 36 45 47 54 56 46 46 48 50 41 39 38 32 30 26 26 24 19 12 6 6 5 4 4 4 4 3
37 34 35 34 34 33 32 35 44 44 38 27 24 26 34 44 44 58 59 48 46 46 52 55 37 38 36 35 31 24 21 22 19 10 6 6 5 4 4 4 3 4 3
44 40 38 38 37 36 41 43 36 26 24 26 33 44 46 64 69 51 49 46 51 63 44 38 40 37 37 31 24 23 23 15 8 7 6 5 5 5 4 4 3 3 3
36 37 37 39 41 40 33 25 24 26 32 43 51 61 75 62 50 47 50 62 59 41 40 42 46 42 33 28 27 25 16 8 6 6 5 4 4 4 4 4 3 3 2
50 47 43 35 27 24 24 26 34 41 54 57 71 72 57 48 47 59 66 50 42 42 46 47 39 37 33 29 24 16 9 7 6 5 5 4 4 4 3 3 3 2 2
30 26 25 25 25 27 36 44 57 60 63 69 59 53 43 50 67 62 46 46 46 50 43 39 41 33 28 20 14 9 8 6 6 5 5 4 4 4 4 3 2 3 3
26 27 28 35 42 49 55 60 61 63 60 58 47 46 68 71 52 51 53 53 50 44 42 36 30 23 18 12 8 7 6 5 6 5 4 4 4 3 3 3 3 4 5
41 40 44 57 59 58 66 68 64 56 48 44 66 76 59 51 57 57 56 51 50 49 40 32 20 16 11 8 8 7 5 6 5 4 4 4 3 3 4 4 4 5 7

GFSMW_250_rhum_018.txt.gz
RH
26 30 64 69 70 91 89 92 100 100 100 95 74 49 20 19 21 21 48 85 91 83 81 66 59 55 54 48 47 46 41 32 28 33 40 40 35 44 48 54 53 48 48
26 31 32 45 54 55 45 57 76 71 62 38 25 19 19 21 21 29 50 48 37 32 35 37 35 30 23 18 17 17 16 15 16 16 16 16 16 16 16 18 20 20 22
26 32 34 35 45 47 71 77 64 45 27 22 20 22 26 25 24 27 25 23 20 19 20 20 21 20 20 20 19 20 22 21 19 19 17 15 16 17 18 18 18 17 18
27 31 32 37 60 73 79 57 40 28 23 24 27 28 23 21 22 21 20 21 22 20 22 23 24 22 21 19 18 18 18 18 16 15 15 15 15 16 20 26 26 25 24
27 26 37 48 80 78 67 44 31 28 28 27 26 24 21 22 24 22 22 23 23 23 25 25 24 22 20 18 16 16 15 15 14 14 14 14 13 12 10 12 18 22 25
30 30 46 64 81 68 56 40 32 29 29 28 26 25 25 27 25 24 26 28 28 27 26 25 23 21 19 17 16 15 14 14 13 13 13 12 12 12 13 14 14 14 21
34 31 55 63 75 62 49 39 34 32 32 30 30 30 32 29 28 31 32 32 28 26 24 23 23 22 21 21 18 16 14 14 13 12 12 12 12 13 14 16 18 21 29
34 26 62 74 68 60 50 39 37 35 31 35 37 35 32 32 34 35 36 32 29 26 26 24 22 22 21 20 18 15 15 15 14 14 15 15 17 20 20 19 18 22 38
30 30 65 76 65 60 51 40 38 37 34 38 37 35 35 37 36 36 34 31 29 30 26 22 22 21 22 20 18 16 16 17 17 18 19 23 26 28 32 34 34 30 32
28 41 75 74 66 58 49 42 42 42 36 35 37 38 40 38 36 34 33 31 28 29 25 22 21 23 24 22 19 19 19 20 20 24 28 28 32 39 40 40 40 34 25
30 41 61 70 63 55 48 46 47 44 36 42 46 44 42 36 36 35 35 33 33 34 26 23 24 28 26 22 21 22 23 26 29 29 35 39 39 39 39 34 29 30 31
39 46 65 71 60 52 48 49 49 43 45 53 51 45 42 40 38 38 37 37 40 30 25 25 31 29 26 22 23 26 29 31 36 35 37 38 37 32 30 31 35 35 32
49 53 67 70 57 51 51 53 51 48 56 53 50 49 43 40 39 37 40 42 34 29 26 32 33 28 23 25 29 32 36 36 37 35 37 32 30 33 36 34 31 27 22
55 56 64 66 56 52 52 54 54 55 56 54 50 45 42 40 41 44 43 36 31 28 36 35 26 23 26 30 36 37 37 36 38 41 34 32 33 33 31 28 23 17 12
68 66 68 64 60 53 52 54 52 55 54 50 47 44 42 44 44 42 36 32 29 36 33 24 23 26 32 38 40 36 34 44 40 35 34 36 32 28 24 18 13 9 6
72 70 71 69 59 52 52 52 51 49 48 47 46 46 46 43 40 37 31 32 38 30 22 22 29 35 45 39 34 38 47 39 34 36 36 30 26 24 18 12 6 5 4
76 71 66 65 63 54 51 49 46 43 44 45 46 42 40 39 36 30 33 39 27 23 27 33 44 50 37 34 44 45 37 37 40 33 30 28 22 13 8 6 6 4 3
74 68 67 67 65 62 57 51 46 46 44 41 38 38 38 34 28 32 36 26 23 32 38 51 45 36 36 47 40 38 45 42 34 30 27 18 10 6 5 5 5 4 4
75 68 67 65 60 58 56 52 47 41 38 38 37 34 31 28 36 31 24 25 38 42 52 38 35 42 46 39 43 48 41 34 31 30 16 7 6 5 6 5 5 4 3
70 68 67 63 54 47 45 46 44 40 36 34 32 31 37 36 26 24 35 41 50 48 42 37 51 45 43 47 45 38 34 33 27 16 10 7 6 6 5 5 4 4 3
69 67 68 69 67 59 50 43 37 35 33 34 41 39 30 24 27 39 50 48 43 39 50 56 45 45 49 46 38 37 32 20 14 10 8 7 6 5 5 4 4 4 3
61 60 58 56 53 47 41 38 37 41 44 39 32 24 24 35 46 51 45 41 42 60 53 48 55 56 50 40 38 34 20 13 10 9 7 6 5 5 4 4 4 3 3
63 57 50 48 46 43 47 50 47 38 30 24 24 32 42 52 48 44 42 59 62 51 51 57 58 52 48 43 35 19 15 12 10 8 5 6 6 5 4 4 3 3 4
45 47 50 52 51 46 39 31 26 24 24 32 38 49 52 46 43 47 67 59 54 57 56 54 53 50 46 30 18 17 13 10 7 6 6 6 5 5 4 3 4 4 5
48 44 39 33 28 25 24 25 26 34 40 48 49 43 42 44 65 62 54 58 61 56 54 51 50 40 22 18 16 12 9 7 6 6 6 5 5 4 4 4 5 6 6
27 26 25 24 25 27 37 47 48 49 45 41 38 39 58 66 62 61 64 61 56 56 49 51 35 20 19 16 12 9 6 6 6 6 5 5 4 4 4 6 6 7 9

GFSMW_250_rhum_021.txt.gz
RH
19 19 22 29 32 32 33 71 100 93 96 99 100 100 97 100 100 100 92 54 20 21 20 34 35 23 23 24 22 23 24 24 24 24 22 20 19 19 19 20 20 18 17
22 21 21 30 30 31 36 73 94 100 100 100 100 100 100 96 81 53 30 19 23 27 28 26 24 22 21 22 24 24 22 22 22 20 19 18 17 16 17 16 16 15 16
26 26 24 30 31 30 30 57 72 74 87 93 97 87 64 41 31 22 22 29 30 23 21 23 23 21 22 25 27 25 22 22 20 19 20 20 22 22 22 19 17 15 15
28 30 32 35 34 30 30 32 42 55 79 83 64 46 31 24 22 28 30 26 22 21 23 24 25 26 28 28 25 24 24 21 20 20 19 19 17 14 16 22 23 22 23
31 34 33 32 32 32 30 27 30 67 84 52 41 32 28 26 25 24 24 23 23 25 25 26 26 26 25 25 23 23 23 23 22 20 20 20 16 13 14 13 18 22 25
34 34 33 30 35 35 33 28 34 82 67 47 37 34 31 30 28 27 27 26 28 30 28 29 27 29 26 25 22 22 21 20 20 21 22 19 15 16 14 12 12 14 23
31 33 33 30 35 33 29 28 46 77 59 46 38 34 32 31 30 31 30 33 32 29 31 33 32 28 27 23 23 23 22 20 22 23 20 15 15 14 14 14 14 14 20
32 33 34 30 34 32 32 34 54 71 55 46 40 35 34 31 32 32 33 32 31 32 37 37 33 31 29 26 25 27 24 22 23 22 17 17 16 15 15 15 17 20 27
34 35 35 33 38 36 32 36 61 65 56 46 42 40 37 36 34 34 33 33 35 40 38 34 33 32 30 29 31 32 23 25 25 20 19 18 17 20 24 24 25 25 25
37 37 35 35 44 41 36 48 60 62 57 49 44 42 42 42 38 36 36 42 44 42 36 36 35 34 31 32 35 26 25 28 24 21 19 20 25 29 32 30 34 31 23
40 45 38 39 53 52 46 60 65 60 57 52 48 45 44 46 42 40 46 49 47 42 39 37 36 32 35 37 29 26 30 28 21 20 24 28 30 32 34 36 30 27 24
36 40 41 38 51 65 68 64 65 63 58 54 51 48 49 51 47 47 54 50 46 41 41 36 34 36 38 33 26 30 30 22 21 25 32 33 32 37 34 29 27 28 27
43 53 50 44 58 71 68 65 67 66 60 55 52 51 53 52 50 52 52 50 44 41 38 38 40 38 35 28 29 30 21 23 27 31 31 33 36 31 28 30 31 26 22
45 53 50 46 57 68 70 71 70 66 60 56 54 54 55 55 55 54 54 49 44 41 40 42 37 35 30 30 30 21 24 30 30 30 37 35 30 30 35 31 24 22 15
57 60 50 46 60 71 70 73 73 66 58 55 55 56 57 55 52 53 48 43 41 42 40 35 35 31 33 29 22 29 32 30 35 43 37 36 35 35 29 23 18 12 6
62 59 54 54 56 68 73 75 75 65 57 55 54 53 53 53 51 46 43 42 40 37 36 36 32 36 28 24 34 31 31 39 43 37 44 44 38 30 25 18 10 6 4
60 52 61 72 81 74 71 70 72 67 63 59 55 54 53 51 49 46 45 40 37 38 34 34 34 26 27 33 30 33 46 41 43 49 46 38 29 24 15 9 8 6 5
62 69 80 87 80 73 75 77 74 71 70 68 62 58 58 55 51 46 42 41 37 34 37 31 25 33 31 30 38 48 44 49 54 46 39 29 22 12 8 8 7 5 5
80 84 86 86 87 84 76 70 67 69 69 66 62 58 52 47 48 47 42 35 38 35 27 26 32 35 32 45 45 45 54 57 52 40 33 21 11 9 9 7 6 5 5
86 87 84 81 77 76 76 71 68 65 64 64 60 57 56 54 45 39 39 38 30 25 33 34 34 35 48 42 49 58 53 49 43 37 19 12 10 10 7 5 6 6 4
81 82 82 80 78 79 76 73 69 68 70 69 66 58 48 42 41 40 32 26 31 36 36 33 42 47 45 51 52 50 50 42 34 16 13 11 10 7 6 6 5 4 4
80 78 77 77 74 70 70 69 70 72 68 56 49 46 45 42 33 27 30 37 36 34 36 51 52 56 55 48 51 53 50 35 16 14 11 10 7 6 6 5 5 4 4
82 77 72 70 70 75 75 67 59 55 51 47 49 43 32 28 30 36 36 33 32 44 53 56 64 56 54 55 56 59 33 17 16 12 9 6 6 6 5 5 4 4 4
76 77 75 73 69 60 58 56 59 56 49 38 30 28 31 37 36 34 33 40 56 61 64 59 51 57 58 61 59 27 18 16 12 10 6 6 6 6 5 4 4 5 6
71 74 74 71 70 71 63 48 38 33 29 27 34 40 36 34 35 48 57 63 66 63 52 52 58 57 62 50 23 18 12 10 10 6 6 6 5 5 4 5 5 6 7
73 73 65 54 43 36 31 29 29 33 40 45 40 34 35 48 59 60 69 63 58 50 53 52 54 58 40 20 16 13 10 9 6 6 6 6 5 4 5 6 7 8 9

GFSMW_250_rhum_024.txt.gz
RH
25 24 25 29 26 25 25 29 32 26 24 28 39 60 99 99 100 100 100 100 97 78 86 92 50 22 25 25 23 22 24 24 23 26 26 27 27 26 26 25 25 24 23
24 26 25 29 30 31 27 28 32 31 27 25 28 81 95 97 100 100 100 100 95 94 72 38 23 25 23 23 24 24 25 28 27 29 29 28 25 24 24 24 22 21 22
28 28 29 28 32 32 33 29 31 34 30 25 30 99 100 100 100 100 100 99 73 44 26 25 27 25 23 25 27 29 30 30 28 26 25 25 26 25 29 25 23 23 24
40 35 34 32 32 30 29 35 34 33 33 28 39 80 100 100 100 86 74 52 40 27 30 28 21 23 26 27 28 31 30 29 28 26 24 25 24 24 26 27 26 29 31
82 45 39 34 30 32 32 30 38 34 32 28 46 62 92 97 74 56 43 28 28 26 25 24 26 26 28 30 31 33 36 34 32 28 28 27 26 22 19 20 24 29 23
86 80 43 35 31 35 38 33 32 36 33 29 31 45 72 78 56 40 32 30 29 27 28 29 30 31 31 31 33 36 37 35 32 31 29 28 27 26 23 23 22 20 21
70 66 55 38 35 34 38 35 31 35 32 30 32 43 82 65 46 40 36 33 31 29 30 31 33 33 33 32 32 38 35 32 33 31 29 26 26 26 22 21 20 21 18
84 79 62 48 39 33 37 35 32 33 33 31 36 61 79 60 48 43 38 35 34 32 32 35 36 34 34 33 39 38 36 32 33 31 29 27 29 24 21 23 21 17 22
81 69 58 42 42 37 40 36 37 36 34 33 44 70 75 59 51 44 41 39 40 40 37 37 38 40 44 43 41 39 36 35 34 32 30 28 27 24 27 21 18 19 19
74 70 60 40 41 39 40 42 42 37 35 36 48 64 70 60 53 48 44 44 45 44 44 44 45 43 44 43 39 40 38 37 33 31 29 28 27 30 21 22 26 25 30
68 76 73 54 40 38 42 47 43 39 37 41 48 64 70 60 57 53 50 48 46 46 48 48 48 48 45 46 47 42 38 34 31 29 29 29 30 21 25 28 30 36 29
87 82 74 45 35 36 46 52 48 44 42 47 59 63 68 62 57 54 53 52 50 52 53 53 53 50 47 49 42 37 33 30 31 31 32 29 21 29 27 37 37 28 27
97 90 72 43 37 39 50 51 46 48 48 54 61 66 70 64 61 58 56 55 55 57 57 56 54 50 49 44 39 35 32 34 33 34 26 22 28 29 40 35 33 30 25
88 79 71 44 39 44 51 57 52 48 51 58 70 77 74 71 66 62 59 58 57 56 56 55 53 51 47 42 37 35 35 34 33 24 24 28 32 37 34 38 34 24 18
61 68 63 40 37 43 55 67 57 50 56 73 86 84 77 74 70 64 60 59 57 55 53 53 52 50 45 38 38 36 36 30 23 30 30 35 35 38 43 34 24 19 16
64 65 45 37 45 58 56 63 61 71 83 95 92 90 84 79 71 63 59 57 58 58 59 59 53 44 41 40 37 36 25 25 33 29 37 34 49 45 39 27 22 16 8
61 47 35 42 49 58 58 66 80 92 99 100 100 93 91 85 77 70 70 70 66 64 57 51 49 45 39 39 31 23 32 30 32 36 41 47 43 39 25 22 15 10 6
53 38 40 48 68 68 70 76 87 98 100 99 89 86 85 80 79 73 67 64 63 59 56 50 42 41 37 25 27 34 28 36 38 50 48 46 42 29 18 12 11 8 7
46 45 48 64 74 74 77 80 91 100 95 89 86 86 82 76 70 66 65 65 58 55 48 44 43 28 25 33 29 31 38 49 51 51 49 43 29 16 12 10 8 8 6
53 51 52 74 81 88 88 89 96 96 93 90 93 88 80 74 71 69 61 57 56 47 48 32 25 32 32 33 38 45 50 51 51 50 42 24 14 11 10 8 8 6 6
57 50 67 80 89 88 94 96 96 96 95 93 86 82 79 73 66 63 58 51 51 36 27 30 33 33 41 42 48 49 48 47 52 44 24 14 11 11 8 7 5 6 6
52 55 79 88 91 92 94 99 94 89 86 82 80 72 68 70 61 53 50 36 28 27 36 33 42 42 44 49 49 49 51 52 42 24 14 11 11 8 7 6 6 6 5
49 63 78 88 91 93 90 88 89 86 81 76 74 74 63 56 54 37 30 27 38 36 39 48 45 52 52 53 50 58 60 52 27 17 13 10 8 6 6 7 6 5 4
52 61 74 82 87 87 90 90 86 79 76 71 63 59 57 37 32 30 38 39 37 49 46 47 51 53 53 52 57 62 56 28 18 15 9 7 5 6 7 6 5 4 5
47 60 72 80 83 82 81 79 76 71 63 62 50 37 33 36 40 37 37 49 52 46 51 53 52 50 48 53 63 50 23 14 13 8 6 5 6 6 5 5 5 6 6
46 53 57 58 64 71 73 71 67 58 42 34 33 38 45 37 36 55 59 48 50 53 51 47 44 40 48 58 36 18 14 11 7 5 5 6 6 5 5 4 5 6 10

GFSMW_250_rhum_027.txt.gz
RH
31 25 23 23 30 31 26 23 20 17 20 22 25 27 28 34 39 37 40 85 100 100 100 100 100 100 100 100 100 64 33 25 21 20 20 22 24 27 29 31 29 28 28
38 31 24 24 26 30 30 26 25 22 21 23 24 25 32 53 28 24 25 52 92 100 100 100 100 100 100 92 44 29 27 24 22 25 26 25 26 28 29 32 31 28 27
44 38 30 25 28 28 31 30 26 27 24 25 26 24 30 43 33 27 66 90 99 100 100 100 100 94 56 34 30 26 22 21 25 26 27 31 37 40 44 39 33 31 32
50 42 37 31 34 30 29 34 30 30 29 25 27 26 32 40 35 32 69 100 100 100 100 92 68 46 35 30 28 23 23 26 26 30 32 33 36 40 46 50 44 41 37
55 47 42 37 36 28 29 36 39 33 34 31 27 28 35 44 34 36 70 100 96 97 69 54 37 32 28 26 26 26 28 30 35 35 35 33 35 39 41 39 40 40 37
57 54 51 38 43 40 34 35 41 36 35 36 34 30 41 43 37 42 60 83 81 70 54 37 33 30 29 28 29 32 33 36 41 42 39 42 43 43 38 34 34 34 30
64 57 58 45 49 63 50 40 42 39 35 37 39 31 30 32 34 37 50 68 80 58 45 40 36 34 33 34 34 35 38 42 42 42 43 42 45 42 39 34 27 24 26
63 66 65 54 54 62 61 44 45 43 39 39 40 35 29 31 36 37 51 78 82 58 50 44 40 39 39 41 42 43 46 46 44 45 44 43 40 39 32 26 23 24 26
69 59 65 63 50 52 58 50 51 49 43 43 43 38 34 33 36 38 52 85 81 62 56 50 46 44 46 46 46 48 50 50 50 49 47 39 37 32 28 25 25 25 26
72 88 91 81 59 58 58 50 46 53 48 44 48 40 36 36 39 43 58 85 81 66 58 55 51 50 50 51 52 52 54 55 52 48 44 39 36 32 27 28 27 29 25
56 81 82 90 73 75 77 62 45 49 47 48 46 44 38 39 41 45 62 84 81 69 62 59 57 56 55 56 56 58 57 54 50 46 44 40 34 31 31 29 31 21 20
50 70 91 86 86 91 85 57 46 47 49 47 50 51 44 43 49 54 59 82 82 72 64 60 59 59 59 59 59 57 55 53 51 49 42 36 36 32 32 27 21 23 29
56 67 81 80 76 75 73 60 52 44 45 43 53 57 51 49 51 58 74 80 78 75 68 67 66 65 64 60 60 58 58 57 52 42 43 39 34 34 23 23 27 34 40
49 54 68 78 66 63 70 64 51 42 45 48 66 64 52 51 63 72 70 79 82 77 77 75 72 70 64 61 62 66 60 52 49 46 36 35 27 24 28 30 40 45 39
37 54 71 62 57 62 62 67 49 42 46 53 70 63 62 73 71 67 81 82 86 83 82 84 84 77 71 71 66 59 55 52 45 38 34 25 27 31 41 43 41 36 24
34 59 70 61 56 61 66 64 43 42 47 59 73 79 86 77 76 80 80 88 91 92 94 93 86 78 70 65 58 55 51 45 38 31 27 31 40 44 43 46 41 26 16
49 60 67 50 56 54 62 65 42 46 54 71 83 82 90 86 82 84 91 98 95 94 91 84 75 67 63 59 55 49 43 34 28 30 35 46 43 46 49 44 27 20 15
54 52 50 50 51 59 64 56 43 51 60 78 89 91 90 89 91 95 99 94 93 90 83 75 71 66 61 56 48 39 32 29 32 44 47 43 46 48 37 26 20 16 9
83 73 70 69 69 64 51 42 48 57 74 95 94 91 95 98 100 100 95 94 92 83 78 72 67 60 52 46 36 29 31 35 47 45 43 45 44 37 23 18 14 10 7
86 81 76 77 73 54 45 50 57 67 91 97 91 98 100 100 97 94 100 91 83 78 72 69 55 50 43 33 32 31 42 47 47 46 44 41 32 22 16 12 10 8 5
72 64 61 55 50 50 56 59 80 92 100 95 97 99 100 96 96 95 88 83 77 71 64 55 47 35 32 31 36 45 47 46 44 43 41 33 23 14 10 9 7 5 5
90 65 58 56 58 61 64 86 97 98 97 99 98 92 93 94 91 88 84 75 69 59 51 38 34 32 32 42 45 50 47 44 42 42 34 22 13 11 9 6 5 5 6
81 64 63 64 64 65 80 98 100 97 96 96 96 94 91 90 85 78 73 64 53 42 34 38 31 44 46 50 50 48 47 44 48 38 22 13 11 10 5 5 6 6 4
98 92 73 70 72 78 88 94 97 97 94 92 90 86 82 77 70 64 55 45 34 37 36 33 49 50 51 50 50 52 48 57 43 24 14 12 10 5 5 6 5 4 4
99 97 84 83 72 74 82 84 85 88 87 83 78 72 66 62 55 46 36 36 38 33 41 51 53 53 52 53 52 49 51 36 19 12 10 8 4 5 6 5 4 5 6
100 96 73 59 55 60 68 75 77 75 70 61 61 61 53 43 35 37 38 33 34 54 54 54 54 52 50 47 47 46 31 16 12 10 7 4 6 6 5 4 4 6 7

GFSMW_250_rhum_030.txt.gz
RH
42 44 36 36 33 33 31 26 23 23 23 22 20 17 17 21 39 29 26 33 27 25 27 22 30 55 98 100 100 100 100 100 100 100 94 60 33 25 21 22 24 26 30
41 46 45 36 33 34 36 30 25 22 22 23 22 20 18 20 30 35 33 32 36 27 26 25 42 72 95 100 100 100 100 100 100 85 43 31 28 23 24 26 27 29 31
54 47 46 42 32 31 32 32 27 23 21 22 23 23 22 19 27 30 30 30 36 31 29 40 83 95 94 100 100 100 98 83 58 34 32 27 22 24 28 29 30 30 31
64 57 50 48 45 35 33 31 27 23 20 20 23 25 24 23 30 40 32 32 34 32 35 48 89 100 100 100 97 83 64 37 35 31 26 26 28 32 40 42 41 40 36
53 58 53 47 57 46 42 37 30 27 23 21 23 26 26 27 38 49 33 35 34 35 37 45 71 99 99 91 65 52 36 34 29 30 32 32 34 36 39 46 46 47 48
65 61 49 48 69 54 48 48 38 30 27 25 24 27 31 29 49 68 54 46 39 40 46 47 62 72 78 65 59 41 37 35 35 36 37 40 42 46 48 47 48 50 52
50 60 57 56 62 66 57 48 40 34 30 29 31 31 33 55 82 68 66 59 39 40 44 43 57 66 63 64 55 44 41 39 40 42 45 47 48 48 48 48 49 49 51
40 57 71 73 72 80 78 63 45 35 36 34 38 40 39 44 73 84 78 59 44 45 46 42 45 56 56 71 61 51 48 47 48 51 51 52 52 52 53 52 50 51 51
73 67 70 71 75 65 84 72 56 46 41 46 46 53 48 45 51 55 67 55 49 45 45 42 40 54 68 80 67 57 56 55 56 56 56 57 56 56 56 55 54 50 40
66 66 78 75 69 62 72 72 61 55 51 53 58 70 65 51 52 63 54 47 43 40 44 42 42 54 71 81 75 65 62 61 60 60 60 61 60 58 58 58 55 46 41
29 34 53 75 70 64 69 63 58 61 55 54 57 65 74 63 57 54 57 56 47 42 48 45 41 58 72 87 80 71 66 64 66 68 67 64 62 60 62 57 50 47 40
20 26 47 75 76 62 74 64 62 63 61 66 74 64 65 66 57 57 60 62 55 50 52 44 45 58 74 86 84 77 74 74 72 70 70 72 69 66 57 53 46 38 29
19 22 47 63 71 62 68 64 59 66 68 78 83 73 58 64 60 58 63 68 62 55 51 46 49 62 71 78 78 79 77 71 74 75 75 70 61 57 52 44 37 28 26
19 22 48 55 65 73 72 64 62 72 74 82 93 79 60 55 58 61 64 71 64 59 52 50 55 64 70 77 81 77 71 70 73 71 65 60 55 50 43 34 28 29 38
23 28 50 49 61 75 82 74 79 78 80 82 82 76 63 50 52 58 62 71 66 61 61 60 62 69 78 79 73 67 70 70 69 64 61 58 50 41 34 26 32 48 45
31 41 50 47 63 78 88 85 87 85 75 81 85 85 65 47 50 59 64 72 72 74 71 69 76 81 76 71 63 67 67 69 67 65 59 53 41 31 30 44 49 44 33
42 46 47 55 66 78 77 87 83 76 89 96 92 86 63 47 50 57 64 80 82 83 81 80 79 79 75 66 64 67 73 69 66 61 56 39 31 36 52 46 46 37 28
51 50 58 68 82 98 97 88 89 97 88 99 96 80 51 46 53 58 78 93 95 91 86 80 85 80 68 61 68 72 69 68 67 57 34 32 42 45 46 48 40 32 29
63 67 77 84 90 100 84 80 88 85 89 97 86 56 46 52 57 70 89 100 99 90 90 89 83 67 64 73 74 73 70 71 53 33 34 43 46 54 48 37 33 30 20
86 86 93 99 100 89 97 88 73 82 91 78 57 50 53 56 66 91 100 100 99 97 94 84 68 69 74 77 72 77 68 43 34 38 47 44 51 48 37 31 27 17 8
95 95 90 86 86 85 83 83 80 70 63 58 53 55 61 74 98 100 100 99 96 90 73 66 67 77 82 80 74 58 39 36 42 49 48 53 47 36 30 25 14 8 6
94 100 98 87 81 79 79 78 74 66 60 57 62 74 89 100 100 100 96 89 78 68 65 71 76 73 72 62 46 38 37 50 49 51 52 47 36 31 25 12 8 6 4
100 100 98 92 86 80 75 72 70 69 70 79 94 100 99 100 99 94 83 68 68 75 78 72 67 64 49 39 38 48 56 50 51 54 50 37 31 22 12 9 5 4 5
100 100 100 100 85 78 77 78 78 80 88 96 100 100 100 98 88 74 76 77 75 71 63 64 52 40 40 49 68 57 58 56 58 52 37 31 20 12 10 5 4 6 5
95 89 85 85 94 96 94 92 92 90 93 97 98 95 92 88 81 76 74 69 57 58 53 41 43 61 75 67 65 63 58 55 45 35 28 16 12 10 5 5 7 5 4
99 100 100 100 100 100 100 99 99 97 87 80 79 78 76 72 70 64 53 52 48 41 45 71 79 72 66 61 54 51 48 38 34 22 13 12 9 6 6 6 4 5 5

GFSMW_250_rhum_033.txt.gz
RH
80 68 56 44 39 33 30 31 34 30 24 19 17 18 21 23 22 18 16 16 16 19 20 23 26 22 24 23 24 26 23 60 86 98 100 100 100 100 100 94 80 46 38
89 66 64 66 57 40 33 32 30 29 29 28 23 21 21 24 37 29 33 31 22 26 34 29 28 21 21 26 27 24 43 76 85 87 80 89 100 89 78 50 37 38 32
100 98 83 79 80 62 51 35 38 35 29 29 29 26 24 23 24 27 25 26 39 67 61 42 29 22 22 23 26 29 57 95 97 92 93 90 73 46 36 35 32 29 30
100 100 95 81 69 76 60 38 40 42 38 30 30 29 26 24 23 25 30 29 38 64 73 67 42 27 22 24 27 30 56 86 99 96 70 60 41 36 32 32 34 34 33
95 95 100 94 79 76 68 63 44 44 43 38 33 33 28 26 24 24 29 34 37 55 76 73 51 36 32 29 29 28 30 51 73 83 55 53 41 36 36 36 37 36 40
59 52 65 65 60 63 71 80 64 66 49 47 41 39 34 29 26 23 28 35 38 56 74 71 64 48 42 34 35 32 34 44 63 70 60 56 47 42 41 41 43 47 50
49 54 55 51 64 66 60 70 82 74 60 54 54 49 44 37 29 25 28 40 43 63 72 84 77 59 49 44 46 39 39 40 60 66 70 64 58 52 51 49 49 52 56
53 58 60 62 63 62 67 78 72 70 70 63 65 58 53 42 36 34 49 60 74 60 71 84 83 93 78 56 50 48 40 45 50 59 68 73 70 62 58 57 58 59 62
37 45 47 46 48 47 54 65 70 78 75 70 64 72 56 49 44 48 46 58 74 100 96 80 78 84 85 65 59 57 45 44 44 61 69 78 79 73 65 63 63 63 66
30 33 36 40 40 47 53 62 71 80 86 83 74 78 68 58 64 64 55 56 65 90 100 97 97 86 84 73 62 54 48 46 45 54 63 72 78 74 74 71 68 59 49
24 33 40 49 50 52 59 62 66 79 99 98 70 72 75 62 64 60 66 72 85 85 72 80 84 93 90 63 51 51 51 48 48 48 53 55 61 67 64 62 54 48 47
17 19 33 44 54 56 58 66 75 88 96 100 74 86 73 62 67 65 68 67 74 80 76 64 59 60 64 58 54 52 53 53 52 48 48 51 59 61 58 48 44 46 47
10 14 18 32 43 50 54 57 73 84 90 85 76 85 76 73 69 68 76 87 79 74 74 62 60 61 63 65 61 59 61 61 53 48 47 54 55 56 45 40 43 46 44
8 10 14 22 30 34 36 37 54 70 90 74 77 89 86 75 69 70 83 93 88 70 67 64 57 59 60 66 66 70 71 60 52 50 54 57 52 45 39 40 46 43 48
8 9 12 18 26 30 24 35 59 98 80 65 82 97 95 80 77 77 90 100 99 80 59 56 54 55 60 63 67 74 69 62 54 54 57 48 46 42 42 45 45 50 51
8 11 16 26 32 27 44 78 96 82 65 89 99 100 96 83 88 94 96 98 97 68 54 51 52 56 60 62 69 76 73 62 65 65 51 47 42 46 46 48 53 46 31
14 18 30 34 32 54 91 98 82 83 100 97 100 97 87 92 100 99 93 100 90 68 53 49 52 59 61 66 80 82 71 75 65 53 47 46 47 48 50 53 42 32 33
31 34 36 32 57 96 98 99 100 100 100 100 92 98 81 100 87 100 100 99 77 61 54 53 57 59 64 80 89 89 84 70 62 52 51 50 51 56 46 36 33 42 41
49 43 55 87 98 100 100 100 100 100 100 85 94 100 100 100 100 100 100 92 70 60 55 60 62 66 84 99 96 88 77 66 57 56 53 54 52 42 35 38 48 40 30
64 77 94 100 100 100 100 100 100 99 98 97 93 100 100 100 100 99 74 69 68 66 67 68 76 94 99 95 86 75 62 58 56 59 57 50 39 35 46 52 42 32 29
100 100 100 100 100 100 100 100 100 93 97 100 100 97 92 88 75 79 86 83 78 77 80 95 100 98 90 76 66 63 60 59 60 53 49 38 42 56 49 39 29 31 27
99 100 99 96 90 87 88 87 91 91 97 93 83 76 82 94 98 96 94 92 96 100 100 97 88 78 74 75 68 64 65 56 53 44 42 61 52 46 35 32 31 25 15
100 83 98 100 100 99 95 90 84 78 83 93 99 100 100 100 100 100 100 100 98 90 83 79 80 77 71 68 70 66 52 45 43 63 63 51 44 36 35 29 23 12 8
98 91 96 98 97 94 90 92 98 100 100 100 100 100 100 100 100 100 98 94 90 86 83 82 77 69 64 61 54 47 43 57 69 60 54 44 38 34 28 20 10 8 5
97 100 100 100 100 100 100 100 100 98 98 99 100 100 100 100 100 93 82 78 74 71 67 65 61 59 57 50 52 70 79 71 60 54 47 36 33 26 15 10 7 5 5
100 100 100 100 100 100 100 100 100 100 100 100 100 100 100 100 97 90 83 76 72 67 59 51 49 53 67 90 92 80 67 57 55 42 34 29 20 11 9 6 5 6 6

GFSMW_250_rhum_036.txt.gz
RH
72 70 86 98 100 95 67 57 46 40 32 30 27 25 25 27 26 23 18 18 23 23 24 20 22 20 18 19 20 20 20 20 22 21 24 22 32 66 82 80 81 84 88
65 61 67 87 93 98 88 71 56 51 44 34 32 26 31 35 36 40 35 24 27 27 27 32 27 21 23 22 20 19 18 19 19 21 23 22 36 64 84 92 86 81 65
67 66 63 61 76 93 100 91 73 46 50 49 37 29 37 40 36 30 33 31 28 25 32 52 50 40 38 31 22 20 24 23 21 21 21 24 28 51 70 78 66 57 52
73 73 67 55 63 78 100 100 97 74 62 67 46 43 35 40 44 41 32 32 36 28 26 27 35 36 32 42 37 46 52 48 26 22 24 26 28 30 43 56 56 52 54
73 77 66 52 58 77 99 100 100 100 79 66 50 58 48 62 63 41 36 35 34 32 27 26 29 36 38 41 55 46 56 56 36 28 27 27 26 28 32 45 55 61 59
75 73 58 53 59 74 86 95 100 100 100 86 71 65 64 54 64 44 37 36 34 35 32 28 30 35 39 49 61 58 63 63 49 37 32 34 39 38 36 32 48 63 68
79 72 61 57 48 67 81 91 96 99 100 87 70 69 59 70 64 57 44 43 36 34 35 32 32 38 43 50 70 78 78 81 76 54 39 41 54 58 45 37 39 54 68
46 34 47 52 45 48 61 64 71 80 87 78 74 66 68 90 76 67 55 51 42 39 41 49 48 60 60 63 64 71 71 76 90 89 76 67 68 69 61 43 39 39 46
14 26 34 40 42 48 53 59 61 65 66 59 56 55 67 92 88 82 70 66 56 53 51 44 48 72 85 86 88 80 82 81 88 88 87 81 68 73 60 47 45 40 38
15 14 16 28 38 39 50 56 54 57 57 61 60 61 71 76 99 98 85 81 63 66 54 50 50 51 76 98 100 100 100 100 93 92 90 88 80 75 57 51 49 44 36
12 13 17 17 26 36 40 42 50 52 59 56 53 61 66 78 95 100 96 82 70 73 64 54 62 74 80 88 95 96 100 100 99 97 95 92 92 67 52 49 48 46 41
6 8 11 12 17 28 36 40 39 41 42 45 48 54 62 78 100 99 98 91 83 86 73 68 78 78 74 87 92 93 90 79 85 91 82 79 65 55 55 51 52 49 42
5 5 4 8 12 18 32 39 45 40 44 50 54 66 64 77 96 99 99 100 99 97 85 76 67 88 92 83 74 74 77 72 60 56 56 57 58 55 51 51 50 48 38
6 5 4 4 7 12 20 30 46 60 62 59 64 67 79 96 100 100 94 95 100 99 93 82 84 84 84 83 88 72 60 59 58 56 54 52 51 51 52 55 52 43 38
4 3 4 6 7 11 14 25 44 54 62 63 71 86 100 100 100 96 89 100 100 100 96 95 90 92 98 88 90 79 62 55 52 49 48 49 52 54 55 54 54 48 40
4 3 4 7 7 11 16 21 38 54 58 65 82 100 100 100 99 100 100 100 100 98 90 96 95 100 98 94 87 64 55 53 50 50 52 54 55 57 63 59 51 47 39
6 7 9 11 12 13 21 28 39 54 64 74 74 79 97 100 100 100 100 100 100 93 94 89 98 99 99 91 67 65 63 58 56 58 57 59 66 71 61 60 48 38 34
24 22 22 22 28 32 33 39 45 50 52 60 87 100 100 100 100 98 90 85 100 100 100 100 94 93 92 75 76 77 74 74 73 70 71 75 74 72 56 45 46 38 33
49 46 46 43 40 41 42 50 67 86 98 100 100 100 100 100 100 99 94 83 79 99 100 88 98 85 88 94 96 97 93 88 88 85 82 76 60 55 43 38 38 40 36
66 61 60 62 77 86 99 100 100 100 99 100 100 100 100 100 100 100 100 80 100 100 100 96 89 100 100 100 100 100 100 97 89 73 60 52 46 37 33 33 35 33 31
97 98 97 98 100 100 100 100 100 100 100 100 100 100 94 86 83 96 100 100 100 97 97 100 100 100 100 100 99 89 79 71 63 57 50 40 36 35 31 32 38 41 36
96 99 93 95 99 99 100 100 100 96 81 88 96 94 100 96 97 99 100 99 100 100 100 100 100 99 97 88 77 63 56 50 48 48 45 40 36 35 45 54 44 33 31
78 100 100 82 100 99 100 100 100 73 92 70 85 100 100 100 100 100 100 100 100 100 99 94 90 75 68 66 67 66 61 54 43 39 39 50 57 57 57 36 33 31 24
100 100 97 96 99 100 93 100 100 100 100 100 100 100 100 100 100 100 100 100 100 99 92 82 77 71 69 58 46 41 40 48 60 66 62 57 58 46 34 32 25 16 9
100 99 98 100 100 100 98 98 99 100 100 100 100 100 100 100 100 100 100 97 84 77 73 66 54 46 46 50 60 70 73 72 69 65 59 49 37 32 25 14 9 7 5
93 100 100 100 100 100 100 100 100 100 100 100 100 100 100 100 100 91 80 75 68 56 46 46 62 79 85 86 81 78 71 57 50 47 38 31 23 12 9 7 5 5 5

GFSMW_250_rhum_039.txt.gz
RH
63 79 97 78 68 63 66 65 61 54 51 44 36 50 32 29 44 54 57 53 37 33 28 26 23 20 18 21 24 26 26 26 27 23 19 17 17 18 22 21 26 25 30
55 62 68 70 69 77 73 70 69 68 71 76 55 51 54 67 58 58 64 67 62 55 43 38 42 37 23 21 23 25 24 33 33 24 20 20 20 19 23 24 25 27 33
64 62 63 69 66 76 75 75 72 66 65 74 82 66 58 63 71 77 85 78 49 40 46 41 34 35 36 29 27 31 34 41 39 39 36 31 27 26 33 31 25 25 28
61 58 56 61 66 73 73 70 72 71 72 57 66 85 66 71 62 53 45 83 71 86 100 85 51 43 46 52 34 28 28 28 29 29 32 40 43 42 60 53 33 30 36
72 75 74 70 73 70 70 67 65 69 67 65 54 69 80 73 70 66 70 77 78 76 78 71 40 43 35 32 34 31 28 27 27 27 30 32 35 56 65 82 68 46 46
73 71 68 69 71 71 67 65 65 63 66 65 54 64 89 94 83 68 68 77 73 49 49 47 40 38 42 38 32 30 31 38 41 39 38 39 53 57 66 76 82 70 52
74 75 79 76 67 56 51 56 59 65 63 60 62 59 100 100 91 84 79 73 71 66 52 58 48 42 48 40 37 38 34 40 54 59 62 71 72 72 64 73 97 98 90
81 81 85 92 81 63 55 46 44 52 61 67 78 67 82 99 77 79 90 90 71 65 66 72 66 53 54 51 50 50 47 52 62 80 82 80 82 77 81 80 81 93 98
63 57 54 54 55 53 49 52 49 39 39 46 58 66 77 98 88 93 94 87 77 64 72 84 77 65 61 67 59 53 48 45 49 74 84 91 94 93 88 86 88 82 90
56 58 61 56 37 28 25 22 32 34 30 36 32 52 73 87 98 93 82 75 66 64 76 93 96 92 76 70 69 70 57 56 59 61 71 87 93 90 87 86 78 78 76
30 30 30 27 24 21 19 21 23 36 27 33 38 43 76 96 90 84 74 68 68 66 73 99 100 98 83 79 96 82 72 70 67 65 69 70 76 78 72 71 71 71 74
25 24 21 15 14 11 9 10 13 25 30 34 50 54 64 73 74 70 70 75 65 63 90 100 100 100 95 97 94 88 84 76 71 79 79 72 73 64 56 57 65 64 56
19 13 12 6 4 5 5 8 9 18 33 40 48 54 55 58 65 67 71 72 62 73 100 100 100 100 100 98 98 89 92 82 79 80 76 71 71 71 59 51 50 50 47
10 10 5 3 6 7 7 6 11 16 27 39 35 43 50 54 56 58 58 61 80 92 100 100 100 100 93 98 95 90 91 89 81 67 65 71 72 67 56 54 52 49 44
6 4 4 4 5 5 7 7 12 18 22 32 40 46 50 58 60 63 77 91 92 99 100 100 100 100 100 98 100 100 88 74 67 71 78 74 61 57 59 58 54 51 46
5 4 4 3 3 4 5 6 10 19 23 34 51 61 74 74 77 97 100 100 100 100 100 100 100 84 72 98 87 77 69 76 92 95 75 67 70 72 68 67 64 57 57
15 9 8 6 8 12 15 14 15 22 30 40 62 76 84 94 98 100 100 100 100 100 100 100 100 100 100 96 61 68 82 92 86 75 84 87 84 85 84 78 76 71 59
30 22 18 15 20 29 33 35 36 42 46 52 65 70 85 100 100 100 100 100 100 100 100 97 90 85 74 67 76 88 99 88 89 84 83 87 92 85 79 71 60 54 45
46 39 33 32 40 46 52 54 54 53 56 60 73 94 100 95 99 100 100 100 100 100 77 74 60 72 78 92 100 100 90 83 85 94 92 82 72 62 53 44 40 36 33
98 96 93 91 92 96 92 96 98 96 90 86 85 95 100 100 100 100 100 100 100 100 72 79 100 100 100 100 98 78 76 92 97 82 69 60 57 51 41 34 32 40 54
100 100 100 100 96 93 100 100 96 96 96 100 100 100 100 98 100 100 100 100 97 90 100 100 100 99 100 98 80 88 88 80 74 65 54 44 38 38 40 53 61 55 40
85 100 100 92 100 100 90 91 96 91 94 100 100 100 100 97 94 84 74 62 79 96 100 100 98 97 86 79 81 77 69 57 48 47 49 58 64 62 67 63 46 31 30
84 92 91 81 81 100 100 81 100 74 77 86 81 78 93 99 98 100 99 95 93 99 100 100 86 78 81 78 70 57 55 66 75 78 75 70 62 58 50 37 30 28 20
100 100 100 100 91 89 88 100 100 86 70 87 89 90 100 100 100 100 100 100 100 100 95 78 86 82 68 57 70 91 89 84 78 64 55 51 46 36 31 27 20 12 9
94 100 100 100 100 100 100 100 100 100 100 99 100 100 100 100 96 83 84 95 91 79 82 78 67 58 78 96 90 86 77 66 57 51 48 40 31 25 18 12 10 7 6
88 88 94 95 94 97 98 96 93 91 92 94 99 100 95 96 99 100 93 81 76 74 65 64 65 94 95 90 78 63 55 50 49 44 32 24 19 12 9 8 6 5 5

GFSMW_250_rhum_042.txt.gz
RH
99 84 72 77 80 78 76 61 54 59 61 65 62 74 69 74 92 86 62 70 76 47 52 77 64 56 59 53 46 39 31 29 23 22 25 26 25 25 26 26 25 30 31
100 100 100 100 97 84 67 55 52 52 63 76 69 62 66 62 67 77 96 100 99 92 88 99 96 86 62 56 48 41 35 30 35 37 28 25 27 33 33 36 38 36 29
100 100 100 100 100 98 74 58 52 47 54 63 70 66 67 73 71 82 94 100 100 100 100 100 92 73 84 67 49 55 46 37 33 29 32 34 30 29 32 37 42 43 49
100 100 97 90 78 79 75 70 63 60 60 63 71 72 64 58 58 75 69 74 87 91 100 100 93 97 97 78 70 62 49 31 30 31 30 30 32 31 30 30 35 37 41
99 98 89 75 71 85 85 82 82 71 72 67 70 76 80 77 71 61 63 73 74 91 100 100 100 100 100 83 55 46 48 46 39 34 38 35 32 29 30 38 38 48 49
81 76 71 68 65 64 61 61 62 64 67 70 71 71 81 79 78 78 76 72 64 70 85 89 95 98 79 72 61 52 54 49 44 41 41 42 38 40 42 50 64 62 59
66 61 60 63 64 67 69 65 60 63 63 67 67 66 72 80 78 80 83 77 68 64 100 94 78 85 76 79 71 64 64 60 56 50 56 62 53 46 46 54 74 97 99
51 56 64 68 72 74 74 71 64 63 59 56 56 52 52 55 63 66 69 72 93 92 85 100 100 100 88 82 77 73 76 70 62 69 80 84 77 61 54 52 57 63 77
58 62 60 61 69 75 67 66 72 72 67 59 55 49 46 49 49 56 67 74 81 84 80 100 100 100 99 94 77 76 88 76 81 75 78 86 84 74 69 62 61 62 66
43 49 48 47 44 46 50 56 54 54 56 49 46 48 39 41 49 60 74 71 72 86 93 100 100 100 100 92 74 74 91 88 82 89 89 79 73 65 72 70 59 61 67
46 44 49 53 60 55 49 43 39 40 37 36 40 54 53 49 53 61 62 63 78 98 100 100 100 100 89 77 70 79 88 88 96 99 93 87 72 61 56 64 67 67 66
41 34 33 35 32 29 30 30 31 31 29 27 28 30 34 33 39 59 60 66 100 100 100 100 100 97 84 76 71 78 100 98 99 99 85 78 72 57 64 67 70 69 70
37 30 22 19 20 17 16 15 21 21 15 20 29 26 31 31 43 58 63 60 87 100 100 98 94 88 80 79 84 100 100 100 100 80 68 70 72 77 71 77 76 71 60
45 36 17 6 5 6 7 10 10 9 10 10 11 10 15 24 36 44 53 58 72 94 88 83 80 83 78 93 100 100 100 100 87 67 65 70 81 75 70 70 66 61 58
40 22 8 3 4 5 4 4 4 6 8 9 9 9 11 19 27 47 56 73 87 81 77 76 78 92 91 100 100 100 100 96 95 53 56 72 92 78 63 60 62 68 74
26 15 9 6 4 4 6 8 8 9 10 9 13 16 20 28 47 63 63 71 74 73 73 88 100 100 100 100 100 100 79 52 55 69 87 98 66 57 63 64 71 82 89
30 18 10 8 7 7 10 10 10 11 12 18 28 32 39 61 63 60 73 92 99 91 99 100 100 100 100 100 99 74 66 94 100 98 77 61 63 73 76 87 87 77 62
52 36 28 23 22 17 14 17 20 29 30 38 43 49 57 58 72 95 99 100 100 100 100 100 100 100 100 92 80 100 75 72 71 72 83 77 83 92 90 72 59 47 46
92 55 49 45 43 40 37 42 45 40 42 51 54 61 76 98 100 100 100 100 100 100 100 100 99 86 68 53 51 64 74 88 98 100 99 91 98 83 60 48 52 69 77
98 98 80 66 79 93 95 86 83 89 92 94 100 100 100 100 100 100 100 100 100 100 100 86 68 64 66 73 83 92 100 100 100 100 100 85 59 52 57 73 80 80 67
76 99 100 90 89 100 100 100 100 100 100 100 100 100 100 100 100 94 95 100 100 100 98 90 87 83 90 100 100 99 95 95 100 92 68 54 61 74 79 80 66 49 39
88 88 100 100 99 80 96 94 98 86 81 91 88 100 100 99 87 80 66 54 64 82 93 99 100 100 100 94 74 77 98 98 79 66 68 80 85 79 63 51 43 38 33
79 90 98 93 90 78 84 74 87 96 88 71 56 59 68 77 89 90 91 93 100 100 85 81 77 76 69 76 94 98 79 66 68 80 77 70 61 56 48 40 32 24 16
73 70 82 89 95 92 89 81 68 72 90 99 100 100 99 100 94 99 99 96 94 98 93 90 94 94 79 78 78 74 71 80 76 64 59 58 50 40 35 28 16 11 9
92 94 94 96 88 76 71 80 97 89 69 63 68 72 80 94 96 96 97 98 88 75 76 75 77 79 78 82 85 83 78 66 60 58 54 47 39 32 20 14 10 7 5
94 86 87 100 99 100 100 100 100 100 99 99 100 100 98 97 91 79 73 76 78 82 86 89 93 96 94 88 80 67 53 51 54 52 44 37 25 17 14 9 6 5 6

GFSMW_250_rhum_048.txt.gz
RH
100 100 100 100 100 100 100 100 98 100 98 95 100 93 94 85 87 90 82 77 82 76 71 60 58 50 48 46 61 65 82 99 98 98 69 68 52 53 54 50 48 56 52
100 100 100 100 100 100 100 100 100 100 100 100 100 100 100 100 94 92 79 72 70 71 74 72 65 66 70 86 100 89 90 94 90 90 77 59 52 44 54 57 55 60 56
100 100 100 100 99 99 100 100 100 100 100 100 100 100 100 100 96 87 86 79 66 69 84 83 82 84 91 96 100 100 100 100 96 79 65 58 50 45 50 63 63 63 62
100 98 95 100 100 100 100 100 100 100 95 99 100 100 100 100 100 98 95 88 77 81 78 80 79 92 96 92 95 100 100 100 98 90 84 73 74 64 64 80 89 85 86
100 100 100 100 100 100 100 100 100 100 97 88 89 97 98 100 98 98 96 92 90 96 90 88 90 86 86 88 93 100 100 100 100 100 100 100 100 100 93 90 99 100 100
100 100 100 100 96 95 99 100 100 100 99 98 93 86 84 86 91 100 100 100 93 90 92 94 90 81 89 89 94 98 100 100 100 100 100 100 100 100 97 94 100 100 100
100 99 96 93 95 94 88 82 82 85 87 87 88 89 85 83 94 99 98 98 98 95 86 77 82 88 89 88 89 94 96 99 100 100 100 100 100 100 100 99 100 100 100
80 86 86 86 89 89 87 89 97 98 94 94 91 88 91 95 89 84 79 77 75 80 74 78 83 83 94 99 96 100 100 100 100 100 100 100 100 100 100 100 98 100 100
71 78 75 79 86 89 89 83 77 74 71 68 66 68 71 66 61 61 62 74 81 89 96 97 96 96 95 100 100 100 100 99 100 100 100 100 100 100 100 100 100 100 100
76 77 75 73 72 71 65 56 50 46 42 40 41 41 41 39 40 45 58 66 78 89 95 98 100 100 96 100 93 98 100 100 100 100 100 100 100 100 100 100 100 100 100
54 57 60 61 59 53 50 49 43 37 34 32 29 24 19 19 24 27 34 44 56 62 67 85 95 100 100 100 100 100 100 100 100 100 100 100 100 100 100 100 100 100 92
89 84 73 61 54 51 39 29 22 19 19 23 24 24 27 29 32 35 38 41 47 51 59 73 98 100 100 100 98 99 100 100 100 100 100 100 100 100 100 100 100 98 84
78 73 60 45 48 47 36 28 24 19 15 17 19 21 24 25 27 28 30 36 46 52 61 71 91 96 98 99 100 100 100 100 100 100 100 100 100 100 100 100 100 92 72
62 63 66 53 41 34 26 23 20 13 12 15 17 19 18 21 27 32 36 40 43 49 55 58 59 60 68 84 94 92 79 86 100 100 100 100 100 100 100 100 92 73 66
74 56 40 42 48 38 25 15 12 8 8 7 8 11 16 18 22 26 31 35 37 41 52 61 67 80 88 99 77 69 71 90 99 100 100 100 100 100 97 88 84 67 63
44 50 49 56 54 42 27 16 11 8 8 6 6 8 10 14 18 20 21 23 26 34 46 67 85 92 98 96 96 82 82 100 100 100 100 100 100 96 92 78 58 67 81
56 58 67 69 62 49 34 28 19 15 12 11 10 10 12 13 13 14 16 16 16 17 24 39 65 91 100 92 85 88 100 100 100 100 89 98 91 75 69 78 79 83 90
70 66 88 75 77 69 56 49 41 41 35 28 22 24 24 32 39 37 36 37 35 28 29 42 65 85 92 98 100 100 100 100 98 100 99 83 63 69 90 91 89 87 78
84 73 92 84 83 81 76 74 62 61 78 88 86 73 69 71 78 69 64 57 86 80 79 93 98 100 100 100 100 100 99 87 71 62 72 79 79 71 72 81 82 82 76
86 79 80 85 80 90 97 82 69 81 68 66 64 68 71 67 67 77 77 98 100 100 100 100 100 99 98 100 72 63 73 76 80 90 95 84 86 84 89 96 94 97 99
82 87 79 83 79 87 98 94 91 94 84 88 72 62 73 86 94 87 89 84 76 71 75 73 76 80 80 86 86 83 83 80 78 84 89 90 92 96 98 100 99 86 62
77 86 84 79 73 82 79 88 99 100 95 86 81 96 94 90 86 92 98 100 98 99 100 100 100 100 97 90 83 93 96 98 100 100 100 96 96 100 94 74 66 58 56
73 85 92 89 80 80 81 88 84 76 72 94 84 84 92 90 96 99 100 100 100 96 91 92 92 95 99 100 100 100 97 82 88 99 100 100 94 82 67 62 62 57 53
84 77 88 90 85 79 71 78 91 94 86 78 72 79 78 85 91 90 90 93 94 100 100 100 100 100 99 97 96 98 100 100 100 100 91 81 73 66 62 59 52 45 40
80 71 85 91 97 92 86 82 84 80 76 78 91 92 92 91 92 92 92 95 99 100 99 97 94 96 99 100 100 100 100 99 92 84 75 70 65 57 49 43 38 31 23
67 79 78 86 94 96 92 92 93 90 90 89 90 94 93 92 91 91 93 95 100 100 97 99 99 96 94 90 92 91 90 87 82 73 63 55 48 42 38 30 18 13 10

GFSMW_250_rhum_051.txt.gz
RH
100 100 99 100 100 100 100 100 100 100 98 93 90 92 98 92 92 96 97 100 99 96 100 96 84 80 90 76 82 77 90 78 82 74 66 62 64 69 57 62 55 52 52
100 98 94 83 84 99 100 100 100 98 97 93 99 100 100 100 100 100 95 98 98 95 95 89 92 92 90 88 85 91 87 79 83 86 81 88 100 100 82 74 64 60 55
76 72 76 90 75 68 95 100 100 100 100 100 100 100 100 100 100 100 100 100 100 100 100 94 97 100 88 86 83 81 82 87 87 99 96 100 100 94 74 64 62 64 61
98 80 69 71 94 79 100 100 100 100 100 100 100 100 100 100 100 100 100 100 100 100 99 97 100 100 100 100 100 92 87 93 100 100 100 99 100 100 100 100 99 99 88
87 93 100 100 92 100 100 100 100 99 100 100 100 100 100 100 100 100 100 100 97 92 90 99 100 100 97 95 100 100 98 100 100 100 98 89 100 100 100 100 100 100 100
98 92 100 100 98 89 88 90 90 98 93 97 97 96 92 90 99 100 100 100 99 100 99 100 100 100 100 100 100 100 100 100 100 98 84 80 95 100 100 100 100 100 100
99 100 98 89 85 87 85 83 84 85 84 85 89 94 100 100 100 99 98 100 100 100 100 100 97 100 100 100 100 100 100 100 100 100 100 100 100 100 100 100 100 100 100
100 100 100 100 94 85 86 87 86 88 88 88 87 84 86 84 84 89 90 96 100 100 100 100 100 98 95 98 100 100 100 100 100 100 100 100 100 100 100 100 100 100 100
96 98 96 93 89 89 92 89 83 83 77 73 78 71 70 74 76 72 74 80 83 87 89 89 86 89 99 100 100 100 100 100 100 100 100 100 100 100 100 100 100 100 100
75 74 77 74 79 87 84 82 77 73 70 65 62 60 63 62 62 60 57 58 61 66 82 93 97 96 90 92 97 100 100 99 100 98 96 100 100 100 100 100 100 100 100
74 75 71 68 75 77 71 62 52 45 42 37 35 30 25 22 21 23 25 28 32 38 46 60 69 71 74 83 87 99 100 100 100 100 100 100 100 100 100 100 100 100 100
73 71 74 67 59 53 49 51 49 43 39 34 27 20 18 15 13 14 17 20 26 32 37 43 49 58 71 84 92 97 97 96 98 100 100 100 100 100 100 100 100 100 100
73 64 64 65 57 52 51 54 48 38 31 26 21 18 15 15 15 15 15 17 20 26 34 39 44 53 71 87 98 100 100 100 100 100 100 100 100 100 100 100 100 100 100
93 90 70 67 57 60 48 37 33 32 31 27 18 12 9 8 8 10 12 16 22 28 37 46 54 53 53 62 84 100 100 100 100 100 100 100 100 88 87 99 81 89 100
86 69 62 65 49 44 42 44 42 35 27 22 13 8 7 8 8 8 9 13 18 20 27 36 51 62 63 65 69 78 91 93 91 95 100 100 84 90 70 99 99 100 93
64 73 63 46 48 51 58 48 41 33 27 20 13 8 10 9 8 8 11 14 17 20 25 32 44 56 71 82 85 95 100 100 100 100 100 87 87 93 93 98 90 94 100
74 53 51 56 57 68 67 57 52 50 48 32 25 20 20 18 15 16 14 14 12 14 19 26 36 45 59 78 86 96 100 100 99 82 82 100 100 100 96 98 90 85 79
58 69 63 62 63 75 71 75 95 94 92 70 67 51 40 36 41 42 36 31 31 26 21 20 23 26 68 58 81 88 79 90 100 100 100 99 94 99 100 95 93 82 77
58 62 62 62 77 83 78 72 96 90 95 90 65 64 70 59 51 46 50 52 53 52 50 31 40 61 76 81 86 97 100 96 97 85 85 81 85 91 91 80 86 90 85
53 55 66 72 83 91 81 72 84 92 99 94 92 77 71 64 76 73 78 79 73 78 78 75 70 64 68 71 72 73 77 88 92 94 90 92 95 97 93 93 91 85 64
55 61 66 79 80 78 80 65 85 78 75 76 92 84 78 70 65 69 77 81 83 79 87 91 93 92 95 98 90 87 90 94 100 100 100 100 100 100 95 89 78 78 82
65 71 74 76 78 84 85 77 69 81 96 89 70 77 86 70 66 66 72 79 82 83 85 91 96 99 100 100 99 99 99 98 100 100 100 100 96 90 89 83 79 76 69
65 76 81 72 82 75 79 86 76 77 79 97 80 73 73 75 79 85 91 97 100 100 100 100 100 99 99 99 100 100 100 100 100 100 100 100 100 96 90 83 70 61 55
67 74 81 70 82 83 83 82 79 74 82 87 81 81 92 99 100 100 100 100 99 97 96 95 95 94 94 98 100 100 100 100 100 100 100 99 94 86 77 63 52 47 43
68 68 72 75 71 88 90 89 93 95 93 86 86 89 93 92 87 82 78 78 84 87 87 85 85 85 86 93 95 95 94 92 92 97 97 87 71 62 54 47 42 37 31
64 62 68 68 75 79 86 92 92 96 93 92 90 94 95 90 92 91 87 83 79 78 76 70 67 65 67 73 80 88 92 88 79 74 72 66 55 45 40 34 24 16 14

GFSMW_250_rhum_054.txt.gz
RH
100 100 100 100 91 99 99 98 98 100 88 70 72 77 84 78 80 84 87 88 89 93 100 92 89 85 100 97 100 100 99 93 81 82 78 85 91 81 85 93 99 100 89
100 100 100 100 100 100 100 100 100 98 90 69 70 70 67 81 87 97 100 98 87 79 81 89 95 98 92 96 100 92 91 86 82 82 86 95 100 99 100 100 100 100 74
100 97 99 100 100 100 100 100 100 96 85 80 75 76 58 62 96 100 100 98 95 99 100 99 95 100 100 100 94 99 92 95 100 100 94 100 97 100 100 100 100 100 100
100 99 98 100 100 100 100 97 92 91 86 73 60 80 91 79 87 84 92 99 95 100 100 99 96 100 100 98 100 99 96 98 99 97 100 100 100 100 100 100 100 100 100
100 99 98 100 100 100 87 84 70 79 93 76 82 92 100 100 100 100 100 100 100 100 100 100 99 100 100 100 100 100 100 100 100 100 100 100 100 100 100 100 100 100 100
100 100 100 89 84 75 59 60 55 74 99 96 80 89 93 98 92 99 98 99 93 90 90 90 92 100 100 100 100 100 100 100 100 100 100 100 100 100 100 100 100 100 100
96 95 80 62 53 57 73 93 94 85 64 89 100 99 90 86 87 86 90 95 100 100 100 99 100 100 100 100 100 100 100 100 100 100 100 100 100 100 100 100 100 100 100
65 61 62 68 80 87 85 80 75 65 82 97 98 96 91 90 89 97 100 100 100 100 100 100 100 100 100 100 100 100 100 100 100 100 100 100 100 100 100 100 100 100 100
80 90 94 98 90 92 93 96 86 86 97 99 100 96 89 88 82 77 77 81 81 83 83 83 80 82 84 84 84 95 96 96 100 100 100 100 100 100 100 100 98 82 100
99 99 99 100 92 85 82 84 88 85 79 81 76 70 73 71 67 60 60 60 57 47 45 51 56 62 69 75 84 88 95 100 100 100 100 99 100 100 100 100 100 100 100
86 84 87 80 87 81 78 80 80 78 76 66 59 55 47 37 28 23 20 18 17 20 24 29 38 52 68 79 91 96 94 90 88 92 99 100 99 99 100 100 100 99 100
96 100 95 97 97 91 86 90 69 71 59 48 43 35 29 24 18 16 16 17 18 18 19 22 26 33 44 60 68 73 78 84 84 86 91 96 100 100 100 100 100 100 100
100 100 100 100 99 89 81 76 58 46 44 36 34 29 28 25 22 18 16 14 13 14 14 14 18 25 31 36 49 60 66 69 75 86 100 100 100 100 100 100 100 100 100
77 68 76 71 62 62 60 57 54 53 44 40 32 39 38 28 21 14 10 9 9 8 8 8 9 13 25 37 44 51 57 66 72 80 98 100 100 100 100 100 100 100 100
79 76 81 77 69 63 66 61 54 43 42 40 42 41 42 26 16 13 12 12 9 6 7 8 9 11 17 30 44 57 67 77 84 85 89 99 100 96 100 100 100 100 96
88 80 77 75 74 70 61 49 47 51 50 47 44 42 48 37 35 24 18 12 10 8 5 6 10 14 18 28 40 55 70 72 84 88 87 94 100 98 100 100 94 95 97
84 71 71 73 63 54 48 56 56 63 66 69 66 58 66 63 62 59 48 38 22 19 16 10 11 19 26 34 41 51 65 76 86 99 100 100 100 100 100 99 97 91 84
68 72 70 62 60 59 55 62 68 67 77 77 72 71 70 70 66 58 54 53 47 40 37 27 24 22 29 40 46 53 60 81 95 100 97 94 97 98 96 90 88 81 77
73 69 57 55 56 51 61 72 67 70 74 83 78 72 66 72 61 54 53 57 54 54 49 47 60 68 66 61 61 62 62 67 85 99 99 90 85 86 90 97 99 99 94
70 60 52 54 55 51 67 76 68 77 90 79 73 74 66 65 68 66 62 60 60 61 66 63 64 71 71 63 63 68 69 74 84 84 89 93 100 94 87 92 94 92 93
66 56 55 62 62 62 72 79 70 77 77 81 81 74 73 68 72 76 76 69 63 60 60 59 62 67 70 76 82 86 92 96 99 100 100 99 96 98 100 100 100 97 87
66 58 63 62 73 75 69 76 69 68 74 72 81 92 86 72 75 80 79 85 88 90 90 91 96 98 97 97 95 95 94 95 97 100 100 100 100 100 100 100 100 99 97
65 61 60 67 71 75 65 70 65 68 72 68 73 80 93 89 86 88 91 84 81 83 88 92 95 91 91 100 100 100 100 100 100 100 100 100 100 100 98 87 72 59 52
66 59 65 68 69 73 65 68 75 77 82 84 84 83 87 92 88 85 82 82 82 86 88 85 86 81 76 77 79 79 78 78 82 86 86 82 80 80 71 62 57 52 46
60 60 62 61 61 66 67 66 75 83 88 92 94 96 97 92 89 87 87 85 80 78 75 74 79 80 76 72 70 72 71 71 72 73 73 70 64 58 52 44 37 32 28
61 66 69 62 56 58 60 67 76 80 87 90 90 99 100 96 97 93 90 84 78 76 76 76 77 82 76 75 73 73 74 74 69 63 60 55 47 40 37 35 34 26 18

GFSMW_250_rhum_057.txt.gz
RH
100 100 100 100 100 100 97 96 91 88 100 100 90 100 100 100 89 73 73 71 66 57 55 53 51 64 85 86 87 82 85 99 100 100 94 94 100 90 89 85 90 100 100
100 100 100 100 100 100 100 100 95 77 96 100 100 100 97 98 96 87 78 64 58 60 53 58 64 56 76 80 87 93 96 100 98 91 97 100 96 99 86 93 100 100 100
100 100 100 100 100 100 100 100 100 100 100 100 90 83 85 80 85 74 63 59 62 61 55 64 71 73 85 97 94 100 100 99 97 100 98 100 100 100 100 100 100 100 100
100 100 100 100 100 100 100 100 100 100 95 90 93 79 76 72 68 59 52 56 57 70 77 82 71 72 73 78 94 93 100 100 100 100 100 99 100 100 100 100 100 100 100
100 100 100 100 100 100 100 100 100 100 100 100 95 84 76 80 80 70 63 81 78 78 62 72 92 90 91 100 100 100 100 100 100 100 100 100 100 100 100 100 100 100 100
100 100 100 100 100 100 100 100 100 100 100 100 94 92 87 77 65 61 58 80 81 55 70 82 75 71 74 77 85 87 89 100 100 100 100 100 100 100 100 100 100 100 100
100 100 99 98 100 100 100 100 100 100 100 98 94 89 76 60 50 57 67 59 63 71 90 100 100 100 100 100 98 100 100 100 100 100 100 100 100 100 100 100 100 100 100
100 100 100 100 100 100 100 100 100 93 88 78 73 62 58 52 58 67 79 91 100 100 100 100 100 100 95 86 93 98 100 100 100 100 100 100 100 100 100 100 100 100 100
100 100 100 100 100 100 98 96 88 78 64 58 56 50 64 63 60 94 72 71 74 73 67 68 75 69 67 66 66 68 69 73 77 77 82 89 100 100 100 100 100 100 100
90 87 91 92 83 78 77 72 63 59 56 60 75 69 69 74 72 75 73 72 65 59 42 32 26 25 30 33 36 39 48 58 74 82 97 100 100 100 100 100 100 100 100
90 81 82 78 67 62 63 57 57 65 64 62 75 72 80 69 68 73 68 34 28 20 14 12 12 14 18 23 27 35 46 58 69 83 94 98 100 100 100 100 100 100 100
97 90 84 76 71 69 82 80 67 67 69 84 73 85 75 84 78 41 32 27 22 16 16 15 14 14 17 20 24 30 34 36 47 63 83 98 100 100 100 100 100 100 100
100 100 100 98 94 84 84 91 84 96 91 91 82 86 67 36 32 32 30 43 40 29 21 12 9 8 9 10 12 16 25 36 39 42 52 68 77 83 92 96 95 97 100
100 100 100 97 89 98 100 99 100 99 87 90 68 40 38 32 34 35 53 46 36 28 14 9 7 7 7 6 7 8 11 19 38 48 50 53 62 72 74 78 78 83 92
100 96 100 100 97 97 100 100 86 68 54 42 42 46 39 34 43 54 44 38 37 35 24 15 13 9 8 6 6 8 11 12 22 40 56 70 72 75 77 82 88 92 99
93 85 84 95 83 64 64 59 54 60 50 47 48 42 41 47 52 51 50 47 40 38 36 27 17 12 8 11 13 13 14 17 28 46 68 78 85 95 99 98 99 98 96
98 96 70 72 73 64 65 65 63 59 50 49 48 52 54 50 60 53 52 51 45 38 43 39 34 22 13 18 24 26 26 32 45 59 75 86 94 100 95 84 93 97 94
92 89 85 76 79 73 75 71 67 54 50 54 57 60 56 54 60 56 61 56 58 52 41 42 41 43 46 43 49 52 69 72 77 80 80 82 88 91 93 86 94 96 100
93 88 81 73 74 77 76 66 54 48 48 56 65 61 54 66 64 58 63 62 54 48 54 53 53 53 47 48 57 63 70 80 84 86 90 90 92 94 97 87 86 85 94
88 79 76 78 80 75 66 57 50 44 48 65 61 60 61 64 65 59 64 67 58 57 55 52 53 57 62 68 67 64 64 65 61 64 68 74 78 80 81 88 99 99 94
87 87 81 78 72 60 59 63 52 56 65 66 66 61 64 69 69 70 74 74 62 65 65 64 68 70 70 69 68 69 72 74 74 75 80 86 90 93 95 98 100 100 100
95 94 90 74 64 62 61 58 61 67 66 66 63 64 61 64 67 78 79 76 69 71 70 74 78 76 76 74 74 72 71 71 75 82 88 92 95 95 94 93 90 83 74
100 89 79 78 68 61 55 60 65 66 63 63 64 59 65 76 78 84 88 88 78 75 71 75 74 72 74 76 75 74 72 73 75 77 82 83 77 74 71 66 63 58 52
94 85 89 79 66 58 56 60 60 64 63 58 66 72 79 82 89 95 94 92 82 77 78 82 76 73 77 80 80 79 76 78 78 76 75 74 70 64 60 57 52 46 41
84 98 90 71 62 57 56 59 56 59 62 64 65 74 80 84 96 100 98 91 85 82 85 87 87 88 82 81 87 89 88 85 79 74 71 71 68 64 58 51 45 38 42
100 99 84 71 69 66 59 54 54 55 58 59 69 73 79 92 95 99 94 92 89 86 88 86 89 87 86 81 79 83 89 89 82 76 74 73 70 66 61 49 42 46 61

GFSMW_250_rhum_060.txt.gz
RH
100 100 100 100 100 93 89 90 83 80 98 100 100 100 100 100 89 75 86 89 93 96 88 74 69 67 54 51 54 50 54 54 73 73 68 65 93 98 100 100 100 100 100
100 100 100 100 100 100 100 100 99 98 100 100 100 97 86 100 88 85 100 100 99 86 78 84 76 64 52 59 59 57 61 76 69 55 82 86 98 100 99 100 100 100 100
100 100 100 100 100 100 100 100 100 100 100 100 98 100 98 100 100 100 98 84 80 79 77 67 61 56 68 57 50 48 78 73 56 83 98 94 89 95 98 98 100 100 100
100 100 100 100 100 100 100 100 100 100 100 100 100 97 86 91 100 97 92 80 81 68 56 45 50 61 62 55 50 56 58 58 76 82 100 95 84 85 99 100 100 100 100
94 100 100 100 100 100 100 100 100 100 100 100 100 96 100 92 84 85 88 89 76 72 70 57 56 60 54 48 45 53 68 77 85 100 100 100 100 100 100 100 100 100 100
100 100 100 100 100 100 100 100 100 100 100 100 100 100 100 93 100 91 98 88 78 80 71 66 59 51 51 51 55 55 55 57 72 100 100 100 100 100 100 100 100 100 100
100 100 100 100 100 100 100 100 100 100 100 100 100 96 100 100 99 100 89 87 88 76 68 59 57 52 58 50 45 60 68 53 57 68 71 75 81 86 91 100 100 100 100
100 100 100 100 100 100 100 100 100 99 96 100 100 100 100 100 100 93 96 81 74 65 56 50 50 47 55 76 67 54 46 37 33 25 28 37 52 73 88 96 97 88 85
100 100 100 99 98 99 100 100 100 100 100 100 100 100 100 98 96 86 76 70 59 54 48 45 50 60 74 75 35 21 14 14 17 19 22 26 38 69 88 90 94 100 100
100 100 100 97 96 94 100 100 100 100 100 100 99 97 98 91 80 73 60 52 55 52 54 55 61 57 57 20 14 14 17 18 20 23 27 29 33 51 72 86 93 100 100
86 90 97 97 97 100 100 100 100 100 100 93 88 86 88 78 65 57 50 51 56 54 69 68 63 27 21 17 22 22 17 13 14 14 19 26 35 40 48 72 96 100 100
98 96 91 87 89 98 95 95 91 86 89 86 76 64 55 54 49 62 77 62 71 66 68 37 28 27 31 28 24 16 10 8 8 9 11 16 24 40 52 54 59 91 100
100 100 100 100 100 100 94 93 87 75 70 64 61 67 63 80 86 87 91 71 66 35 32 30 36 44 40 28 23 11 6 6 6 8 10 10 13 24 40 54 64 68 82
98 100 100 99 94 91 88 77 80 75 78 86 81 87 92 95 86 81 63 36 36 34 36 44 46 42 36 26 21 11 7 6 7 7 7 9 11 15 30 54 76 83 81
53 48 50 60 67 71 82 94 100 96 95 98 100 95 83 86 56 41 40 36 36 40 48 48 41 37 32 30 30 21 19 16 14 13 14 14 16 18 30 54 76 87 87
100 100 98 97 100 100 100 100 100 100 98 93 84 61 45 40 46 45 40 38 44 49 50 44 45 34 32 33 35 38 32 24 19 20 24 24 26 34 52 82 93 98 100
100 100 98 97 98 100 100 97 92 88 76 77 62 52 46 46 49 45 43 46 50 52 49 49 43 44 35 34 37 44 49 49 36 33 38 45 64 76 82 84 88 91 95
100 100 100 100 100 98 100 94 97 82 73 66 58 48 46 49 46 46 52 56 52 51 52 47 51 48 45 41 42 42 46 52 54 60 70 82 88 87 91 97 98 98 100
100 100 100 100 100 88 90 73 68 74 68 61 60 48 46 40 44 55 56 55 53 53 58 55 59 52 48 50 52 53 54 52 50 49 52 54 57 62 62 63 64 65 65
94 96 94 90 81 82 82 84 79 76 76 72 60 49 39 44 61 59 55 53 62 63 66 70 63 54 55 59 60 63 62 62 62 61 61 63 65 66 68 73 76 78 81
84 75 74 78 82 83 83 88 94 84 68 61 51 46 48 59 63 57 54 54 60 69 68 72 65 58 63 64 62 63 63 68 70 70 70 71 71 71 74 77 79 79 76
92 88 89 96 95 97 100 100 89 68 57 52 48 52 62 59 59 57 56 69 72 70 74 75 74 64 72 76 72 72 75 76 75 73 76 80 82 83 84 79 76 76 76
97 98 94 99 100 100 100 92 72 56 50 50 51 57 62 56 59 62 67 77 84 84 81 79 81 70 76 77 77 77 76 76 81 88 93 93 91 89 85 82 79 76 76
100 100 100 100 100 100 88 86 64 49 49 50 55 56 62 59 58 69 76 80 81 85 86 82 84 79 78 78 83 84 80 82 88 94 96 93 94 95 92 85 79 76 72
100 100 100 100 99 92 89 74 56 52 50 53 50 50 56 59 64 69 77 84 94 94 94 87 88 86 84 85 84 86 87 84 88 89 90 92 96 98 93 87 82 74 71
100 100 98 98 93 97 82 78 65 52 53 52 49 53 57 57 64 74 84 91 99 98 96 89 86 89 90 91 88 86 84 83 90 94 94 94 92 92 91 86 78 77 73

GFSMW_250_rhum_063.txt.gz
RH
100 90 75 74 74 73 68 67 83 88 84 77 71 76 94 81 74 91 100 88 90 92 100 100 100 100 100 92 91 91 82 81 66 58 56 54 50 50 51 50 58 87 98
100 100 100 100 100 98 87 79 74 76 84 93 100 100 97 100 100 100 100 100 100 100 100 100 100 100 98 85 82 76 73 64 60 55 52 51 52 53 53 62 62 67 73
100 100 100 100 100 100 100 100 100 99 95 98 100 100 100 100 100 100 99 94 91 96 100 100 99 92 83 82 76 67 64 59 56 55 53 49 50 50 54 62 90 97 93
100 100 100 100 100 100 100 100 100 100 100 100 100 100 100 100 100 100 100 98 94 96 94 89 83 77 77 72 68 70 59 60 62 56 54 55 55 61 69 85 100 100 100
100 100 100 100 100 100 100 100 100 99 98 98 100 100 100 89 88 94 100 100 100 96 88 76 74 68 69 71 65 67 66 64 54 54 49 57 64 64 91 100 100 100 100
99 100 100 100 100 100 100 100 100 100 100 100 100 95 97 99 98 100 94 97 95 100 97 85 80 68 66 66 74 70 65 54 52 45 46 61 58 52 66 91 80 84 89
98 98 100 100 100 100 100 100 100 100 100 100 100 100 100 100 100 100 100 100 98 99 94 96 85 82 83 76 75 60 57 51 44 38 28 24 28 26 24 27 42 97 100
100 100 100 100 100 92 87 90 95 97 99 100 100 100 100 100 100 100 97 100 100 100 89 81 88 85 82 65 60 52 48 43 30 22 14 14 20 26 30 34 44 50 62
100 100 100 100 100 100 100 98 99 100 98 100 100 100 100 100 100 100 100 99 98 90 95 88 88 71 60 51 49 45 40 36 21 12 16 23 24 24 26 32 100 41 100
100 100 100 100 100 100 100 100 100 100 100 100 99 99 100 100 100 100 100 100 97 94 88 80 65 58 50 48 45 51 37 24 18 20 22 18 15 15 17 14 22 47 52
100 100 100 100 100 100 100 100 100 100 100 100 100 100 100 100 100 100 94 94 89 83 71 65 59 46 42 39 48 27 28 32 27 24 21 17 11 7 6 7 16 25 47
92 100 100 100 100 100 100 100 100 100 100 100 100 100 100 100 94 90 87 82 74 68 66 64 55 39 50 30 32 29 39 42 32 23 14 11 6 8 6 5 9 18 30
89 90 94 96 96 96 89 92 96 97 98 100 97 89 93 97 80 81 74 63 64 67 74 64 48 43 35 32 32 39 45 40 30 21 16 12 9 10 8 9 8 11 20
100 100 100 99 98 98 100 99 96 91 90 95 96 90 89 79 68 54 63 71 87 80 56 44 32 39 36 36 42 45 43 38 28 21 20 26 20 16 12 10 13 15 20
94 100 100 97 86 73 79 94 100 95 85 80 70 61 52 51 61 88 89 91 61 51 39 38 40 40 42 43 47 44 42 34 32 33 32 28 29 22 16 17 17 21 28
22 24 27 26 22 28 40 40 37 42 64 65 69 78 74 90 84 97 61 58 49 43 45 40 43 48 46 46 47 46 40 34 32 38 43 46 36 28 28 33 39 52 70
25 23 24 27 30 36 39 42 67 96 87 89 92 91 77 91 82 81 63 53 49 47 41 43 51 48 47 52 51 48 41 38 38 40 48 49 50 49 51 51 52 60 66
64 76 57 53 53 64 79 99 100 100 100 100 100 100 96 94 86 60 51 48 49 42 41 54 50 52 56 58 56 49 46 42 47 47 46 46 47 47 51 56 60 67 71
100 95 99 100 100 100 100 100 100 100 100 96 98 100 92 86 62 55 46 49 43 45 58 53 53 59 58 61 63 55 51 50 51 54 56 53 53 58 64 67 70 69 69
73 90 94 100 100 100 100 100 100 100 100 99 79 75 74 62 57 52 49 42 50 59 56 56 55 52 58 69 69 62 58 56 58 60 60 64 71 75 80 86 90 92 92
79 83 91 96 100 100 100 100 100 94 88 79 73 65 65 62 56 50 47 50 59 59 62 59 59 60 68 74 75 75 67 66 65 68 69 75 77 78 82 85 89 92 91
94 96 89 84 89 92 93 92 83 86 91 91 86 81 67 56 49 46 51 58 62 62 62 65 68 70 77 81 81 85 81 78 73 75 80 83 84 86 88 92 96 96 93
92 92 93 96 96 97 91 98 99 100 94 85 80 67 55 47 47 50 54 62 63 59 66 71 73 76 80 85 85 89 92 88 85 84 86 89 89 90 89 89 91 92 92
93 94 98 97 100 99 100 98 100 88 96 95 71 56 45 47 52 52 52 59 62 64 69 75 78 82 90 91 94 89 89 92 86 85 89 95 95 93 91 86 88 88 86
94 92 98 100 100 99 100 100 100 95 90 82 63 52 50 49 51 52 53 56 59 63 73 81 84 89 93 93 96 94 90 92 91 90 91 95 91 91 87 83 85 83 78
95 94 99 100 100 100 100 99 96 98 78 73 67 60 54 57 56 54 59 64 64 67 74 82 86 85 90 95 97 95 95 94 94 92 96 94 90 86 81 82 81 78 78

GFSMW_250_rhum_066.txt.gz
RH
100 97 87 96 93 95 100 100 89 81 88 98 100 100 93 86 90 87 81 78 76 93 100 96 91 95 100 100 100 100 100 100 93 96 84 72 73 70 66 67 64 58 59
100 100 100 100 100 100 96 92 94 90 76 72 76 81 88 91 82 78 86 92 100 100 100 100 100 100 100 100 100 100 99 96 91 79 67 69 60 67 65 58 54 58 81
100 100 100 100 100 100 100 100 98 98 99 89 77 73 74 76 86 90 96 100 100 100 100 100 100 100 97 91 98 95 90 81 79 80 70 55 63 66 58 54 58 73 92
83 100 100 100 100 100 100 100 100 100 100 100 100 100 100 100 98 98 99 100 98 97 99 96 98 93 92 100 99 87 92 82 74 67 62 66 64 58 50 53 56 92 81
100 100 100 100 100 100 100 100 100 100 100 99 96 100 100 100 100 100 100 100 100 100 100 99 82 88 95 82 96 88 82 76 75 70 74 66 60 50 41 32 31 38 32
100 100 100 100 100 100 100 100 100 100 100 100 100 99 100 100 99 96 99 100 100 100 99 98 97 95 94 86 83 76 79 78 76 76 63 55 43 37 24 15 15 21 30
100 100 100 100 100 100 100 100 100 100 100 97 96 95 92 89 90 93 92 86 90 96 96 96 94 94 87 75 75 88 83 83 72 60 49 42 34 20 13 14 19 28 29
100 98 100 100 100 100 100 100 100 100 100 100 100 100 100 100 94 96 97 96 93 93 96 96 90 99 83 85 99 96 86 65 54 46 39 29 20 17 14 18 22 19 19
96 100 100 100 100 100 99 100 100 100 100 100 100 100 100 100 100 97 100 98 90 88 88 91 97 80 100 100 90 84 64 55 41 31 26 20 23 24 23 22 18 13 14
99 94 96 100 100 100 100 100 96 92 94 98 99 97 95 98 98 95 95 96 98 100 100 95 100 100 96 90 76 64 51 39 32 26 23 29 33 34 25 18 14 12 10
58 79 96 100 100 100 100 100 100 100 100 100 100 100 100 100 100 100 100 100 100 100 100 100 98 91 85 69 58 43 40 37 30 27 30 38 41 37 25 15 12 11 9
37 47 62 96 100 100 100 100 100 100 100 100 100 100 100 100 100 100 100 100 100 96 98 92 84 78 57 53 46 51 48 34 30 33 38 47 42 34 29 23 15 14 11
60 52 63 60 79 94 99 100 100 100 100 100 100 100 100 100 100 100 100 99 95 97 91 87 60 53 47 55 57 42 40 36 38 42 47 46 37 31 31 30 28 23 15
43 60 62 59 48 58 77 92 99 100 100 100 100 100 100 100 100 96 95 96 90 82 57 46 48 60 62 66 46 40 38 40 43 48 48 42 37 34 33 36 34 31 27
17 35 60 63 46 38 48 72 94 99 100 100 100 100 100 95 99 98 64 59 48 42 37 60 65 74 52 53 42 42 40 44 49 53 49 41 38 37 39 39 39 38 35
17 17 18 26 34 31 30 40 61 85 95 100 100 96 98 98 66 28 29 44 48 55 76 79 69 68 53 44 43 38 46 50 55 55 49 44 41 40 41 44 51 51 45
16 16 18 18 18 18 19 23 43 72 86 88 79 61 38 34 32 57 68 74 84 91 87 83 62 63 50 45 41 46 52 55 61 57 55 51 47 47 46 46 50 51 51
20 19 19 21 22 21 23 24 31 35 38 34 34 44 46 59 89 99 92 86 79 78 65 60 43 53 46 49 55 53 53 60 61 68 64 55 54 57 58 55 53 54 56
21 21 22 27 38 34 32 29 37 52 60 64 66 76 96 100 94 98 83 60 62 58 47 48 51 43 49 61 58 52 58 62 70 72 71 69 66 65 65 68 69 70 72
22 25 29 30 46 63 77 90 94 90 100 100 100 100 100 100 88 79 66 62 52 49 57 52 47 52 62 65 57 53 65 75 78 79 79 78 77 73 76 78 78 82 84
36 37 36 36 37 53 94 100 100 100 100 100 100 100 95 94 83 68 60 57 63 56 46 44 48 58 64 63 58 62 73 79 78 84 87 91 92 90 89 81 82 86 89
57 59 56 53 54 60 94 100 100 100 100 100 100 99 91 81 74 73 68 60 52 46 49 49 55 61 64 61 62 74 84 90 89 91 95 93 86 88 90 95 98 95 91
63 75 81 90 98 92 88 94 96 100 100 100 98 98 93 93 85 70 61 52 48 48 52 52 52 60 64 65 70 77 81 90 96 100 100 98 98 99 96 98 98 91 90
90 89 93 96 100 100 100 100 100 100 100 100 100 99 98 94 88 69 55 50 51 53 50 49 51 56 62 68 75 82 90 96 98 100 99 99 97 94 95 94 92 94 89
94 94 97 95 97 99 99 100 100 100 100 100 100 100 99 99 79 61 55 56 61 57 52 53 61 66 68 71 79 87 95 97 96 95 93 96 95 91 92 91 90 84 82
95 98 100 100 100 99 100 100 100 100 100 100 100 100 100 93 72 69 67 62 71 67 63 64 74 78 80 80 81 88 94 93 94 99 99 95 95 97 92 86 85 84 87

GFSMW_250_rhum_069.txt.gz
RH
100 100 100 96 79 73 74 92 97 96 94 92 90 85 88 95 97 96 92 91 93 100 100 96 89 92 100 100 100 100 100 100 99 93 82 83 85 88 81 81 75 73 62
100 100 100 100 91 81 84 82 90 98 100 100 100 100 99 100 100 100 100 100 100 100 100 98 100 100 100 100 100 100 100 99 94 87 79 80 86 84 84 71 66 62 57
100 100 100 100 100 100 100 100 99 99 100 99 100 100 100 100 100 100 100 100 100 100 100 100 100 100 100 100 100 100 100 96 94 82 82 74 85 83 88 79 65 58 50
98 100 100 100 100 100 100 100 100 100 100 100 99 99 100 100 100 100 100 100 100 100 100 100 100 100 100 100 100 97 89 87 85 82 85 82 68 70 76 68 58 50 45
66 79 95 100 100 100 100 100 100 100 100 100 100 100 100 100 100 100 100 91 88 86 84 88 83 84 76 78 81 87 84 86 83 82 88 81 78 74 63 57 43 35 20
82 76 81 92 97 100 100 100 100 100 100 100 100 100 100 100 100 100 100 100 90 84 84 83 75 78 84 87 87 86 83 81 84 95 91 91 77 66 56 40 31 15 18
71 79 85 89 95 93 97 100 100 100 100 100 100 100 100 100 100 100 100 100 100 100 96 92 94 99 97 98 90 84 78 97 95 98 90 80 67 54 40 29 16 15 18
94 92 91 97 100 100 95 95 96 100 100 100 100 100 100 100 100 100 100 97 88 96 99 100 100 99 98 89 84 84 92 99 96 90 75 68 55 38 30 20 20 21 28
100 92 90 99 100 100 100 100 100 98 98 99 100 100 100 100 100 100 100 100 100 100 100 100 99 96 97 94 96 100 100 94 90 80 63 47 34 31 28 27 28 31 35
68 89 94 94 97 99 100 100 100 100 100 100 100 99 100 100 100 100 100 100 99 99 97 95 99 99 98 100 100 100 96 91 72 54 42 35 31 29 34 36 38 41 37
65 54 53 80 100 100 96 96 100 100 100 100 100 100 100 100 100 100 100 100 97 99 100 100 100 100 100 100 100 98 87 61 44 35 40 40 34 38 38 40 46 46 38
74 75 71 68 63 69 86 97 97 96 96 100 100 100 100 100 100 100 100 100 100 100 100 100 100 100 100 100 96 89 50 30 33 38 51 35 41 38 42 46 51 46 41
68 59 61 74 77 73 69 73 76 80 87 86 88 94 100 100 100 100 100 100 100 100 100 100 100 100 98 88 82 48 24 33 55 74 46 53 40 40 47 53 56 47 43
95 88 74 66 65 69 59 58 67 65 68 69 68 75 78 94 100 100 100 100 100 100 100 100 95 87 88 76 47 30 46 70 78 54 41 44 39 47 50 58 57 48 43
100 97 99 90 73 83 76 80 69 67 56 52 58 56 69 92 100 96 97 94 100 98 93 92 94 84 57 31 47 60 72 66 61 46 46 42 51 53 61 65 60 53 48
19 19 19 48 93 100 100 99 89 98 95 57 66 85 100 100 83 76 90 91 67 73 93 88 57 30 46 65 74 81 71 65 49 46 45 56 55 56 66 68 66 59 54
17 17 17 18 19 18 17 16 18 17 19 34 57 78 86 85 86 90 46 51 69 66 46 42 48 74 74 80 70 60 54 51 46 43 53 58 57 62 72 75 73 70 69
18 18 18 18 18 16 16 16 16 16 18 20 24 29 36 51 66 50 65 70 46 47 67 100 82 88 81 62 56 50 51 50 50 55 62 57 66 73 78 83 83 80 81
19 21 22 20 18 18 18 18 20 26 29 34 34 32 31 47 57 47 63 73 86 96 92 83 89 65 60 54 51 50 49 50 56 61 64 62 72 77 90 92 92 92 90
21 22 21 20 21 23 24 26 35 32 50 50 53 49 51 58 85 89 100 100 93 85 96 84 68 57 54 52 50 45 45 51 58 64 68 72 82 85 95 99 97 98 100
23 22 23 25 26 28 29 30 36 56 70 71 78 86 97 92 97 100 100 99 96 97 78 66 62 57 53 47 46 48 50 56 63 69 71 78 84 93 100 100 100 100 99
33 35 30 24 25 27 28 30 41 59 57 80 100 94 100 100 100 100 90 100 100 82 69 66 61 52 46 46 50 52 53 56 66 75 79 81 93 100 100 96 95 99 98
46 50 53 53 53 55 54 50 54 57 68 86 100 100 100 100 100 100 100 98 90 74 68 58 53 54 56 55 52 53 58 62 68 75 81 88 94 97 99 99 92 92 94
72 77 71 66 70 80 83 82 79 84 95 100 100 100 100 100 100 100 95 93 87 78 67 56 59 68 60 61 60 64 67 70 74 81 88 92 93 94 90 88 93 93 83
80 89 92 87 84 83 88 91 92 100 100 100 100 100 97 100 100 99 97 97 90 78 67 64 74 77 69 71 73 77 83 88 92 91 88 89 91 86 82 83 82 82 88
89 92 95 97 94 90 93 97 100 100 100 100 100 100 100 100 100 100 100 99 90 86 67 74 83 81 74 73 75 78 80 82 84 83 81 79 80 84 89 88 86 97 97

GFSMW_250_rhum_072.txt.gz
RH
100 92 85 100 100 100 100 98 90 92 88 82 84 85 89 84 86 87 86 88 89 90 89 98 97 88 100 100 94 91 89 100 100 95 86 82 89 95 84 79 75 77 81
90 100 100 90 96 100 100 100 100 95 87 85 88 93 96 94 95 96 97 98 98 100 100 100 100 100 96 94 91 93 100 100 86 80 80 93 92 80 75 74 77 86 81
100 97 100 100 100 100 100 100 100 100 100 99 96 98 100 100 100 100 100 100 100 100 100 100 99 96 99 100 100 100 99 84 92 93 90 78 76 78 82 89 86 85 76
100 100 100 100 100 100 100 100 100 100 100 100 100 100 100 100 100 100 100 100 100 100 100 100 100 100 100 100 99 99 99 100 100 93 81 74 73 81 86 85 83 82 71
100 100 97 96 100 100 100 100 100 100 100 100 100 100 100 100 100 100 100 100 100 100 100 100 100 100 100 100 100 100 100 96 91 82 77 75 85 83 81 79 88 76 58
81 94 100 100 90 95 100 100 100 100 100 100 100 100 100 100 100 100 100 100 100 100 100 100 99 100 99 96 94 93 92 93 94 84 92 90 89 96 78 75 83 61 42
48 78 94 100 96 94 100 100 100 100 100 100 100 100 100 100 100 100 100 100 100 100 100 100 99 96 97 97 99 100 100 100 99 98 98 99 97 86 81 80 67 47 23
26 50 73 86 99 100 100 99 99 99 100 100 100 100 100 100 100 100 100 100 100 100 100 100 100 100 100 100 100 100 100 100 100 100 97 100 93 86 85 72 54 20 27
24 22 45 62 75 86 95 96 98 98 96 98 100 100 100 100 100 100 100 100 100 100 100 100 100 100 100 100 100 100 100 100 100 100 100 97 93 86 78 58 33 22 26
48 39 36 38 63 82 88 94 99 100 100 100 100 100 100 100 100 100 100 100 100 100 100 100 100 100 100 100 100 100 100 100 100 100 96 94 89 75 58 34 28 28 30
27 18 32 41 48 62 76 84 88 95 99 100 100 100 100 100 100 100 100 100 100 100 100 100 100 100 100 100 100 100 100 100 100 97 91 89 74 51 39 40 36 36 34
37 34 28 37 47 60 78 94 100 100 100 100 100 100 100 100 100 100 99 100 100 100 100 100 100 100 100 100 100 100 100 97 94 85 83 75 48 54 57 47 46 38 37
26 30 30 30 45 64 75 82 92 96 93 92 94 98 99 100 99 99 97 100 100 99 95 96 91 90 91 94 95 90 79 81 65 64 67 43 65 63 57 50 44 44 47
31 41 54 55 68 74 72 76 76 74 83 80 78 74 66 64 65 70 74 76 77 80 76 67 67 72 79 84 91 78 83 60 72 58 58 78 70 58 56 51 46 46 54
79 63 62 84 72 57 69 76 69 69 73 76 79 74 73 64 64 66 64 59 53 56 74 95 75 78 80 82 81 62 59 62 53 70 81 81 61 56 54 50 50 63 57
57 81 80 86 56 39 46 53 54 63 65 71 63 61 57 64 67 59 57 73 97 83 81 59 78 100 95 74 62 64 53 73 86 82 73 60 54 56 61 55 60 66 63
25 25 37 44 62 66 65 70 72 64 60 77 75 81 78 80 84 92 98 98 55 48 62 100 94 96 78 76 63 59 76 83 71 62 59 52 58 57 52 56 64 66 66
24 24 23 22 20 20 19 18 18 18 20 25 35 33 30 53 73 59 33 26 48 63 85 94 85 72 59 63 80 92 81 62 64 50 54 55 51 48 49 59 64 67 65
22 23 23 22 21 20 20 20 19 18 18 19 19 20 20 21 22 23 23 39 61 79 76 74 66 82 88 84 85 86 73 66 55 54 52 48 51 50 56 63 69 70 72
20 20 21 20 20 20 20 20 21 21 22 21 22 22 22 23 29 36 55 62 73 78 78 86 100 100 99 94 91 80 70 62 52 48 46 49 52 54 56 65 71 74 80
20 19 19 20 20 21 21 21 22 23 25 28 32 32 38 39 51 70 70 74 81 98 96 95 97 100 84 91 81 70 59 53 48 48 49 49 50 54 57 63 71 77 81
34 33 28 23 25 25 24 25 24 26 32 43 38 45 54 70 81 86 87 100 100 100 100 100 100 98 98 83 72 62 61 53 52 53 52 55 60 64 71 77 82 86 86
53 51 48 43 44 42 40 40 38 32 30 37 56 70 79 96 97 96 100 100 100 100 100 100 100 97 90 76 66 63 65 57 65 68 70 73 76 82 86 86 86 88 89
64 64 62 65 54 59 62 52 54 58 63 63 68 70 84 87 90 100 100 100 100 100 100 100 88 97 89 76 68 74 72 69 72 77 79 82 86 86 86 89 94 94 93
49 51 62 66 72 67 79 76 74 76 85 88 89 95 94 94 94 100 100 100 100 100 100 100 96 96 89 82 71 89 88 80 81 80 82 85 86 87 90 91 89 87 87
63 59 62 65 78 77 78 77 87 84 86 92 93 88 95 98 100 100 100 100 100 100 99 98 94 95 87 84 82 96 93 92 92 90 93 95 91 89 90 89 86 90 90

GFSMW_250_rhum_075.txt.gz
RH
100 100 96 98 100 100 100 100 98 100 100 93 82 82 87 88 88 90 92 92 84 80 94 97 92 98 100 100 100 100 100 97 82 92 98 100 94 84 70 75 84 90 84
100 100 97 99 99 99 91 99 100 100 100 100 96 88 85 84 79 81 89 94 99 100 100 100 100 100 100 100 100 97 88 90 88 85 87 96 96 84 84 89 99 93 92
100 100 100 97 99 100 88 72 77 95 100 100 100 100 100 100 100 98 99 100 100 100 100 100 100 100 98 100 94 94 100 100 100 100 89 82 87 92 100 100 98 99 94
100 100 100 100 100 100 100 100 95 76 85 100 100 100 100 100 100 100 100 100 100 100 100 100 100 100 100 100 100 100 100 100 99 88 85 92 100 100 100 100 100 99 100
100 100 100 100 100 100 100 99 100 100 100 100 100 100 100 100 100 100 100 100 100 100 100 100 100 100 100 100 100 100 100 100 100 100 100 100 99 98 85 91 93 100 97
90 100 100 100 100 100 100 100 98 100 100 100 100 100 100 100 100 100 100 100 100 100 100 100 100 100 100 100 100 100 100 100 100 100 99 95 92 79 89 86 91 100 100
44 63 100 100 97 96 99 100 100 100 100 100 100 100 100 100 100 100 100 100 100 100 100 100 100 100 100 100 100 100 100 100 98 92 96 95 94 93 94 89 96 99 94
22 48 76 91 96 95 95 99 100 100 100 100 100 100 100 100 100 100 100 100 100 100 100 100 100 100 100 100 100 100 97 91 98 100 100 100 96 98 95 88 87 94 74
18 17 32 64 95 94 99 99 97 98 100 100 100 100 100 100 100 100 100 100 100 100 100 100 100 100 100 100 100 100 100 100 100 100 99 100 97 92 90 88 74 61 56
33 21 18 20 27 78 96 91 91 94 97 100 100 100 100 100 100 100 100 100 100 100 100 100 100 100 100 100 100 100 100 100 100 100 100 95 91 86 81 73 56 57 61
30 35 36 22 16 18 29 80 100 100 100 100 100 100 100 100 100 100 100 100 100 100 100 100 100 100 100 100 100 100 100 100 100 100 97 96 82 78 67 69 56 43 50
32 39 44 30 33 22 18 20 31 59 92 100 100 100 100 100 100 100 100 100 100 100 100 100 100 100 100 100 100 100 99 94 96 96 77 72 67 66 65 56 42 43 52
44 28 21 24 24 27 22 20 19 22 34 53 74 89 96 100 100 100 100 100 100 100 100 100 100 100 100 99 93 87 84 80 75 80 58 52 54 68 68 55 42 50 57
34 34 32 21 23 20 25 30 34 39 44 46 52 56 62 75 87 95 98 100 100 97 97 98 97 90 81 72 78 74 64 71 73 62 50 70 80 70 62 46 57 57 52
26 25 28 34 30 24 21 23 24 28 34 41 50 64 68 73 86 92 99 96 92 96 96 92 86 84 74 73 68 82 77 83 49 54 62 75 72 61 49 53 51 51 48
24 25 32 30 39 47 30 23 22 31 42 48 63 76 76 85 88 92 88 83 85 79 78 73 70 64 79 81 92 87 57 54 67 59 80 75 63 62 58 51 47 52 54
26 26 38 42 53 61 55 40 30 45 46 55 60 70 65 55 56 78 77 74 70 64 68 74 75 78 100 80 88 57 59 66 77 80 73 75 63 48 43 43 47 46 44
26 26 26 26 23 22 21 21 19 18 21 31 35 46 52 46 45 44 42 43 46 58 91 80 52 65 59 47 44 52 74 79 83 94 85 67 48 44 47 46 43 44 50
27 27 26 25 24 22 20 19 18 18 19 20 21 20 19 21 23 24 24 24 25 37 71 48 35 32 40 56 74 87 78 86 97 82 61 58 49 46 42 46 51 50 51
19 20 21 23 22 21 20 21 21 21 21 21 21 22 22 22 25 25 26 28 29 32 35 37 53 71 74 79 78 81 85 92 100 78 70 60 52 49 51 56 56 60 67
25 25 22 21 22 22 21 20 21 22 23 24 24 25 27 26 27 29 29 31 32 46 66 78 90 81 79 92 95 89 88 88 97 77 71 60 56 57 60 64 70 75 82
37 36 33 29 27 22 24 24 23 23 24 25 26 27 29 30 34 41 46 53 68 77 84 81 72 68 89 98 92 96 98 100 81 82 67 64 71 70 72 73 76 79 79
57 62 63 52 51 50 45 45 48 46 38 31 28 28 31 34 47 58 75 81 76 98 100 82 90 97 100 99 86 100 100 82 88 81 68 83 83 81 80 83 81 80 79
67 63 58 62 69 73 72 65 54 58 64 66 60 51 47 48 57 66 76 82 83 88 100 96 91 95 100 100 100 100 91 88 94 82 79 99 96 91 89 85 84 85 80
58 60 60 55 58 60 61 68 63 61 80 72 67 81 83 83 82 80 80 85 93 90 90 98 93 100 100 100 100 99 93 98 94 86 87 98 100 98 96 92 91 83 82
76 67 67 68 61 58 50 55 59 67 80 90 88 84 83 86 89 91 92 95 99 100 100 100 100 100 100 100 100 98 94 98 95 92 92 100 100 100 95 88 89 92 90

GFSMW_250_rhum_078.txt.gz
RH
100 100 100 100 100 99 93 100 100 100 100 100 100 100 98 89 90 90 87 84 86 84 85 86 90 92 99 99 99 100 100 100 99 100 100 94 92 95 92 90 80 64 68
100 100 100 100 100 100 100 90 91 100 100 100 100 100 100 100 100 100 91 88 87 89 90 92 93 97 100 100 100 100 99 100 100 100 100 100 100 97 95 83 70 78 85
93 100 100 100 100 100 100 100 100 100 100 96 96 100 100 100 100 100 100 99 97 97 98 100 100 100 100 100 100 100 100 100 100 94 98 99 100 100 98 90 87 95 90
67 100 100 100 100 100 100 100 99 100 100 100 100 100 100 100 100 100 100 100 100 100 100 100 100 100 100 100 100 100 100 100 100 96 97 88 82 82 89 99 96 97 82
21 73 100 99 100 100 100 100 100 100 100 100 90 80 82 87 96 100 100 100 100 100 100 100 100 100 100 100 100 100 100 100 100 100 96 90 94 97 97 100 92 90 96
21 22 75 100 100 100 100 100 100 100 100 100 100 94 80 75 78 89 100 100 100 100 100 100 100 100 100 100 100 100 100 100 100 100 100 100 100 100 97 100 96 95 100
21 22 24 90 100 100 100 100 100 100 100 100 100 100 100 100 100 100 100 100 100 100 100 100 100 100 100 100 100 100 100 100 100 100 100 100 100 100 100 92 95 97 96
18 20 26 30 98 100 100 100 100 100 100 100 100 100 100 100 100 100 100 100 100 100 100 100 100 100 100 100 100 100 100 100 100 100 100 100 100 97 97 88 84 86 92
16 20 22 30 35 99 100 100 100 100 100 100 100 100 100 100 99 99 97 100 100 100 100 100 100 100 100 100 100 100 100 100 100 100 100 98 98 89 91 90 93 86 94
19 18 20 28 48 59 95 100 100 100 100 100 100 100 100 100 100 100 99 98 100 100 100 100 100 100 100 100 100 100 100 100 99 99 100 100 100 100 90 88 83 75 64
24 21 20 20 30 44 46 75 100 100 100 100 100 100 100 100 100 100 100 100 100 100 100 100 100 100 100 100 100 100 100 100 100 100 99 100 98 87 86 80 64 62 59
24 27 24 22 20 21 34 44 62 73 78 97 100 100 100 100 100 100 100 100 100 100 100 100 100 100 100 100 100 100 100 100 100 100 100 92 94 80 74 65 65 55 50
25 24 25 25 23 21 20 18 34 56 51 46 60 83 91 98 100 100 100 100 100 100 100 100 100 100 100 100 100 100 100 100 100 96 84 90 79 83 72 69 53 50 60
28 25 24 24 23 21 22 27 22 19 25 35 44 45 54 66 77 93 100 100 100 100 100 100 100 100 100 100 100 96 94 85 79 86 88 80 77 75 64 65 52 54 50
25 24 24 23 23 22 21 20 21 24 28 26 22 23 26 27 32 40 46 58 73 80 85 88 90 87 78 70 82 85 88 90 83 75 75 74 70 57 54 54 65 60 41
22 22 22 22 22 21 20 21 21 21 20 21 21 22 26 32 46 41 48 57 53 64 66 64 86 67 62 68 90 81 77 76 69 72 68 72 76 44 57 64 54 51 47
23 25 25 24 24 23 22 21 22 22 20 21 22 26 26 25 37 35 35 33 36 43 64 62 58 63 60 71 75 75 78 68 65 84 67 70 52 61 71 65 65 50 42
22 23 25 27 27 25 24 24 26 29 29 27 27 26 34 39 47 42 40 40 44 45 54 59 61 61 62 75 71 69 65 57 66 47 50 62 81 81 77 69 58 47 47
27 28 28 28 28 29 29 28 28 27 22 20 20 21 24 27 25 24 25 26 31 35 37 44 55 57 51 52 42 59 38 37 42 63 70 84 85 73 75 65 57 56 57
27 27 27 27 27 28 28 28 26 24 23 23 24 25 27 26 26 25 24 24 26 26 28 32 33 32 29 30 34 38 37 54 76 80 86 96 97 87 78 64 64 65 72
27 27 28 26 26 27 28 27 25 25 27 27 27 28 26 26 26 27 28 27 28 29 28 29 30 31 30 37 50 60 63 75 88 91 97 94 96 97 73 70 67 85 92
35 36 36 29 31 30 27 26 27 28 28 28 29 29 29 28 26 27 28 28 29 30 33 35 38 39 48 70 79 76 83 89 95 100 85 90 99 94 75 74 73 91 94
39 40 36 37 42 42 43 40 38 33 43 39 33 30 29 26 26 27 28 30 31 36 41 47 70 73 76 78 99 94 92 100 99 98 100 100 92 82 80 80 78 92 93
44 44 49 54 51 53 58 58 54 52 47 52 53 55 54 45 37 32 31 37 38 46 50 72 83 99 92 88 100 97 99 93 97 100 100 100 96 78 82 84 87 96 93
46 46 52 53 53 53 56 58 59 59 60 58 57 59 70 68 63 59 57 55 57 60 74 82 85 90 91 90 90 91 100 91 99 100 100 98 88 78 86 85 94 94 93
77 71 63 56 58 59 60 59 60 54 53 53 56 60 73 79 77 76 73 69 69 72 80 80 83 87 94 98 97 100 98 100 100 100 100 90 81 84 87 91 94 90 96

GFSMW_250_rhum_081.txt.gz
RH
100 100 100 100 100 100 100 89 99 97 95 100 98 100 100 100 100 100 94 91 84 79 78 82 85 85 83 84 84 86 91 96 100 100 100 90 94 100 100 82 88 81 73
100 100 100 100 100 100 100 100 100 98 91 98 100 98 88 97 100 100 100 100 100 95 93 94 96 91 88 88 89 92 96 100 100 99 94 100 100 100 100 100 87 82 76
100 100 100 100 100 100 100 100 100 100 100 91 100 100 100 96 91 91 98 100 100 100 100 100 100 100 100 100 99 100 100 100 100 100 100 100 100 100 100 100 89 81 79
100 100 100 100 100 100 100 100 100 100 100 100 100 100 100 80 83 85 91 100 100 100 100 100 100 100 100 100 100 100 100 100 100 100 100 100 100 100 100 99 90 95 77
33 81 100 100 100 100 100 100 100 100 100 100 100 100 100 100 100 94 97 100 100 100 100 100 100 100 100 100 100 100 100 100 100 100 100 100 100 100 100 100 99 96 97
19 25 81 100 100 100 100 100 100 100 100 100 100 100 100 100 100 100 100 100 98 88 95 100 100 100 100 100 100 100 100 100 100 100 100 100 100 100 100 100 100 98 93
20 19 23 53 91 100 100 100 100 100 100 100 100 100 98 97 98 100 100 98 93 83 84 86 88 95 100 100 100 100 100 100 100 100 100 100 100 100 100 100 100 95 99
20 20 21 22 23 31 66 97 100 100 100 100 100 100 100 100 100 100 100 100 100 100 100 100 100 100 100 100 100 100 100 100 100 100 100 100 100 100 100 93 97 100 95
19 20 21 22 23 23 24 35 70 90 100 100 100 100 100 100 100 100 100 100 100 100 100 100 100 100 100 100 100 100 100 100 100 100 100 100 100 100 100 100 100 99 98
21 20 20 22 21 22 22 24 33 63 85 100 100 100 100 100 100 97 100 100 100 100 100 100 100 100 100 100 100 100 100 100 100 100 100 100 100 100 100 100 100 87 92
23 22 22 22 22 22 23 24 25 28 39 77 94 100 100 100 100 100 100 100 100 100 100 100 100 100 100 100 100 100 100 100 100 100 100 100 100 100 100 92 90 99 79
25 24 24 23 23 23 22 22 22 23 26 33 44 84 100 100 100 100 100 100 100 100 97 100 100 100 100 100 100 100 100 100 100 100 100 100 100 98 94 97 88 81 74
23 22 25 26 26 25 24 23 23 22 21 21 26 32 45 85 99 100 100 100 100 100 100 100 100 100 100 100 100 100 100 100 100 100 100 100 98 87 92 81 77 63 67
21 23 24 25 26 27 26 25 26 25 25 24 23 23 28 40 65 90 100 100 100 100 100 100 100 100 100 100 100 100 100 100 100 100 98 98 92 82 74 74 72 73 68
21 22 22 22 22 23 25 26 27 26 25 25 25 25 26 26 34 48 55 59 63 83 95 100 100 99 93 96 99 87 76 66 65 74 72 81 84 90 68 73 69 73 77
17 18 19 22 21 20 20 21 23 24 27 27 26 24 23 23 23 25 30 41 52 71 76 73 68 69 66 65 60 55 60 70 71 66 66 68 74 76 78 72 71 63 65
17 18 17 19 19 19 20 22 23 25 25 25 25 25 25 24 24 24 24 24 26 27 28 30 32 37 40 45 58 58 52 55 63 59 60 59 78 77 69 64 70 60 69
16 17 19 21 21 21 21 22 24 24 24 24 25 26 24 24 22 22 24 23 25 25 25 27 28 40 45 49 48 46 53 55 56 63 77 78 71 63 52 58 69 77 88
23 22 20 22 22 22 23 23 23 23 23 24 24 24 25 25 24 26 30 28 28 24 30 33 41 56 42 34 28 28 44 44 46 58 59 55 52 51 61 81 90 95 95
32 28 26 30 30 30 29 26 24 24 23 23 23 24 24 24 26 26 24 26 27 27 29 27 28 26 23 24 24 29 32 37 37 34 38 46 55 75 100 93 99 99 99
28 30 32 33 32 32 31 32 32 32 30 27 26 27 27 26 25 26 27 28 27 26 27 27 26 27 26 28 31 31 35 32 33 39 70 62 81 95 98 100 94 95 94
25 26 28 28 30 31 32 31 32 34 34 34 32 33 32 31 30 29 28 30 31 30 28 29 30 30 32 32 32 32 34 38 50 74 85 89 98 97 100 100 97 100 98
30 31 34 38 41 43 44 46 46 43 40 36 35 37 39 34 31 29 28 26 26 25 26 27 28 30 32 35 39 43 50 60 75 88 100 100 95 98 100 99 100 100 92
35 36 37 39 42 46 52 53 56 57 56 56 53 50 56 56 51 47 42 37 35 32 28 28 29 34 38 44 54 66 77 80 88 95 100 99 97 97 100 100 100 100 90
69 49 40 43 46 47 49 52 52 56 65 70 68 62 56 66 65 59 55 52 48 48 44 42 40 42 47 61 74 81 85 92 91 94 98 100 100 100 100 100 100 98 85
75 82 80 75 64 50 47 49 55 63 65 61 59 58 56 59 61 63 66 68 69 66 66 69 74 77 73 82 86 87 88 92 98 100 100 100 100 100 100 100 94 82 78

GFSMW_250_rhum_084.txt.gz
RH
99 100 100 100 100 100 100 100 83 77 75 80 86 88 95 89 100 100 100 100 100 100 100 100 92 88 84 82 78 78 84 88 86 83 93 100 100 89 100 98 84 94 91
56 95 93 100 100 100 98 100 77 91 83 82 86 89 95 100 100 100 100 100 100 100 100 100 100 100 100 100 100 100 100 100 100 100 100 100 100 97 100 100 100 100 98
34 72 92 100 100 100 100 100 96 100 99 79 90 100 100 99 100 100 100 100 99 100 100 99 100 100 100 100 100 100 100 100 100 100 100 96 99 100 100 100 100 100 100
47 85 89 100 100 98 100 100 100 100 100 100 99 100 100 100 100 100 95 86 78 78 84 96 99 100 100 100 100 100 100 100 100 100 92 96 100 100 100 100 100 100 100
75 67 100 95 100 100 100 100 100 100 100 100 100 100 100 100 100 100 100 99 85 78 71 81 85 98 100 100 94 100 100 99 93 90 94 100 100 100 100 100 100 100 100
40 49 100 100 100 100 100 100 99 100 100 100 100 100 100 100 100 100 100 100 100 100 100 97 100 100 100 100 100 94 86 82 83 97 100 100 100 100 100 100 100 100 100
23 30 92 100 100 100 100 100 100 100 100 100 100 100 100 100 100 100 100 100 100 100 100 95 87 88 82 84 80 78 81 96 100 100 100 100 100 100 100 100 100 100 100
22 23 44 100 100 100 100 100 100 100 100 100 100 100 100 100 100 100 100 100 100 100 100 100 100 100 100 100 100 100 100 100 100 100 100 100 100 100 100 100 100 100 100
20 23 21 93 100 100 100 100 100 100 100 100 100 100 100 100 100 100 100 100 100 100 100 100 100 100 100 100 100 100 100 100 100 100 100 100 100 100 100 100 100 100 100
21 22 21 24 37 78 94 93 94 96 100 100 100 100 100 100 100 100 100 100 100 100 100 100 100 100 100 100 100 100 100 100 100 100 100 100 100 100 100 100 100 100 100
22 23 22 23 26 24 24 25 25 25 26 32 59 98 100 100 100 96 98 100 100 100 100 100 100 100 100 100 100 100 100 100 100 100 100 100 100 100 100 100 100 100 100
24 24 23 23 25 25 26 26 26 26 25 25 26 28 34 39 38 38 47 54 57 74 92 100 100 100 100 100 100 100 100 100 100 100 100 100 100 100 100 100 100 100 100
18 22 24 25 27 26 25 25 25 26 25 25 26 26 26 27 27 27 28 28 30 35 47 53 77 81 91 100 100 99 100 100 100 100 100 100 100 100 100 100 100 92 84
14 15 16 18 20 23 26 28 28 26 24 23 23 23 24 24 24 25 26 27 30 31 35 38 39 49 64 70 76 83 100 100 100 100 100 100 100 100 99 95 76 66 68
16 15 15 16 16 16 18 21 24 28 28 26 25 24 22 22 21 21 22 24 24 24 25 26 27 30 37 48 75 78 92 98 100 94 100 94 91 90 88 69 65 64 63
16 15 15 15 14 15 16 19 21 23 24 28 28 27 26 26 24 24 23 23 22 23 24 25 25 26 27 28 30 36 47 71 66 60 60 65 65 56 64 73 62 52 69
16 14 14 15 14 16 16 17 18 19 21 22 24 26 29 30 29 27 27 26 27 28 28 29 28 28 28 29 30 31 37 46 49 54 47 45 40 44 51 55 46 52 59
17 16 15 15 16 16 17 18 17 18 19 20 22 24 25 25 27 29 30 30 30 29 29 29 29 29 29 28 29 30 30 43 47 48 37 38 42 53 49 40 45 51 55
24 26 25 21 18 18 19 20 18 19 19 20 22 22 22 23 24 25 27 26 26 26 26 25 25 26 27 28 25 27 32 37 37 31 39 42 41 33 33 44 41 43 59
37 37 35 32 28 24 24 20 20 21 20 19 20 21 22 23 25 25 24 24 24 24 25 25 27 29 28 26 27 28 29 27 26 27 33 30 34 34 36 45 53 63 80
21 27 34 34 36 32 29 26 27 26 26 24 22 22 22 23 22 22 23 24 25 24 25 24 26 27 27 26 27 28 29 29 30 32 33 35 38 40 49 63 77 87 97
22 21 20 22 24 31 37 39 36 35 32 29 29 28 27 26 26 24 24 25 24 24 26 27 28 28 27 28 29 29 31 32 32 34 36 39 46 52 68 95 100 100 100
29 27 26 25 24 24 26 28 30 34 37 36 35 35 34 33 33 31 30 28 28 26 24 24 24 24 23 24 25 28 31 34 39 38 41 52 61 78 87 100 100 100 100
38 33 32 32 33 32 33 37 41 47 48 48 56 53 56 50 47 50 49 52 44 38 33 29 26 27 29 30 31 35 36 39 40 55 65 72 74 85 100 100 100 100 100
80 78 60 45 40 41 43 43 45 51 57 61 57 58 60 62 60 58 56 58 60 61 60 55 48 44 43 44 42 45 51 59 69 75 79 86 98 98 100 100 100 100 100
62 72 85 93 90 83 68 52 50 54 54 55 62 63 63 66 62 58 57 64 70 70 72 74 73 70 64 67 69 69 76 81 81 82 86 92 94 98 99 100 100 100 100

GFSMW_250_rhum_087.txt.gz
RH
99 93 88 99 100 100 100 100 100 99 100 100 100 100 100 100 100 100 100 100 100 100 93 100 100 100 100 100 100 100 100 100 100 100 100 100 100 100 90 96 97 98 95
100 85 83 80 92 100 100 100 100 100 100 100 100 100 100 100 100 100 100 100 100 100 97 96 100 100 100 96 100 100 100 100 100 98 100 100 95 70 96 97 92 89 94
50 100 98 80 79 94 96 99 100 100 100 92 100 100 100 100 100 100 100 100 100 100 100 100 99 91 87 92 86 86 89 98 100 96 87 71 83 99 95 91 88 86 97
23 93 100 100 92 91 100 100 100 100 100 100 95 79 100 100 100 100 100 100 100 100 100 100 98 77 89 86 80 88 93 99 94 85 86 87 90 91 92 87 82 96 100
21 24 49 98 100 100 100 100 100 100 100 100 99 97 98 100 100 100 100 100 100 95 92 98 87 100 100 100 100 100 98 100 100 99 92 75 78 84 76 96 100 96 100
22 22 25 30 72 93 99 100 100 100 100 100 100 80 100 100 100 100 100 100 100 100 100 100 100 100 100 100 100 100 100 97 91 76 68 77 82 98 100 100 94 100 95
22 21 24 25 25 36 40 67 98 100 100 100 100 100 78 64 74 91 100 100 100 100 100 100 100 100 100 100 95 89 79 86 91 93 99 95 94 99 96 99 100 100 100
20 20 22 24 25 25 31 31 35 50 96 100 100 100 100 100 100 98 87 79 86 91 88 80 84 96 99 98 95 95 95 98 99 100 100 100 100 100 100 100 100 100 100
20 20 20 24 24 26 26 37 48 74 87 100 100 100 100 100 100 100 100 100 100 99 100 100 100 100 100 100 100 100 100 100 100 100 100 100 100 100 100 100 100 100 100
23 22 21 24 25 23 25 28 78 80 91 100 99 100 100 100 100 100 100 100 100 100 100 100 100 100 100 99 98 100 100 100 100 100 100 100 100 100 100 100 100 100 100
24 26 24 24 24 24 24 26 44 100 100 98 99 100 100 100 100 99 100 100 100 100 97 96 98 100 100 100 99 100 100 100 100 100 100 100 100 100 100 100 100 100 100
22 25 28 26 26 25 25 24 27 29 71 100 100 100 100 100 100 100 100 97 100 99 95 83 84 86 84 91 96 100 100 100 99 100 100 100 100 100 100 100 100 100 98
18 20 25 29 28 27 26 26 27 27 28 27 53 100 100 100 100 100 100 100 100 94 94 63 44 36 32 56 70 63 40 39 38 49 57 71 76 87 78 94 94 90 99
19 20 20 25 30 30 28 26 27 27 28 28 28 29 50 79 93 98 93 89 67 43 30 27 26 26 27 27 27 27 27 27 28 33 36 42 45 67 67 59 67 62 62
18 17 15 15 19 25 29 28 26 26 28 28 28 28 29 29 29 28 27 28 28 27 27 27 27 28 28 28 28 27 27 28 28 28 29 29 29 29 30 32 40 40 40
17 15 16 15 16 16 17 19 24 27 27 27 26 26 26 26 26 26 25 25 25 25 25 24 24 24 24 26 25 25 24 25 27 26 28 30 31 32 30 32 31 33 48
17 16 14 14 15 15 14 16 16 17 18 18 18 21 23 24 25 26 27 28 28 29 30 29 29 28 27 27 27 27 28 29 30 31 30 31 33 34 33 31 32 39 51
19 18 17 18 15 17 16 15 15 16 16 16 17 17 17 18 20 22 24 26 27 28 30 30 30 28 29 30 29 29 29 30 30 31 31 31 31 30 29 32 41 46 44
29 27 22 20 18 17 17 18 17 16 16 16 17 19 21 20 22 23 25 25 25 24 24 24 25 26 27 27 28 29 29 29 27 27 26 28 29 29 27 34 35 32 42
31 37 35 37 37 32 28 24 23 24 22 20 19 19 18 19 19 20 20 21 22 23 24 24 24 24 24 24 25 26 26 25 25 25 26 29 34 33 33 32 32 36 37
23 24 30 34 38 37 33 36 34 28 25 25 23 22 22 21 20 20 20 20 21 22 22 23 23 23 23 22 22 23 23 23 24 27 29 32 37 42 42 40 39 43 46
24 23 21 20 22 27 32 35 34 32 29 27 29 35 30 29 28 25 25 24 24 24 25 26 27 27 26 24 22 22 25 27 28 31 32 32 37 40 42 42 43 49 57
32 27 25 25 25 25 23 22 23 24 28 32 35 40 39 37 35 38 34 34 32 31 28 26 25 25 23 23 24 24 24 24 25 27 32 34 36 39 44 51 57 66 75
53 47 37 31 30 31 31 29 28 28 27 27 30 34 39 42 43 43 43 41 40 38 37 39 43 41 38 41 39 32 31 33 37 38 44 50 54 64 63 69 77 84 88
49 58 65 66 57 44 38 38 39 38 38 37 36 40 43 44 50 52 50 48 52 50 52 57 55 61 60 61 60 58 57 54 53 57 59 59 66 75 85 89 91 97 100
53 59 60 68 78 80 72 59 48 47 49 50 53 58 57 50 51 56 58 56 53 56 61 66 68 64 63 69 78 82 80 79 79 77 75 80 84 90 91 92 97 98 100

GFSMW_250_rhum_090.txt.gz
RH
94 95 100 100 100 100 100 93 85 90 95 100 95 77 100 100 100 100 100 100 100 100 100 100 100 100 100 100 100 100 100 100 99 87 100 100 100 100 99 86 90 100 90
100 100 100 100 100 100 100 100 97 75 73 69 77 82 100 100 100 100 100 100 100 100 100 100 100 97 94 100 100 100 100 100 100 92 90 95 96 95 92 100 87 79 91
100 97 86 100 100 100 100 100 99 68 87 64 79 82 71 84 99 98 100 100 100 100 100 100 100 100 100 99 93 93 100 100 98 97 100 99 100 100 100 98 100 82 81
100 100 100 99 90 92 95 98 100 99 100 75 80 77 78 96 93 90 100 100 100 100 100 100 100 88 87 77 71 74 91 98 100 100 100 100 100 100 100 92 84 85 78
42 100 100 100 99 100 100 99 100 88 82 100 79 94 100 100 100 92 99 100 100 100 88 99 100 100 94 83 83 100 100 100 100 100 99 90 85 97 80 73 65 74 83
26 84 100 100 100 100 100 100 100 100 100 100 95 100 100 100 100 100 98 94 100 100 100 97 100 100 97 100 94 96 97 88 98 100 100 100 91 79 85 94 93 94 100
28 27 84 100 100 100 100 100 100 100 100 100 100 100 100 100 100 100 100 100 100 100 100 100 100 100 100 100 100 98 94 92 91 96 96 92 89 90 100 100 100 100 100
31 32 25 27 26 38 56 33 92 100 100 100 100 100 100 100 100 100 100 100 100 98 96 95 98 93 85 83 98 100 100 100 99 100 100 100 100 100 100 100 100 100 100
21 28 34 35 32 28 25 23 28 29 71 100 100 100 99 100 100 100 100 100 100 100 97 99 95 94 99 100 100 99 95 94 98 97 92 96 100 100 100 100 100 100 100
17 25 35 43 39 36 33 26 23 22 23 32 84 99 100 100 100 100 100 100 100 100 98 97 100 99 86 79 73 75 89 82 75 86 98 96 100 100 100 100 100 100 100
36 35 37 40 36 33 30 29 25 23 23 25 27 28 52 58 54 53 67 100 100 100 100 100 100 100 100 99 92 98 96 100 100 100 100 92 98 100 100 90 92 99 79
28 23 25 30 30 29 28 29 29 25 24 24 26 28 30 32 46 38 32 34 39 64 100 100 100 100 100 100 100 95 90 96 100 100 94 86 100 100 51 34 33 36 31
20 20 19 18 22 24 28 30 28 26 24 23 23 27 31 30 30 31 55 72 46 60 54 72 81 88 90 93 94 93 91 89 85 100 100 100 73 33 31 31 31 31 30
20 20 18 17 17 19 23 28 30 28 26 25 25 26 28 27 26 29 33 46 79 99 88 91 92 89 94 87 94 100 100 100 100 100 90 40 30 29 30 30 30 29 29
19 19 19 18 17 17 19 24 29 31 28 27 28 27 26 26 27 30 34 35 34 39 59 73 80 84 91 100 100 100 100 100 72 38 30 29 27 27 28 30 29 30 32
16 15 15 16 18 17 16 16 19 27 32 31 28 28 29 28 28 28 29 30 29 29 30 29 30 31 31 31 32 31 30 30 28 27 28 29 30 31 30 32 32 34 34
20 18 16 15 17 17 16 16 16 16 19 26 32 32 30 29 29 29 28 28 28 28 29 31 31 31 31 30 28 27 26 26 28 29 28 29 29 32 32 32 34 34 35
20 19 19 18 17 16 15 14 13 14 16 17 19 20 24 28 31 31 30 30 30 31 32 32 32 31 30 29 29 27 25 24 23 25 27 28 28 27 28 30 31 31 32
32 33 32 30 25 21 18 18 16 15 15 16 17 17 17 18 19 19 20 20 20 23 24 24 23 24 24 23 22 21 21 22 22 23 23 24 23 24 26 28 28 27 30
29 34 36 35 36 36 32 30 28 24 22 21 18 18 18 18 19 21 22 21 20 21 21 22 22 22 22 22 21 21 20 20 22 24 25 24 21 22 25 27 27 29 30
26 26 26 31 35 37 42 40 33 30 29 28 26 23 21 19 18 18 20 18 18 18 18 18 18 20 20 20 21 20 20 20 21 23 22 22 22 23 24 26 28 31 37
23 25 27 26 25 27 35 39 36 31 31 32 31 28 26 22 20 20 20 18 19 18 18 18 19 21 21 23 25 26 26 26 25 25 25 25 25 25 26 28 31 37 43
25 28 30 31 28 26 27 27 26 27 29 30 30 32 32 32 32 33 31 29 27 24 25 24 28 30 28 30 29 27 26 26 27 29 31 32 32 30 30 37 39 50 59
20 25 30 35 37 35 32 32 30 28 27 26 25 25 25 26 28 32 35 37 37 37 40 39 43 42 40 44 45 45 45 44 45 47 50 50 54 54 50 53 61 72 79
18 25 31 38 44 46 44 42 39 34 34 34 32 29 29 31 30 29 29 30 35 38 40 43 45 51 55 62 63 67 65 67 73 73 71 71 72 74 76 77 81 86 89
12 19 32 44 51 54 56 57 58 57 52 45 42 39 41 43 44 46 48 47 49 50 51 55 60 65 70 75 73 68 71 80 86 87 86 84 82 82 87 90 92 95 97

GFSMW_250_rhum_093.txt.gz
RH
98 91 100 100 100 100 87 91 100 100 100 100 60 92 100 82 85 78 95 100 100 100 100 100 100 100 100 100 100 100 100 92 100 100 100 84 91 100 100 100 100 100 100
100 100 99 100 100 100 95 94 100 100 100 100 100 94 100 94 100 79 73 100 100 100 100 100 100 100 100 97 99 98 100 82 76 62 54 58 70 96 99 100 100 100 98
100 100 100 100 100 98 69 89 100 100 100 100 100 97 80 67 100 97 87 88 100 100 100 100 100 100 100 100 96 86 96 93 78 75 78 77 89 96 100 100 96 98 100
100 100 100 100 100 100 71 71 88 100 88 72 93 94 100 83 99 100 98 87 99 100 100 100 100 100 98 89 74 78 78 66 71 86 100 99 100 100 100 100 100 92 88
100 100 100 100 100 100 100 100 80 100 100 100 78 81 100 99 100 97 81 94 87 87 97 100 100 100 100 100 100 100 100 83 100 100 97 95 91 92 95 79 75 74 69
51 100 100 100 100 100 100 100 100 96 90 100 100 99 88 88 98 98 97 100 100 100 100 100 100 100 100 100 100 96 100 100 100 92 89 78 68 75 72 78 84 81 100
40 39 78 100 100 100 100 100 100 100 100 100 100 100 100 94 90 100 100 100 100 100 100 95 100 100 100 100 100 100 84 90 78 71 80 87 78 90 82 80 92 94 100
46 43 37 43 91 100 100 100 100 100 100 100 100 100 100 100 100 100 100 100 100 100 100 100 94 99 100 100 100 94 91 88 99 96 90 95 95 94 94 95 100 100 100
38 43 44 38 36 45 75 100 100 100 93 95 95 100 100 100 100 100 100 100 100 100 100 90 71 77 74 69 86 88 96 88 88 99 100 100 100 100 100 99 96 100 98
26 28 30 37 38 34 31 34 59 95 100 100 100 99 100 100 100 100 100 100 100 100 100 100 100 95 95 88 92 93 100 100 100 100 100 99 100 100 100 100 100 100 100
21 22 26 28 34 34 33 28 27 41 50 62 100 100 100 100 98 100 100 100 100 100 100 100 100 100 94 100 98 98 94 96 100 100 100 100 100 100 100 100 100 100 100
24 26 24 26 27 30 37 43 42 34 30 34 37 84 100 100 100 100 100 100 100 100 100 100 100 100 100 100 100 100 100 100 100 100 100 100 100 98 100 100 100 95 89
22 20 23 28 32 32 34 35 37 39 40 35 28 34 61 79 77 59 48 34 33 34 60 60 55 52 61 46 62 75 72 76 65 79 73 66 84 90 86 87 85 93 98
21 21 22 23 24 24 26 28 30 32 34 36 35 27 24 28 30 27 25 26 27 29 32 31 30 28 27 29 31 32 34 33 38 47 66 65 87 96 91 77 54 49 40
22 24 25 23 20 18 16 17 18 21 26 30 31 32 32 32 30 30 28 29 29 28 28 28 27 27 30 32 32 29 27 30 30 30 32 34 35 32 31 34 35 33 32
17 17 16 15 14 14 14 15 15 14 15 16 18 22 25 29 29 28 25 24 26 28 28 27 26 26 27 29 29 26 26 31 31 32 32 32 31 31 32 32 30 31 30
16 16 15 15 17 17 16 14 13 13 12 14 14 16 17 20 24 28 30 30 27 27 27 27 26 28 29 29 29 30 31 32 30 29 28 28 27 27 28 29 28 25 22
22 20 19 17 17 16 16 16 14 14 14 14 15 15 15 16 18 20 23 28 32 32 32 30 29 29 30 31 31 32 31 30 29 29 29 29 27 24 21 19 19 19 22
32 31 31 30 27 24 20 18 20 20 17 15 14 14 15 17 17 18 19 20 22 27 32 35 34 34 34 34 35 34 33 31 28 23 19 18 18 17 17 19 18 18 20
30 33 33 35 38 38 34 29 27 28 25 20 17 16 15 17 18 19 20 20 20 21 21 21 22 23 24 24 23 21 20 18 18 18 18 20 19 18 18 18 17 18 19
24 32 37 43 42 39 39 40 37 32 29 30 32 31 29 23 18 18 18 20 20 20 20 20 20 20 21 20 19 19 19 19 19 19 19 19 19 19 20 21 23 24 25
12 16 22 26 28 32 35 39 40 34 33 31 32 32 29 28 27 24 21 19 19 18 17 17 17 19 20 19 20 22 21 22 21 22 24 24 25 27 27 28 29 29 31
7 10 12 18 24 24 28 35 33 30 34 40 38 36 32 30 30 30 30 28 28 27 24 25 24 23 24 24 29 30 31 32 32 30 30 29 31 37 42 44 51 53 56
5 6 9 11 15 20 24 29 32 31 31 32 32 31 30 27 25 26 30 32 32 32 31 31 34 35 35 37 41 42 44 46 48 50 48 50 55 53 53 58 62 70 75
4 5 6 8 11 17 21 28 32 35 36 40 37 34 32 30 28 27 26 26 26 26 25 26 28 29 32 39 42 49 52 57 64 62 63 66 67 68 67 72 78 84 88
3 4 5 7 8 12 21 28 37 41 40 44 46 45 41 38 36 35 34 36 35 34 31 32 34 38 43 48 54 60 66 69 72 71 66 69 77 78 81 80 80 82 85

GFSMW_250_rhum_096.txt.gz
RH
100 100 100 100 100 100 99 86 100 100 100 77 100 100 100 100 100 78 66 95 94 80 92 100 100 100 100 100 100 100 100 87 67 57 75 78 59 64 72 75 85 85 91
100 100 100 100 100 100 100 85 100 100 100 100 100 100 100 77 99 100 100 80 65 56 56 67 82 96 96 100 98 100 100 100 98 100 98 86 82 74 84 75 80 94 82
100 100 100 100 100 100 100 100 100 100 100 100 100 100 100 100 100 95 84 76 59 57 62 89 91 100 100 100 89 83 73 72 76 72 69 75 97 95 88 67 81 68 68
100 100 100 100 100 88 100 100 100 100 100 100 100 100 100 100 100 100 100 86 79 80 91 100 100 100 100 100 100 98 92 81 86 98 99 100 98 91 99 89 82 76 92
100 100 100 100 100 84 100 100 100 100 100 100 100 100 100 100 100 100 100 100 100 100 85 87 100 100 100 100 100 100 100 100 100 100 100 100 100 90 74 93 92 86 93
85 100 100 100 100 100 99 100 100 89 96 100 100 100 100 100 100 100 100 100 100 100 100 100 100 100 100 96 85 98 98 100 100 100 98 78 83 80 76 74 68 84 80
61 100 100 100 100 100 100 100 100 100 93 91 98 100 100 100 100 100 100 100 100 100 100 100 100 100 100 100 97 80 78 86 74 62 46 43 50 56 62 68 75 67 95
100 82 97 100 100 100 86 100 100 100 100 100 100 100 86 100 100 100 98 100 100 100 100 100 100 100 100 100 82 85 74 68 49 71 82 84 86 88 86 82 98 100 100
54 99 73 83 100 100 100 100 86 99 99 100 100 100 82 65 96 98 100 99 100 100 100 100 100 100 100 100 93 83 84 92 86 91 100 97 86 96 98 100 100 100 100
44 53 97 100 90 99 100 100 100 100 100 100 96 100 100 100 93 99 100 100 100 100 100 100 100 100 100 100 100 99 100 100 100 100 100 99 98 100 99 94 96 100 90
46 52 60 73 100 100 100 95 100 100 100 100 100 100 100 100 100 100 100 100 100 100 100 100 100 100 100 100 100 100 100 100 100 100 97 98 98 88 87 77 71 95 80
19 34 51 58 59 65 91 100 100 96 99 100 100 100 100 100 100 100 100 100 100 100 100 100 100 100 100 100 100 100 96 92 95 82 97 100 100 100 100 88 83 63 59
15 17 22 29 43 53 56 59 69 87 97 100 98 97 97 100 100 100 100 98 90 78 86 86 93 98 99 100 100 100 100 100 100 100 98 100 81 67 80 39 37 35 34
23 26 26 31 30 30 34 42 47 53 59 65 68 72 80 84 92 93 98 100 100 100 100 100 100 100 100 100 100 100 100 100 99 98 83 47 34 34 34 34 32 34 35
37 36 36 39 40 39 38 34 36 37 41 43 47 52 54 58 59 56 55 54 50 43 42 42 45 49 51 51 79 97 100 98 85 67 39 32 31 33 30 28 29 31 28
22 22 21 22 25 29 32 32 33 32 34 37 38 36 36 35 37 39 39 41 43 44 48 50 46 41 40 42 46 50 41 38 36 36 33 32 31 29 27 27 29 28 26
21 22 22 19 16 16 14 14 15 17 18 19 21 23 24 25 25 26 28 30 31 33 32 33 36 38 40 42 41 39 38 36 36 33 30 29 28 26 26 27 27 28 28
25 23 19 18 17 18 17 16 15 16 15 14 14 15 16 16 17 18 20 22 22 22 24 26 28 29 30 34 36 36 37 36 34 32 30 31 30 28 27 27 28 29 26
20 21 22 23 21 19 17 17 16 15 14 14 14 14 13 13 14 15 15 16 17 17 17 17 18 18 19 21 24 27 30 34 34 33 32 31 31 29 26 24 20 17 17
10 13 15 20 22 22 22 20 19 18 19 20 17 16 16 16 15 15 15 15 15 16 17 17 18 18 19 19 19 19 20 22 21 20 20 19 20 20 18 19 19 20 20
8 10 10 12 14 18 20 23 23 25 23 23 25 26 27 27 27 22 19 15 14 15 16 18 18 17 17 18 19 19 20 20 21 21 21 20 20 19 20 20 22 24 26
8 6 6 8 9 12 14 18 24 25 25 24 26 30 34 35 34 28 25 24 21 20 19 17 16 16 17 18 17 18 18 19 20 21 20 21 23 22 25 30 32 37 40
5 5 4 5 6 7 10 15 18 23 25 28 31 34 33 34 35 35 34 32 33 30 27 26 26 27 28 26 26 26 26 25 26 29 31 32 34 37 39 41 44 48 56
4 3 3 4 4 5 6 10 17 25 29 33 34 41 39 35 36 39 34 35 33 30 31 30 31 33 32 32 35 36 36 39 41 40 44 46 47 48 49 52 62 62 65
3 3 3 3 4 4 5 7 12 19 25 30 31 35 36 40 44 38 35 34 32 32 30 30 28 26 26 28 32 34 35 36 36 37 37 40 44 49 59 66 68 72 78
3 3 3 3 3 4 4 6 8 14 21 26 35 44 47 51 52 52 50 45 40 40 38 35 32 30 29 29 31 32 34 38 40 41 45 53 57 61 66 68 75 79 81

GFSMW_250_rhum_099.txt.gz
RH
100 100 100 100 100 100 100 100 96 100 100 100 100 100 100 83 70 80 94 84 61 57 63 88 89 82 100 98 78 80 89 100 83 72 76 78 77 64 74 89 73 70 62
100 100 100 99 100 100 100 100 100 95 100 100 100 93 100 100 100 74 76 90 100 74 95 96 100 96 100 66 67 68 61 71 75 68 69 89 79 83 76 67 55 54 41
100 100 100 99 100 100 100 100 100 100 96 100 100 100 100 100 100 100 100 100 100 100 100 92 96 89 98 76 70 72 70 64 64 81 57 52 52 57 50 42 32 36 51
100 100 100 100 100 100 100 100 100 100 100 100 100 100 100 100 100 100 100 100 100 100 97 95 77 75 69 56 43 44 60 75 84 86 70 55 54 74 64 62 57 59 64
100 100 100 100 100 100 100 100 100 100 100 93 100 100 100 100 100 100 100 100 100 84 100 100 100 100 100 90 66 96 73 63 84 70 47 87 98 70 70 59 54 54 53
100 100 100 100 100 100 98 100 100 100 99 90 100 100 100 100 100 100 100 100 100 100 100 100 100 93 100 87 85 100 100 69 53 50 50 50 37 44 45 56 50 59 45
100 100 100 100 100 100 98 100 100 100 95 82 94 100 100 100 100 100 100 100 100 100 100 100 100 100 100 97 100 100 100 100 100 90 76 94 64 76 61 54 50 49 57
100 100 100 100 100 100 100 100 100 100 100 94 96 91 100 100 100 100 100 100 100 100 100 100 100 100 100 100 100 100 76 78 87 88 100 100 68 82 70 67 58 62 64
100 97 100 100 100 100 100 100 100 100 100 95 100 100 96 100 100 100 100 100 100 100 100 100 100 100 100 100 100 100 100 100 100 100 92 100 98 79 81 94 69 62 90
60 100 100 100 100 100 100 100 100 100 100 92 100 100 100 82 100 100 100 98 100 100 100 100 100 100 100 100 99 100 100 100 100 100 100 100 90 96 94 89 99 100 100
88 64 90 100 100 100 100 100 100 96 100 100 100 100 100 100 99 98 100 100 100 100 100 99 100 100 100 100 100 100 100 96 100 100 100 99 100 100 100 92 99 100 100
88 84 59 54 100 100 100 100 100 100 100 100 100 100 100 100 100 100 100 100 100 100 88 100 99 99 100 100 100 100 100 100 100 100 100 100 100 100 100 100 99 100 100
72 98 78 56 51 53 72 95 100 100 100 100 100 99 100 100 100 100 100 100 100 100 100 100 100 100 100 94 83 70 66 100 100 100 100 100 100 100 100 100 88 70 74
26 42 64 100 100 100 92 82 75 81 99 100 100 100 100 100 96 94 90 88 85 100 100 94 100 94 100 100 100 100 100 100 100 100 100 94 86 84 72 76 80 86 70
19 20 33 58 72 92 100 100 100 100 98 90 91 100 100 100 100 100 100 100 100 100 100 100 100 100 100 100 98 100 100 97 76 73 62 79 95 85 79 76 57 59 62
17 14 14 17 20 34 52 64 84 99 100 100 100 100 100 90 91 100 100 100 100 100 100 100 100 100 100 100 95 98 83 75 74 60 60 54 44 48 46 46 50 51 46
17 13 13 14 14 15 16 21 35 50 62 66 72 87 97 100 100 100 100 100 100 100 96 94 88 73 68 71 67 59 58 60 55 54 52 48 43 40 37 34 40 41 38
16 20 19 16 13 12 13 16 17 18 20 25 33 41 48 55 61 67 75 76 86 87 83 73 66 62 58 57 56 51 45 43 40 37 35 36 32 32 31 28 26 27 30
20 23 15 16 22 19 14 12 12 13 16 21 22 22 24 30 36 40 42 42 44 46 44 42 40 39 37 36 35 31 28 26 26 25 24 23 22 21 21 21 20 22 22
31 25 13 18 14 10 9 14 15 13 13 11 13 17 22 26 28 30 32 32 31 27 24 22 23 23 23 23 21 20 19 18 17 15 16 17 18 19 18 18 19 21 21
19 14 14 10 8 10 10 10 10 14 13 13 13 13 14 15 16 17 18 18 18 18 18 19 20 19 17 16 15 17 17 16 16 15 15 15 16 18 19 20 20 21 23
19 12 7 6 7 4 5 7 7 8 10 15 15 18 20 21 22 22 22 21 20 18 20 22 24 20 17 17 17 17 16 16 17 19 19 20 21 22 24 28 28 31 34
19 14 7 4 4 4 3 3 4 5 6 8 12 14 17 24 28 29 29 28 29 30 35 33 29 28 28 26 28 29 25 26 26 30 33 32 33 38 40 43 46 50 56
21 12 5 3 3 3 3 3 3 4 4 5 6 10 14 20 27 38 47 47 44 51 48 40 41 43 40 37 34 33 32 32 32 34 36 37 42 46 48 54 58 63 62
17 11 4 3 3 3 3 3 3 3 4 5 6 8 14 23 32 41 49 44 45 48 50 50 52 50 44 42 38 34 32 31 30 28 28 29 34 41 46 48 53 56 59
14 7 4 3 3 3 3 3 3 4 4 5 6 8 14 28 34 57 49 55 56 55 58 62 50 42 42 39 36 34 32 32 31 28 28 31 35 39 46 52 61 67 73

GFSMW_250_rhum_102.txt.gz
RH
100 100 100 100 92 100 100 100 100 98 100 100 100 100 100 100 100 100 100 98 94 100 100 100 93 76 69 68 55 53 76 100 90 89 49 53 47 58 39 32 36 36 58
100 100 100 100 100 100 100 100 100 100 100 100 100 100 90 100 100 100 100 100 100 97 100 99 97 86 61 61 74 80 99 97 79 81 84 72 63 43 34 37 29 51 46
100 100 98 100 100 100 100 100 100 100 100 99 90 100 100 100 100 100 100 100 100 95 96 72 72 78 84 92 86 73 70 68 71 69 74 48 42 32 34 26 22 35 31
100 100 100 98 100 92 100 100 100 100 100 100 100 100 100 100 100 100 100 100 99 100 82 100 81 79 65 82 94 88 97 82 64 63 57 54 51 36 47 37 26 30 30
100 100 100 100 100 100 100 100 100 100 100 100 100 100 100 100 100 100 100 100 100 100 100 100 99 100 100 100 99 100 100 100 99 100 98 100 100 100 100 68 55 58 70
100 100 99 100 100 100 100 100 99 100 98 100 100 100 100 100 100 100 100 100 100 100 100 100 99 89 78 68 82 100 84 99 98 100 100 100 95 81 60 69 77 87 96
100 100 100 100 100 100 100 100 100 100 100 100 100 100 100 100 100 100 100 100 100 100 100 100 100 100 84 89 96 100 100 98 100 70 86 97 78 68 73 73 88 99 98
100 100 100 95 100 100 100 99 100 100 100 100 100 100 100 100 100 100 100 100 100 100 83 99 100 100 100 100 100 100 100 90 97 91 99 100 90 99 99 100 100 83 88
100 100 100 100 99 100 90 100 100 99 99 100 100 100 100 100 100 99 100 99 90 99 100 100 100 100 100 100 100 100 100 100 100 80 95 100 100 100 100 77 100 97 81
100 100 100 100 100 100 100 89 100 100 100 100 100 100 100 99 80 91 100 90 95 95 96 100 98 99 100 100 100 100 100 100 100 98 97 78 75 86 100 89 91 99 100
100 100 100 100 100 100 99 100 100 100 100 100 100 100 100 100 100 100 100 73 73 56 76 100 100 100 100 100 100 100 100 100 100 95 100 100 98 96 100 100 100 100 100
100 92 100 100 100 100 100 100 100 100 100 100 100 100 100 100 100 100 100 100 100 100 100 100 100 100 100 100 100 100 100 100 100 100 100 100 100 100 100 100 100 100 100
88 99 85 100 100 100 100 100 100 100 100 100 100 100 100 100 100 100 100 100 100 100 100 100 100 100 100 100 100 100 100 100 100 100 100 100 100 99 70 75 97 90 85
29 62 93 100 100 91 99 100 100 100 100 100 100 100 100 100 100 100 100 100 94 97 97 100 100 100 100 98 90 92 100 100 100 100 96 100 100 100 91 73 93 90 100
95 72 63 94 100 100 86 93 100 100 100 100 100 100 100 100 100 100 100 100 100 100 100 100 100 100 100 100 100 100 99 99 100 100 100 99 94 84 98 78 73 80 96
36 58 83 92 62 66 98 100 100 100 100 88 82 84 99 100 99 100 100 100 100 95 92 100 100 100 100 100 100 100 94 100 100 88 78 62 69 100 100 92 99 100 54
15 15 26 30 35 57 80 77 78 93 99 100 100 100 100 100 100 100 100 100 91 100 100 100 100 99 100 100 100 80 80 75 90 100 87 88 96 99 92 74 63 58 52
40 32 23 15 17 28 30 32 39 50 61 73 93 94 100 100 100 100 100 100 100 100 100 100 100 100 100 100 100 100 100 100 100 99 78 76 81 68 65 70 62 46 36
35 35 36 32 24 16 12 16 26 31 29 34 34 26 34 60 76 85 95 95 95 100 100 98 85 90 82 84 94 100 98 86 89 84 91 74 82 71 58 48 38 30 25
28 29 27 28 25 24 15 11 10 11 15 23 23 27 36 36 37 48 54 68 79 86 87 96 99 86 89 98 100 99 91 88 85 75 67 60 52 45 35 28 22 19 16
33 32 31 29 21 15 14 13 8 7 7 8 11 13 16 23 38 56 80 95 99 97 92 89 83 86 92 89 79 71 63 63 58 50 44 38 32 26 20 18 15 15 16
36 35 26 29 26 12 7 6 9 6 3 3 5 6 9 13 18 25 31 36 40 44 50 54 54 58 59 56 54 52 49 43 35 31 27 20 17 16 16 17 21 28 30
34 31 25 23 19 15 5 4 3 3 3 2 3 4 5 6 7 11 14 16 18 21 25 29 32 34 37 40 37 32 28 26 23 21 20 20 21 22 26 33 35 38 38
34 27 21 16 12 12 5 3 2 2 2 2 3 3 3 4 6 8 8 9 12 18 23 23 21 20 21 24 23 26 30 32 30 34 34 36 33 34 36 37 39 42 41
44 28 22 12 7 7 3 3 2 2 2 2 2 3 3 4 4 7 9 10 11 13 18 27 34 39 39 40 44 45 52 52 54 58 52 47 42 40 37 35 34 34 35
34 29 21 11 5 4 3 2 2 2 2 2 3 3 3 4 4 7 11 13 15 18 27 39 53 66 68 73 65 75 81 82 74 68 64 49 42 38 36 37 36 36 40

GFSMW_250_rhum_105.txt.gz
RH
33 85 99 100 100 100 100 100 100 95 97 90 100 100 100 100 95 94 100 100 100 100 100 100 100 100 90 94 100 81 73 72 66 66 57 40 40 47 61 60 69 60 47
100 100 100 100 100 100 100 100 100 100 100 98 99 100 100 100 100 100 100 100 100 100 100 100 98 99 100 100 100 98 92 76 66 59 54 44 58 77 86 96 76 82 75
100 100 100 100 100 100 100 100 100 100 100 100 92 97 100 100 100 100 100 100 100 100 100 100 99 100 100 99 100 100 98 84 70 52 48 54 70 86 90 70 41 42 35
100 100 100 100 100 100 87 100 100 100 100 100 100 100 100 100 100 100 100 100 100 100 100 100 100 100 100 100 100 100 100 97 78 65 70 75 75 88 74 59 72 96 43
100 100 100 100 100 100 100 100 100 100 100 100 100 95 100 100 98 98 99 100 100 100 100 100 96 100 99 95 100 100 91 81 67 58 54 85 88 99 72 53 37 62 64
100 100 100 100 100 100 100 100 100 100 100 100 100 100 100 100 100 100 100 98 88 100 100 100 100 100 100 100 100 100 99 83 89 100 84 49 61 44 80 73 83 83 100
100 100 100 100 100 100 100 100 100 100 100 100 100 100 100 100 100 90 100 100 94 100 100 100 100 100 100 100 100 100 98 96 78 64 68 58 52 88 89 95 79 91 98
100 100 100 98 100 100 100 100 100 100 100 100 100 100 100 100 100 100 99 100 83 100 100 100 100 100 100 92 100 90 92 99 60 81 95 100 99 100 100 100 100 80 78
100 100 98 100 100 100 100 100 100 100 100 100 100 88 100 100 100 100 100 100 100 80 79 62 57 65 82 81 95 98 87 86 83 85 80 100 100 100 100 100 100 100 97
100 100 100 91 100 100 100 100 100 100 100 100 100 94 100 100 100 100 100 100 99 100 100 98 90 79 80 92 100 100 100 100 100 100 100 100 100 100 100 97 100 100 100
100 100 100 100 100 100 100 100 100 100 100 100 100 100 94 100 100 100 100 100 100 100 100 100 100 100 90 96 100 100 100 100 100 100 100 100 100 100 92 80 99 100 75
94 100 100 100 100 100 100 100 95 100 100 100 100 100 100 100 100 100 100 100 100 100 100 100 97 100 100 100 100 100 88 100 100 100 100 90 100 100 100 100 88 100 100
100 99 100 100 100 100 100 100 91 98 100 99 95 100 100 100 100 96 100 100 100 100 100 100 100 100 100 100 100 93 96 100 95 98 77 92 98 80 84 100 100 100 100
100 97 93 100 100 100 100 100 100 100 100 100 92 100 100 96 89 100 100 100 100 96 100 100 100 100 100 96 100 86 100 100 100 100 100 100 100 100 100 100 100 67 53
97 89 99 100 99 99 100 96 100 100 100 100 100 100 100 100 100 100 100 100 100 100 100 100 100 100 100 100 99 100 99 100 100 100 100 100 99 100 100 95 100 100 100
100 100 94 100 100 84 99 93 100 100 100 100 100 100 100 100 100 100 100 100 100 100 100 100 100 100 100 100 100 100 100 100 100 100 100 100 100 82 91 100 98 100 90
100 99 92 92 78 71 64 78 97 100 100 100 100 97 90 97 100 97 100 100 100 100 100 100 100 100 100 100 100 100 100 100 100 100 100 100 86 89 98 100 94 70 54
52 82 95 98 84 84 80 76 70 83 100 100 100 100 100 100 99 95 100 100 100 100 100 100 100 100 100 100 100 100 100 100 100 100 100 87 93 100 82 88 96 77 96
32 32 34 39 43 51 56 80 100 99 88 88 95 97 93 97 100 100 100 98 88 89 92 100 100 100 100 100 99 100 100 100 98 95 78 89 98 98 98 95 100 91 86
28 27 25 25 25 27 33 36 33 31 26 36 68 71 64 61 74 83 99 100 100 100 100 100 100 100 100 100 100 100 99 100 100 97 90 100 100 91 74 100 87 89 62
35 29 24 25 19 15 15 16 19 22 22 20 15 12 9 13 28 35 43 57 73 95 92 100 96 99 100 100 100 94 100 99 100 100 100 98 100 100 100 93 79 94 63
33 35 41 37 26 21 15 9 8 8 8 7 8 10 10 8 7 6 7 13 38 69 86 98 100 100 100 100 100 100 100 100 100 100 96 99 98 89 88 98 80 56 39
54 51 43 32 27 21 12 5 4 4 4 3 3 3 4 5 5 7 8 7 7 8 12 24 50 68 76 83 91 100 100 100 100 100 99 99 100 99 83 70 53 42 37
60 50 42 38 30 21 7 4 4 4 3 3 2 2 3 4 4 5 6 8 10 12 11 11 12 15 23 33 43 51 52 55 62 80 80 75 76 55 43 38 33 31 28
59 48 40 32 26 13 5 3 3 3 3 2 2 2 2 2 3 3 4 6 9 16 17 15 16 18 20 24 28 33 38 44 56 59 59 50 40 39 45 43 50 46 41
56 45 35 28 25 8 4 3 3 2 2 2 2 2 2 2 2 3 3 4 5 8 12 17 21 23 23 25 26 27 29 36 43 47 53 57 71 77 78 68 64 64 49

GFSMW_250_rhum_108.txt.gz
RH
10 8 12 18 23 98 100 100 100 100 100 100 100 100 99 100 100 100 100 100 100 100 99 75 92 81 91 74 98 100 100 94 100 100 90 88 77 74 72 65 56 46 35
7 9 14 20 100 100 100 100 97 100 94 100 100 98 100 98 100 100 100 100 100 99 84 79 78 78 98 92 100 100 100 100 100 97 85 85 82 82 74 56 50 42 35
7 12 15 74 100 100 100 100 100 100 100 100 100 100 91 100 96 90 93 86 100 100 68 81 96 100 100 100 100 100 100 100 100 100 100 100 100 97 89 76 55 44 45
9 12 16 69 100 100 100 100 100 100 100 100 100 100 100 100 100 98 99 100 100 100 100 100 100 100 100 97 100 100 100 100 100 100 100 100 100 99 72 50 57 57 43
10 14 20 76 100 100 100 100 100 100 100 100 100 100 100 100 100 100 100 100 100 100 100 100 100 100 100 100 100 100 100 100 100 100 100 100 99 84 69 62 56 39 51
20 77 89 100 100 100 100 100 100 100 100 100 100 100 100 100 100 100 100 100 86 100 100 100 100 100 100 99 100 100 100 100 100 100 94 98 85 78 75 52 73 64 58
92 100 100 100 100 100 100 100 100 100 100 100 100 100 100 100 100 100 100 100 100 98 88 100 100 100 100 100 92 99 100 97 90 100 95 76 72 74 74 86 80 70 72
100 100 100 100 100 100 100 100 100 100 100 100 100 100 100 100 100 100 99 100 100 100 100 100 92 87 100 100 100 100 100 91 76 95 81 65 72 72 82 91 97 66 90
100 100 100 100 100 100 100 100 100 100 100 100 100 100 100 100 100 100 100 100 100 100 100 100 100 100 100 97 84 98 100 99 78 91 93 100 100 96 66 88 97 98 95
100 100 100 100 100 100 100 100 100 100 100 100 100 100 100 100 100 100 96 100 99 100 100 85 92 98 89 96 98 90 79 69 79 82 65 64 100 66 67 91 85 89 80
100 100 100 100 100 100 100 100 100 100 100 100 100 100 100 100 100 100 100 100 100 100 100 100 100 86 84 75 75 68 67 62 74 64 86 86 65 83 95 95 100 100 100
100 100 100 100 100 100 100 100 100 100 100 100 100 100 100 100 100 100 100 100 100 100 100 100 100 100 95 99 88 82 68 78 88 94 100 100 100 96 100 100 100 100 96
100 100 100 100 100 100 100 100 100 98 100 100 100 100 100 100 100 100 100 100 100 100 92 89 85 97 100 100 100 100 100 100 100 96 100 95 100 100 100 100 96 100 100
100 100 100 100 99 100 100 100 100 100 100 100 100 100 100 100 100 100 100 100 100 100 100 100 99 98 100 100 100 100 100 100 96 100 100 100 100 100 100 94 84 97 78
96 97 100 100 99 91 100 100 100 100 97 100 100 100 100 100 100 99 100 100 100 100 100 100 100 98 100 97 100 100 100 100 100 100 100 100 100 100 100 100 100 100 100
100 100 100 100 97 100 100 100 100 100 100 100 100 92 100 100 100 100 100 100 94 100 100 100 100 100 100 100 100 100 100 100 100 100 100 100 100 100 100 100 100 100 100
100 100 100 96 91 97 100 100 100 100 100 100 100 100 100 90 88 94 100 100 100 100 100 100 100 100 100 100 100 100 100 100 100 100 100 100 100 100 100 100 100 100 100
100 100 100 100 100 100 100 100 100 100 100 100 100 95 100 100 96 100 94 96 100 100 100 100 100 100 100 100 100 100 100 100 100 100 100 100 100 100 100 100 100 100 100
100 100 100 100 100 100 94 92 100 100 99 100 99 100 100 100 100 100 100 100 100 100 100 100 100 100 100 100 100 100 100 100 100 100 100 100 100 100 100 100 100 100 100
43 77 93 100 90 97 100 100 95 88 88 80 78 84 75 91 76 91 100 100 86 99 100 100 100 99 100 100 100 100 100 100 100 100 100 100 100 100 100 100 100 100 99
22 27 27 36 39 35 35 42 54 64 76 86 85 84 73 62 62 55 61 56 67 68 78 67 85 83 98 100 100 100 100 100 100 100 100 100 100 100 100 100 100 100 98
34 31 26 18 22 18 15 14 15 17 20 20 22 25 35 41 36 25 21 51 51 35 40 48 53 56 65 84 99 100 100 100 100 100 100 100 100 100 100 100 100 100 100
42 40 36 32 32 33 24 16 12 10 7 6 7 6 7 9 13 14 14 15 15 12 14 17 12 12 11 24 57 75 88 100 100 100 100 100 100 100 100 100 100 100 100
42 40 38 35 34 32 22 16 10 6 5 4 3 3 3 3 3 3 3 4 5 6 9 12 14 17 21 18 17 15 15 24 66 90 92 89 79 66 75 86 80 69 95
39 41 35 36 32 25 20 12 7 4 3 3 3 3 3 2 2 2 2 3 3 3 4 6 7 9 14 17 18 18 21 22 24 28 30 32 34 43 63 54 49 56 56
38 40 33 28 28 19 14 10 5 3 3 4 4 4 4 4 2 2 2 2 2 2 2 3 3 5 9 12 16 20 24 28 33 37 45 54 60 62 56 46 51 59 60

GFSMW_250_rhum_111.txt.gz
RH
7 7 6 11 10 10 15 20 100 100 100 100 100 100 100 91 100 100 100 100 100 100 100 100 100 100 100 100 100 100 100 91 88 90 53 45 78 91 100 100 100 92 85
6 6 8 13 14 11 17 21 99 100 100 100 100 100 100 100 100 100 94 100 100 100 100 100 100 100 100 98 77 97 81 90 93 98 60 66 82 87 99 100 100 100 91
5 5 12 20 14 14 19 22 96 100 100 100 100 100 100 100 100 93 100 100 100 100 100 100 100 100 100 81 70 92 97 96 89 81 87 100 97 100 100 100 100 100 99
7 10 18 25 19 16 21 27 91 100 100 98 100 100 100 100 100 93 100 100 100 100 100 91 100 99 92 79 72 72 74 99 100 100 100 99 99 100 100 92 92 100 86
10 13 24 28 23 19 22 21 100 100 100 100 100 100 100 100 100 100 100 90 88 100 100 100 100 100 100 100 91 91 96 100 100 100 100 100 97 99 88 97 96 67 61
11 18 24 26 19 24 24 36 100 100 100 100 100 100 100 100 100 100 100 100 100 100 100 100 100 100 100 100 100 100 100 100 100 100 100 100 68 51 69 75 78 69 72
10 18 28 24 26 25 74 100 100 100 100 100 100 100 100 100 100 100 100 100 100 100 100 100 100 100 100 100 100 96 100 100 100 100 100 85 83 81 95 95 83 90 77
9 21 23 23 27 83 100 100 100 100 100 100 100 100 100 100 100 100 100 100 100 100 100 100 100 100 100 91 95 100 98 100 100 100 100 100 100 100 94 87 80 68 66
10 14 29 34 91 100 100 100 100 100 100 100 100 100 100 100 100 100 100 100 100 100 100 100 100 96 77 79 84 90 100 94 94 97 84 94 84 72 100 96 84 72 71
14 21 100 99 100 100 100 100 100 100 100 100 100 100 100 100 100 100 100 100 100 100 100 100 100 100 100 100 100 100 100 100 100 100 100 100 94 100 95 96 84 87 88
26 48 68 100 100 100 100 100 100 100 100 100 100 100 100 100 100 100 100 98 100 100 100 100 100 100 96 96 99 87 100 92 100 100 100 100 100 100 100 98 87 65 48
36 78 99 100 100 100 100 100 100 100 100 100 100 100 100 100 100 100 100 100 100 100 100 100 100 100 100 90 88 81 92 100 82 100 100 100 100 85 80 73 80 95 98
34 100 100 100 100 100 100 100 100 100 100 100 100 100 100 100 100 100 100 100 100 100 100 100 100 100 100 100 100 96 100 99 85 94 85 82 70 65 62 48 67 94 100
100 100 100 97 100 100 100 100 100 100 100 100 100 100 100 100 100 100 100 100 100 100 100 100 100 100 100 100 100 100 100 100 89 99 100 96 100 92 93 100 100 74 86
100 100 100 100 100 100 100 100 100 100 100 100 100 100 100 100 100 100 100 100 100 100 100 100 100 100 100 100 100 100 100 100 100 100 100 100 99 96 100 95 91 100 100
100 100 100 100 100 100 100 100 100 100 100 100 100 100 100 100 100 100 100 100 100 100 100 100 100 100 100 100 100 100 100 100 100 100 100 100 100 100 100 100 100 100 100
90 100 99 100 100 100 100 100 100 100 100 100 100 100 100 100 100 100 93 92 89 96 100 100 100 100 100 97 100 96 100 97 100 100 96 100 100 100 100 100 100 100 100
100 100 100 100 100 100 99 100 100 100 100 100 100 100 100 100 100 97 100 100 100 99 100 100 98 100 100 100 100 100 100 100 100 100 100 100 100 100 100 100 100 100 100
100 100 100 100 100 100 100 100 100 100 100 100 100 99 99 100 83 88 86 87 87 77 78 72 76 100 100 99 100 100 100 100 100 100 100 100 100 100 100 100 100 100 100
100 100 100 100 100 100 100 85 88 99 96 78 72 90 94 95 92 96 93 82 86 86 98 100 100 100 100 100 100 100 100 100 100 100 100 100 100 100 100 100 100 100 100
95 94 90 84 80 81 80 81 82 82 87 80 79 71 64 70 68 59 69 65 75 70 71 69 58 72 95 99 100 100 100 100 100 100 100 100 100 100 100 100 100 100 100
30 30 28 26 25 26 25 25 26 24 24 27 31 31 27 20 20 21 35 50 44 44 41 25 38 57 57 78 69 68 78 86 96 100 100 100 100 100 100 100 100 100 100
34 33 31 31 30 26 25 24 25 24 21 16 12 12 11 8 8 10 12 16 18 15 13 11 12 12 17 50 55 54 54 33 46 59 76 70 76 64 68 100 100 100 100
38 36 36 37 39 40 37 35 35 29 19 14 7 5 4 3 3 3 3 3 3 3 4 5 6 11 17 18 19 17 15 18 24 27 34 29 26 25 44 50 61 66 65
47 46 43 45 44 48 43 39 36 27 16 10 6 4 3 3 3 4 4 4 4 3 3 3 3 3 3 4 5 7 11 16 22 28 26 21 19 26 36 44 42 43 44
52 51 52 48 48 51 49 42 36 31 17 10 5 3 3 4 4 4 4 4 4 4 4 3 3 3 3 3 3 4 4 6 9 13 19 25 25 28 32 37 42 53 62

GFSMW_250_rhum_114.txt.gz
RH
4 5 7 8 8 10 12 10 10 10 8 15 21 20 100 100 88 100 100 100 100 95 100 100 100 100 100 100 100 100 100 100 100 100 100 100 77 100 80 81 81 82 78
4 6 7 6 6 9 11 11 8 8 8 18 22 25 58 98 89 99 100 100 100 100 100 100 100 100 100 100 100 100 100 96 100 98 92 91 63 67 80 74 66 92 79
3 4 6 6 7 8 11 11 8 9 10 21 24 26 98 99 81 100 100 100 100 100 92 100 100 100 100 100 100 100 100 93 94 83 68 57 56 67 88 88 98 100 98
3 3 4 6 7 9 10 9 8 8 15 23 24 70 100 100 100 100 100 100 100 100 100 100 100 100 100 100 100 100 100 93 75 72 79 77 71 73 86 70 93 97 87
3 3 4 6 6 8 10 9 9 9 21 22 27 29 100 100 100 100 100 100 100 100 100 100 100 100 100 100 100 100 100 100 100 100 100 87 83 76 60 81 84 85 83
4 4 5 6 6 9 10 11 10 10 23 27 32 53 100 100 100 100 100 98 100 100 100 97 100 100 100 100 100 100 100 100 100 100 100 80 71 50 50 59 50 55 56
6 10 11 10 9 9 10 11 12 15 26 29 90 86 100 100 100 98 99 100 100 100 100 100 96 100 100 100 100 100 100 100 100 94 77 82 78 82 87 68 78 96 87
5 11 21 19 17 15 18 21 24 24 30 33 97 100 100 100 100 100 89 100 100 100 100 100 96 100 99 100 100 100 98 99 100 98 100 99 100 94 83 94 54 57 83
4 7 25 34 33 62 40 56 34 35 32 52 90 100 100 100 100 100 100 100 100 100 100 100 100 100 100 100 100 99 79 87 91 92 98 100 97 100 85 66 60 77 66
8 7 19 40 59 57 59 58 38 37 37 100 100 100 100 100 100 100 100 100 100 100 100 100 100 100 100 100 100 98 96 84 97 100 96 86 83 80 88 70 70 88 92
27 13 19 29 41 53 50 51 41 35 33 75 100 100 100 100 100 100 100 100 100 100 100 100 100 100 100 100 96 100 100 93 100 100 100 95 93 100 97 96 96 98 99
40 33 47 86 37 38 40 44 39 43 46 44 89 100 100 100 100 100 100 100 100 100 100 100 100 100 90 95 100 100 96 96 100 100 99 99 100 95 100 100 100 100 84
75 97 100 100 87 59 49 48 43 37 37 100 100 100 100 100 100 100 100 100 100 100 100 100 100 100 100 100 100 100 100 100 100 100 100 100 100 100 96 100 95 100 88
59 100 100 100 100 98 76 64 78 81 100 100 100 100 100 100 100 100 100 100 100 100 100 100 100 100 100 100 100 100 100 100 100 100 100 100 100 100 100 94 100 99 95
60 84 100 100 100 100 100 100 100 100 100 100 100 100 100 100 100 100 100 100 100 100 100 100 100 100 100 100 100 100 100 100 100 100 100 100 100 95 94 86 86 89 94
46 71 96 87 82 100 100 100 100 100 100 100 100 100 100 100 100 100 100 100 100 100 100 100 100 100 100 100 100 100 100 90 88 92 100 100 100 100 100 100 100 100 100
69 43 63 73 88 100 100 100 100 100 100 100 100 100 100 100 100 100 100 100 100 91 98 99 100 100 100 100 100 100 100 99 95 98 98 96 100 100 100 99 100 100 100
79 93 90 90 75 82 94 91 75 100 100 100 100 100 100 100 100 100 100 100 100 100 100 86 90 100 100 100 100 100 100 100 100 100 100 100 100 100 100 100 100 100 100
83 94 90 100 100 100 100 98 80 100 100 100 100 89 98 100 99 100 98 92 93 84 77 100 100 100 100 100 100 100 92 95 100 100 100 100 100 100 100 100 100 100 100
99 99 100 100 100 100 100 93 100 100 100 89 99 100 93 75 76 80 86 63 62 74 61 60 64 83 85 84 99 100 100 99 100 100 100 100 100 100 100 100 100 100 100
51 72 90 100 100 100 100 97 95 84 76 72 77 73 65 60 38 30 30 42 42 43 45 51 73 59 57 80 81 70 73 95 100 100 100 100 100 100 100 100 100 100 100
39 44 45 48 44 43 42 40 39 36 34 33 27 28 28 26 24 18 17 15 10 11 13 14 12 16 23 33 52 59 55 61 64 72 91 88 82 92 95 100 100 100 100
39 37 37 34 32 33 33 34 34 35 34 26 25 26 23 17 12 7 5 4 3 3 3 4 4 6 5 6 12 19 28 42 35 27 47 56 52 57 61 87 90 81 80
33 31 30 27 24 27 34 43 52 50 50 35 27 23 19 12 7 4 3 2 3 2 2 3 3 3 3 5 8 12 19 23 14 16 19 27 44 55 55 57 55 46 35
32 31 30 34 42 48 53 51 52 52 47 34 27 22 14 8 5 3 2 2 3 4 4 4 4 4 4 4 4 4 4 4 5 9 15 22 31 45 46 43 41 41 42
43 41 43 45 46 52 56 52 52 51 45 36 25 19 9 5 3 2 3 3 4 3 3 3 4 4 5 5 4 5 5 6 6 6 6 8 10 16 18 29 33 43 48

GFSMW_250_rhum_117.txt.gz
RH
4 4 4 6 8 8 7 8 10 14 19 20 15 15 13 15 14 16 53 77 79 88 100 100 100 100 100 100 100 100 100 92 100 100 100 100 100 100 100 88 70 99 75
2 3 4 4 6 7 7 8 9 10 11 16 19 16 15 14 18 19 47 77 86 81 100 99 100 100 100 100 100 100 100 100 100 99 95 100 100 100 74 54 49 63 56
2 3 4 4 5 6 6 7 8 9 12 16 17 17 17 12 14 24 41 100 86 75 100 100 100 100 100 100 100 100 100 100 100 100 94 100 100 100 86 86 87 82 78
2 2 3 4 6 6 6 9 11 10 12 16 14 17 17 14 16 18 30 100 93 100 100 100 100 100 100 100 100 97 100 100 100 100 97 96 100 89 87 84 82 74 61
2 2 3 3 4 5 8 10 13 15 15 16 14 16 14 15 16 21 25 32 99 100 100 100 100 100 100 100 92 100 100 100 100 100 100 94 96 100 100 99 61 42 52
2 2 3 4 4 6 7 8 8 8 11 13 13 14 16 14 22 24 21 33 98 100 100 100 100 100 99 91 100 100 100 100 100 100 100 100 97 100 93 75 44 56 71
3 4 4 5 5 5 6 6 7 7 8 9 12 14 15 15 31 30 25 72 100 100 100 100 100 100 100 100 100 100 100 100 100 100 100 100 100 100 100 62 94 57 60
3 5 7 8 8 7 6 7 7 7 8 9 10 13 17 20 33 30 49 91 100 100 100 100 100 100 98 96 100 100 100 100 100 100 100 100 100 97 97 98 87 61 60
2 4 9 13 14 13 8 10 9 9 11 11 12 15 17 32 34 35 35 97 100 100 100 100 100 99 100 100 100 100 100 100 99 99 95 86 61 67 67 58 86 83 95
4 4 9 18 22 31 21 18 14 16 21 18 17 17 27 58 38 50 99 100 100 100 100 100 100 100 94 92 100 93 87 99 90 90 70 90 64 71 100 100 100 100 91
7 6 10 35 25 50 70 49 44 47 34 30 25 32 53 59 100 100 100 100 100 100 100 100 100 100 100 99 75 85 83 97 97 92 100 98 96 100 95 100 99 100 99
17 17 14 42 65 57 77 87 74 84 85 68 52 47 60 61 89 100 100 100 100 100 100 100 100 100 100 100 100 100 100 100 100 100 100 100 100 100 100 100 100 100 100
51 48 36 37 80 54 78 100 100 98 90 88 74 68 60 49 52 100 100 100 100 100 100 100 100 100 100 100 100 100 100 100 100 100 100 100 100 100 100 100 100 100 100
81 69 87 83 82 71 96 100 100 100 98 71 68 54 60 50 51 96 100 100 100 100 100 100 100 100 100 100 100 100 100 100 100 100 100 100 99 94 81 100 100 100 99
98 100 94 88 92 100 89 100 100 100 100 99 93 60 50 46 78 100 100 100 100 100 100 100 100 100 100 100 100 100 100 100 100 100 100 100 92 85 91 100 100 100 100
71 99 96 99 100 97 100 94 84 100 100 100 99 88 73 51 57 100 100 100 100 100 100 100 100 100 100 100 100 100 98 98 87 100 100 100 100 100 100 100 100 100 89
67 81 93 100 98 100 100 100 93 91 91 92 97 100 100 98 99 74 80 79 99 100 100 100 100 100 100 100 100 100 100 100 100 100 100 100 100 100 100 100 100 100 99
100 98 86 76 80 84 73 71 100 100 100 100 100 100 100 100 100 100 100 87 89 98 96 94 86 92 93 97 98 95 84 99 100 100 100 100 100 100 100 100 100 98 98
100 100 100 100 92 84 92 96 94 95 94 99 91 100 100 100 100 97 87 87 92 91 94 80 79 72 72 71 82 73 67 66 88 99 100 100 100 100 100 100 100 100 100
89 95 98 99 100 100 100 98 100 100 97 97 96 87 96 100 88 78 69 72 76 71 76 74 71 72 56 58 60 57 85 81 74 58 70 99 100 100 100 100 100 100 100
62 71 77 99 99 96 100 100 98 85 79 71 79 81 81 75 63 45 40 47 40 32 27 23 20 19 20 21 15 23 43 62 59 59 65 70 85 100 100 100 100 100 100
45 44 42 45 45 43 43 44 42 44 46 43 40 39 39 37 36 29 23 19 17 17 20 18 15 12 12 7 5 7 10 20 24 23 26 23 28 69 88 94 97 99 100
56 54 47 40 39 39 39 40 35 37 36 34 35 35 35 29 26 20 17 12 8 5 3 3 3 3 2 3 3 3 3 5 6 9 12 15 18 22 30 54 50 52 68
54 49 46 41 38 34 35 38 35 33 37 36 40 36 34 32 31 23 14 7 3 3 2 2 2 3 3 3 3 3 3 3 3 4 4 5 8 14 17 21 27 25 39
38 36 34 34 35 33 32 31 30 36 41 37 42 52 48 39 31 21 10 3 2 2 3 3 3 3 3 3 3 4 4 4 4 4 4 4 4 6 8 13 19 28 48
42 42 41 39 34 32 30 32 33 39 50 53 47 49 44 35 25 16 9 3 3 3 3 3 3 3 2 2 3 3 3 3 4 4 5 5 6 6 6 8 14 27 42

GFSMW_250_rhum_120.txt.gz
RH
2 3 4 5 6 8 12 12 14 10 9 13 14 13 20 22 31 30 22 17 19 21 17 21 78 100 100 100 93 100 100 99 97 100 100 100 100 100 92 78 80 94 100
3 3 4 4 5 7 7 10 11 11 10 10 13 11 11 17 24 24 26 17 22 22 21 18 19 64 92 100 100 100 100 100 97 76 88 100 100 100 100 100 100 100 81
2 2 2 4 4 6 7 7 9 10 11 10 10 10 12 13 15 24 19 20 18 21 29 24 19 28 69 100 100 100 100 100 100 99 97 100 100 100 85 90 83 78 83
2 2 2 2 2 4 5 6 8 10 10 9 10 12 12 12 19 22 24 20 19 20 28 33 26 29 58 100 100 100 97 99 95 100 100 100 100 100 100 100 100 90 86
1 2 2 2 2 3 4 4 4 5 6 10 14 13 16 21 23 26 21 19 19 22 27 39 38 33 64 100 100 100 100 100 100 100 100 100 98 100 100 100 99 100 100
2 2 2 2 2 3 3 4 4 4 4 7 13 15 19 21 21 22 22 25 26 23 24 29 45 66 66 99 100 100 100 100 100 100 100 100 88 100 100 100 100 100 100
2 2 2 2 2 3 3 4 4 4 5 6 8 12 19 21 25 23 25 29 29 21 28 29 59 67 70 96 100 100 100 100 100 100 100 97 86 93 92 90 100 100 100
2 3 3 3 3 3 3 4 5 5 7 8 9 11 17 23 26 21 23 24 25 19 30 36 38 85 99 98 100 100 100 100 100 100 100 98 100 100 91 95 100 99 84
2 3 5 4 4 4 5 5 6 6 7 8 9 12 15 14 12 11 14 18 22 20 40 48 38 33 87 100 100 100 100 100 100 100 100 87 100 100 100 100 100 100 82
2 3 7 8 11 13 10 8 8 8 8 7 8 8 9 10 11 13 18 21 28 38 59 92 100 100 100 100 100 100 100 100 100 100 100 100 100 88 100 100 100 100 88
4 5 7 12 20 28 25 29 23 14 9 10 10 11 13 14 16 19 25 36 39 67 47 62 97 100 100 100 100 100 100 100 100 100 100 100 100 100 100 100 100 85 78
10 27 11 10 28 46 39 48 55 45 20 13 14 19 21 19 27 34 36 46 76 74 48 56 100 100 100 100 100 100 100 100 100 100 100 100 100 100 100 100 98 99 78
26 67 51 82 97 40 50 62 75 43 51 44 35 32 35 38 60 74 75 100 100 97 88 62 70 87 94 98 100 100 100 100 100 100 100 100 99 94 100 100 95 92 100
43 40 91 99 98 100 100 100 99 95 89 85 96 88 84 85 91 94 100 100 96 100 100 100 100 100 100 100 100 100 100 100 100 100 100 100 100 100 80 99 100 100 94
72 70 56 86 100 100 100 100 100 100 100 100 98 99 98 93 99 100 100 98 96 97 90 98 100 100 100 100 100 100 100 100 100 100 100 100 100 100 100 100 100 100 100
76 89 67 69 83 92 92 100 100 100 100 100 100 100 100 100 100 100 97 97 99 99 95 100 100 100 100 100 100 100 100 100 100 100 100 100 100 100 100 100 100 100 100
97 94 90 96 96 88 78 88 93 100 100 100 100 100 100 100 100 100 100 94 93 91 97 95 87 76 77 82 84 94 92 93 92 89 89 91 96 92 95 100 100 100 100
90 95 100 100 100 100 100 92 82 83 86 86 86 89 100 90 97 100 98 99 96 87 78 77 75 65 69 61 51 53 50 40 49 63 77 90 100 100 100 100 100 100 95
99 100 100 100 100 100 99 100 100 95 98 86 98 100 96 100 100 100 92 88 89 79 76 68 58 52 37 23 19 20 25 33 45 66 68 61 57 73 100 100 100 100 100
77 85 93 92 88 96 100 100 100 96 95 100 98 94 90 89 84 83 76 74 67 58 47 48 36 28 21 17 17 16 14 15 18 18 17 22 35 68 68 79 100 100 100
60 60 61 58 58 64 78 72 78 91 88 89 92 86 77 63 58 52 49 44 37 34 31 29 27 23 23 23 20 15 11 10 18 21 15 20 23 29 30 44 84 100 100
67 60 54 52 55 53 52 51 54 55 46 46 44 42 40 38 36 34 33 30 26 24 19 14 11 8 6 4 3 3 3 3 5 4 4 7 7 8 12 19 27 52 61
71 67 61 60 58 53 51 47 43 41 40 39 39 36 33 33 37 35 30 24 18 12 13 13 8 4 3 3 3 3 3 3 2 3 3 2 2 3 4 7 16 25 27
60 55 49 44 44 46 46 43 40 40 38 36 34 30 35 36 33 30 30 27 16 13 14 13 5 3 3 3 3 2 2 3 3 3 4 4 4 3 3 3 5 9 15
55 54 51 48 46 43 41 39 38 36 35 33 33 33 37 41 47 50 41 38 19 16 18 12 4 4 3 3 2 2 2 2 2 3 3 3 4 4 5 5 4 4 5
52 50 49 46 44 43 42 38 38 38 39 41 43 47 51 52 55 58 57 45 33 22 15 10 4 4 3 3 3 2 2 2 2 2 2 3 3 3 4 5 6 6 5